<?xml version='1.0' encoding='UTF-8'?>
<gpx version="1.1" creator="https://www.komoot.de" xmlns="http://www.topografix.com/GPX/1/1" xmlns:xsi="http://www.w3.org/2001/XMLSchema-instance" xsi:schemaLocation="http://www.topografix.com/GPX/1/1 http://www.topografix.com/GPX/1/1/gpx.xsd">
  <metadata>
    <name>73_970SeewenAsp</name>
    <author>
      <link href="https://www.komoot.de">
        <text>komoot</text>
        <type>text/html</type>
      </link>
    </author>
  </metadata>
  <trk>
    <name>73_970SeewenAsp</name>
    <trkseg>
      <trkpt lat="47.541357" lon="7.870835">
        <ele>339.191913</ele>
        <time>2021-11-20T22:59:10.611Z</time>
      </trkpt>
      <trkpt lat="47.541410" lon="7.870791">
        <ele>339.191913</ele>
        <time>2021-11-20T22:59:11.536Z</time>
      </trkpt>
      <trkpt lat="47.541576" lon="7.870664">
        <ele>339.191913</ele>
        <time>2021-11-20T22:59:13.976Z</time>
      </trkpt>
      <trkpt lat="47.541550" lon="7.870601">
        <ele>339.191913</ele>
        <time>2021-11-20T22:59:14.786Z</time>
      </trkpt>
      <trkpt lat="47.541521" lon="7.870517">
        <ele>339.191913</ele>
        <time>2021-11-20T22:59:15.842Z</time>
      </trkpt>
      <trkpt lat="47.541606" lon="7.870424">
        <ele>339.191913</ele>
        <time>2021-11-20T22:59:17.471Z</time>
      </trkpt>
      <trkpt lat="47.541910" lon="7.870106">
        <ele>339.191913</ele>
        <time>2021-11-20T22:59:23.133Z</time>
      </trkpt>
      <trkpt lat="47.542014" lon="7.870126">
        <ele>339.148477</ele>
        <time>2021-11-20T22:59:24.604Z</time>
      </trkpt>
      <trkpt lat="47.542118" lon="7.870135">
        <ele>339.046786</ele>
        <time>2021-11-20T22:59:26.346Z</time>
      </trkpt>
      <trkpt lat="47.542181" lon="7.870131">
        <ele>338.985233</ele>
        <time>2021-11-20T22:59:27.214Z</time>
      </trkpt>
      <trkpt lat="47.542317" lon="7.870012">
        <ele>338.831051</ele>
        <time>2021-11-20T22:59:29.324Z</time>
      </trkpt>
      <trkpt lat="47.542348" lon="7.869983">
        <ele>338.795262</ele>
        <time>2021-11-20T22:59:29.763Z</time>
      </trkpt>
      <trkpt lat="47.542329" lon="7.869820">
        <ele>338.686266</ele>
        <time>2021-11-20T22:59:31.548Z</time>
      </trkpt>
      <trkpt lat="47.542372" lon="7.869746">
        <ele>338.621928</ele>
        <time>2021-11-20T22:59:32.356Z</time>
      </trkpt>
      <trkpt lat="47.542657" lon="7.869354">
        <ele>338.242305</ele>
        <time>2021-11-20T22:59:37.153Z</time>
      </trkpt>
      <trkpt lat="47.542696" lon="7.869257">
        <ele>338.167911</ele>
        <time>2021-11-20T22:59:38.088Z</time>
      </trkpt>
      <trkpt lat="47.542722" lon="7.869201">
        <ele>338.123125</ele>
        <time>2021-11-20T22:59:38.679Z</time>
      </trkpt>
      <trkpt lat="47.543049" lon="7.868759">
        <ele>337.691026</ele>
        <time>2021-11-20T22:59:43.592Z</time>
      </trkpt>
      <trkpt lat="47.543105" lon="7.868711">
        <ele>337.627872</ele>
        <time>2021-11-20T22:59:44.330Z</time>
      </trkpt>
      <trkpt lat="47.543201" lon="7.868657">
        <ele>337.527635</ele>
        <time>2021-11-20T22:59:45.409Z</time>
      </trkpt>
      <trkpt lat="47.543657" lon="7.868359">
        <ele>336.908669</ele>
        <time>2021-11-20T22:59:51.204Z</time>
      </trkpt>
      <trkpt lat="47.543801" lon="7.868269">
        <ele>336.704956</ele>
        <time>2021-11-20T22:59:53.684Z</time>
      </trkpt>
      <trkpt lat="47.544214" lon="7.867988">
        <ele>336.112583</ele>
        <time>2021-11-20T23:00:01.300Z</time>
      </trkpt>
      <trkpt lat="47.544246" lon="7.867967">
        <ele>336.066964</ele>
        <time>2021-11-20T23:00:01.897Z</time>
      </trkpt>
      <trkpt lat="47.544410" lon="7.867825">
        <ele>335.819369</ele>
        <time>2021-11-20T23:00:05.150Z</time>
      </trkpt>
      <trkpt lat="47.544469" lon="7.867776">
        <ele>335.731207</ele>
        <time>2021-11-20T23:00:06.172Z</time>
      </trkpt>
      <trkpt lat="47.544568" lon="7.867693">
        <ele>335.582938</ele>
        <time>2021-11-20T23:00:08.099Z</time>
      </trkpt>
      <trkpt lat="47.545003" lon="7.867278">
        <ele>335.218423</ele>
        <time>2021-11-20T23:00:16.947Z</time>
      </trkpt>
      <trkpt lat="47.545160" lon="7.866985">
        <ele>335.445831</ele>
        <time>2021-11-20T23:00:21.598Z</time>
      </trkpt>
      <trkpt lat="47.545240" lon="7.866887">
        <ele>335.539317</ele>
        <time>2021-11-20T23:00:23.872Z</time>
      </trkpt>
      <trkpt lat="47.546096" lon="7.866147">
        <ele>336.431849</ele>
        <time>2021-11-20T23:00:48.941Z</time>
      </trkpt>
      <trkpt lat="47.546327" lon="7.865959">
        <ele>336.669203</ele>
        <time>2021-11-20T23:00:56.679Z</time>
      </trkpt>
      <trkpt lat="47.546510" lon="7.865766">
        <ele>337.062711</ele>
        <time>2021-11-20T23:01:03.780Z</time>
      </trkpt>
      <trkpt lat="47.546819" lon="7.865489">
        <ele>337.776915</ele>
        <time>2021-11-20T23:01:14.011Z</time>
      </trkpt>
      <trkpt lat="47.546889" lon="7.865225">
        <ele>338.155514</ele>
        <time>2021-11-20T23:01:19.202Z</time>
      </trkpt>
      <trkpt lat="47.546894" lon="7.864837">
        <ele>338.673506</ele>
        <time>2021-11-20T23:01:26.622Z</time>
      </trkpt>
      <trkpt lat="47.546885" lon="7.864500">
        <ele>339.123683</ele>
        <time>2021-11-20T23:01:33.411Z</time>
      </trkpt>
      <trkpt lat="47.546877" lon="7.864345">
        <ele>339.331179</ele>
        <time>2021-11-20T23:01:36.304Z</time>
      </trkpt>
      <trkpt lat="47.546592" lon="7.863006">
        <ele>340.616262</ele>
        <time>2021-11-20T23:02:02.313Z</time>
      </trkpt>
      <trkpt lat="47.546526" lon="7.861665">
        <ele>341.282640</ele>
        <time>2021-11-20T23:02:23.045Z</time>
      </trkpt>
      <trkpt lat="47.546487" lon="7.859119">
        <ele>341.179864</ele>
        <time>2021-11-20T23:02:55.666Z</time>
      </trkpt>
      <trkpt lat="47.546537" lon="7.857497">
        <ele>340.869461</ele>
        <time>2021-11-20T23:03:16.677Z</time>
      </trkpt>
      <trkpt lat="47.546582" lon="7.856413">
        <ele>340.680801</ele>
        <time>2021-11-20T23:03:31.032Z</time>
      </trkpt>
      <trkpt lat="47.546945" lon="7.851719">
        <ele>339.201913</ele>
        <time>2021-11-20T23:04:32.066Z</time>
      </trkpt>
      <trkpt lat="47.547141" lon="7.850355">
        <ele>338.257731</ele>
        <time>2021-11-20T23:04:47.631Z</time>
      </trkpt>
      <trkpt lat="47.547143" lon="7.849985">
        <ele>337.765912</ele>
        <time>2021-11-20T23:04:51.539Z</time>
      </trkpt>
      <trkpt lat="47.547124" lon="7.848795">
        <ele>336.183725</ele>
        <time>2021-11-20T23:05:04.138Z</time>
      </trkpt>
      <trkpt lat="47.547274" lon="7.845536">
        <ele>332.151723</ele>
        <time>2021-11-20T23:05:38.896Z</time>
      </trkpt>
      <trkpt lat="47.547295" lon="7.844722">
        <ele>331.557214</ele>
        <time>2021-11-20T23:05:48.379Z</time>
      </trkpt>
      <trkpt lat="47.547313" lon="7.843735">
        <ele>331.285686</ele>
        <time>2021-11-20T23:06:00.783Z</time>
      </trkpt>
      <trkpt lat="47.547354" lon="7.842839">
        <ele>331.038716</ele>
        <time>2021-11-20T23:06:12.971Z</time>
      </trkpt>
      <trkpt lat="47.547448" lon="7.842262">
        <ele>330.853948</ele>
        <time>2021-11-20T23:06:21.352Z</time>
      </trkpt>
      <trkpt lat="47.547362" lon="7.841665">
        <ele>330.627614</ele>
        <time>2021-11-20T23:06:29.731Z</time>
      </trkpt>
      <trkpt lat="47.547339" lon="7.841072">
        <ele>330.407385</ele>
        <time>2021-11-20T23:06:37.317Z</time>
      </trkpt>
      <trkpt lat="47.547332" lon="7.840572">
        <ele>330.221960</ele>
        <time>2021-11-20T23:06:43.404Z</time>
      </trkpt>
      <trkpt lat="47.547313" lon="7.839419">
        <ele>329.452993</ele>
        <time>2021-11-20T23:06:56.714Z</time>
      </trkpt>
      <trkpt lat="47.547300" lon="7.838688">
        <ele>328.584734</ele>
        <time>2021-11-20T23:07:04.672Z</time>
      </trkpt>
      <trkpt lat="47.547276" lon="7.837287">
        <ele>326.920709</ele>
        <time>2021-11-20T23:07:19.530Z</time>
      </trkpt>
      <trkpt lat="47.547240" lon="7.836221">
        <ele>325.589749</ele>
        <time>2021-11-20T23:07:30.895Z</time>
      </trkpt>
      <trkpt lat="47.547190" lon="7.835066">
        <ele>324.138254</ele>
        <time>2021-11-20T23:07:43.400Z</time>
      </trkpt>
      <trkpt lat="47.547020" lon="7.831965">
        <ele>320.374429</ele>
        <time>2021-11-20T23:08:17.200Z</time>
      </trkpt>
      <trkpt lat="47.546946" lon="7.830852">
        <ele>318.903876</ele>
        <time>2021-11-20T23:08:29.232Z</time>
      </trkpt>
      <trkpt lat="47.546823" lon="7.829336">
        <ele>316.877514</ele>
        <time>2021-11-20T23:08:45.424Z</time>
      </trkpt>
      <trkpt lat="47.546721" lon="7.828140">
        <ele>315.109045</ele>
        <time>2021-11-20T23:08:58.135Z</time>
      </trkpt>
      <trkpt lat="47.546592" lon="7.826850">
        <ele>313.174495</ele>
        <time>2021-11-20T23:09:11.601Z</time>
      </trkpt>
      <trkpt lat="47.546574" lon="7.826239">
        <ele>312.418487</ele>
        <time>2021-11-20T23:09:18.047Z</time>
      </trkpt>
      <trkpt lat="47.546589" lon="7.825597">
        <ele>311.760394</ele>
        <time>2021-11-20T23:09:24.869Z</time>
      </trkpt>
      <trkpt lat="47.546693" lon="7.825618">
        <ele>311.601091</ele>
        <time>2021-11-20T23:09:26.536Z</time>
      </trkpt>
      <trkpt lat="47.547233" lon="7.825872">
        <ele>310.741201</ele>
        <time>2021-11-20T23:09:35.659Z</time>
      </trkpt>
      <trkpt lat="47.547666" lon="7.826091">
        <ele>310.046784</ele>
        <time>2021-11-20T23:09:43.357Z</time>
      </trkpt>
      <trkpt lat="47.548237" lon="7.826410">
        <ele>310.491654</ele>
        <time>2021-11-20T23:09:56.732Z</time>
      </trkpt>
      <trkpt lat="47.548679" lon="7.826710">
        <ele>310.870896</ele>
        <time>2021-11-20T23:10:08.030Z</time>
      </trkpt>
      <trkpt lat="47.549105" lon="7.827067">
        <ele>311.252673</ele>
        <time>2021-11-20T23:10:20.297Z</time>
      </trkpt>
      <trkpt lat="47.549143" lon="7.827110">
        <ele>311.289972</ele>
        <time>2021-11-20T23:10:22.307Z</time>
      </trkpt>
      <trkpt lat="47.550183" lon="7.828277">
        <ele>312.958032</ele>
        <time>2021-11-20T23:10:58.495Z</time>
      </trkpt>
      <trkpt lat="47.550522" lon="7.828744">
        <ele>313.586468</ele>
        <time>2021-11-20T23:11:10.379Z</time>
      </trkpt>
      <trkpt lat="47.550675" lon="7.828955">
        <ele>313.870242</ele>
        <time>2021-11-20T23:11:14.640Z</time>
      </trkpt>
      <trkpt lat="47.551640" lon="7.830558">
        <ele>312.902646</ele>
        <time>2021-11-20T23:11:41.416Z</time>
      </trkpt>
      <trkpt lat="47.552065" lon="7.831350">
        <ele>312.001506</ele>
        <time>2021-11-20T23:11:52.439Z</time>
      </trkpt>
      <trkpt lat="47.552251" lon="7.831814">
        <ele>311.272150</ele>
        <time>2021-11-20T23:11:58.179Z</time>
      </trkpt>
      <trkpt lat="47.552368" lon="7.832305">
        <ele>310.568429</ele>
        <time>2021-11-20T23:12:03.648Z</time>
      </trkpt>
      <trkpt lat="47.552458" lon="7.832824">
        <ele>309.844231</ele>
        <time>2021-11-20T23:12:09.249Z</time>
      </trkpt>
      <trkpt lat="47.552508" lon="7.832936">
        <ele>309.662749</ele>
        <time>2021-11-20T23:12:10.709Z</time>
      </trkpt>
      <trkpt lat="47.552556" lon="7.832977">
        <ele>309.551804</ele>
        <time>2021-11-20T23:12:11.674Z</time>
      </trkpt>
      <trkpt lat="47.552616" lon="7.832891">
        <ele>309.384640</ele>
        <time>2021-11-20T23:12:12.480Z</time>
      </trkpt>
      <trkpt lat="47.552690" lon="7.832598">
        <ele>308.940679</ele>
        <time>2021-11-20T23:12:14.803Z</time>
      </trkpt>
      <trkpt lat="47.552645" lon="7.830686">
        <ele>305.836559</ele>
        <time>2021-11-20T23:12:28.496Z</time>
      </trkpt>
      <trkpt lat="47.552554" lon="7.829266">
        <ele>303.873599</ele>
        <time>2021-11-20T23:12:38.782Z</time>
      </trkpt>
      <trkpt lat="47.552416" lon="7.828822">
        <ele>303.308691</ele>
        <time>2021-11-20T23:12:42.440Z</time>
      </trkpt>
      <trkpt lat="47.552404" lon="7.828582">
        <ele>303.030573</ele>
        <time>2021-11-20T23:12:44.348Z</time>
      </trkpt>
      <trkpt lat="47.552421" lon="7.828481">
        <ele>302.910276</ele>
        <time>2021-11-20T23:12:45.103Z</time>
      </trkpt>
      <trkpt lat="47.552477" lon="7.828294">
        <ele>302.673850</ele>
        <time>2021-11-20T23:12:46.677Z</time>
      </trkpt>
      <trkpt lat="47.552515" lon="7.828094">
        <ele>302.433734</ele>
        <time>2021-11-20T23:12:48.389Z</time>
      </trkpt>
      <trkpt lat="47.552491" lon="7.827227">
        <ele>301.564268</ele>
        <time>2021-11-20T23:12:55.291Z</time>
      </trkpt>
      <trkpt lat="47.552510" lon="7.826557">
        <ele>301.233492</ele>
        <time>2021-11-20T23:13:00.979Z</time>
      </trkpt>
      <trkpt lat="47.552567" lon="7.824508">
        <ele>300.223073</ele>
        <time>2021-11-20T23:13:19.160Z</time>
      </trkpt>
      <trkpt lat="47.552896" lon="7.820699">
        <ele>298.352535</ele>
        <time>2021-11-20T23:13:51.940Z</time>
      </trkpt>
      <trkpt lat="47.552948" lon="7.819358">
        <ele>297.735582</ele>
        <time>2021-11-20T23:14:03.479Z</time>
      </trkpt>
      <trkpt lat="47.552844" lon="7.816432">
        <ele>297.382840</ele>
        <time>2021-11-20T23:14:31.113Z</time>
      </trkpt>
      <trkpt lat="47.552711" lon="7.812955">
        <ele>298.597746</ele>
        <time>2021-11-20T23:15:11.768Z</time>
      </trkpt>
      <trkpt lat="47.552566" lon="7.810386">
        <ele>299.734263</ele>
        <time>2021-11-20T23:15:41.800Z</time>
      </trkpt>
      <trkpt lat="47.552398" lon="7.808880">
        <ele>300.431579</ele>
        <time>2021-11-20T23:16:00.281Z</time>
      </trkpt>
      <trkpt lat="47.552068" lon="7.806445">
        <ele>300.988735</ele>
        <time>2021-11-20T23:16:28.649Z</time>
      </trkpt>
      <trkpt lat="47.552015" lon="7.806307">
        <ele>301.023871</ele>
        <time>2021-11-20T23:16:30.391Z</time>
      </trkpt>
      <trkpt lat="47.551895" lon="7.806278">
        <ele>300.973895</ele>
        <time>2021-11-20T23:16:31.695Z</time>
      </trkpt>
      <trkpt lat="47.551651" lon="7.806246">
        <ele>300.794276</ele>
        <time>2021-11-20T23:16:35.484Z</time>
      </trkpt>
      <trkpt lat="47.551671" lon="7.806117">
        <ele>300.728771</ele>
        <time>2021-11-20T23:16:36.794Z</time>
      </trkpt>
      <trkpt lat="47.551678" lon="7.805685">
        <ele>300.514910</ele>
        <time>2021-11-20T23:16:42.375Z</time>
      </trkpt>
      <trkpt lat="47.551681" lon="7.805477">
        <ele>300.411946</ele>
        <time>2021-11-20T23:16:44.623Z</time>
      </trkpt>
      <trkpt lat="47.551709" lon="7.805000">
        <ele>300.174986</ele>
        <time>2021-11-20T23:16:50.271Z</time>
      </trkpt>
      <trkpt lat="47.551731" lon="7.804667">
        <ele>300.009395</ele>
        <time>2021-11-20T23:16:54.934Z</time>
      </trkpt>
      <trkpt lat="47.551744" lon="7.804473">
        <ele>299.912911</ele>
        <time>2021-11-20T23:16:56.932Z</time>
      </trkpt>
      <trkpt lat="47.551741" lon="7.804294">
        <ele>299.824296</ele>
        <time>2021-11-20T23:16:59.319Z</time>
      </trkpt>
      <trkpt lat="47.551692" lon="7.803510">
        <ele>299.645562</ele>
        <time>2021-11-20T23:17:08.473Z</time>
      </trkpt>
      <trkpt lat="47.551751" lon="7.803369">
        <ele>299.624773</ele>
        <time>2021-11-20T23:17:10.455Z</time>
      </trkpt>
      <trkpt lat="47.551744" lon="7.803277">
        <ele>299.613172</ele>
        <time>2021-11-20T23:17:11.273Z</time>
      </trkpt>
      <trkpt lat="47.551732" lon="7.803125">
        <ele>299.593995</ele>
        <time>2021-11-20T23:17:12.661Z</time>
      </trkpt>
      <trkpt lat="47.551666" lon="7.803144">
        <ele>299.581512</ele>
        <time>2021-11-20T23:17:17.328Z</time>
      </trkpt>
      <trkpt lat="47.551598" lon="7.803160">
        <ele>299.568728</ele>
        <time>2021-11-20T23:17:22.073Z</time>
      </trkpt>
      <trkpt lat="47.551163" lon="7.803129">
        <ele>299.487871</ele>
        <time>2021-11-20T23:17:31.098Z</time>
      </trkpt>
      <trkpt lat="47.550981" lon="7.803132">
        <ele>299.454078</ele>
        <time>2021-11-20T23:17:35.111Z</time>
      </trkpt>
      <trkpt lat="47.550196" lon="7.803120">
        <ele>299.520604</ele>
        <time>2021-11-20T23:17:52.437Z</time>
      </trkpt>
      <trkpt lat="47.550134" lon="7.803051">
        <ele>299.547060</ele>
        <time>2021-11-20T23:17:54.119Z</time>
      </trkpt>
      <trkpt lat="47.550146" lon="7.802262">
        <ele>299.728795</ele>
        <time>2021-11-20T23:18:05.501Z</time>
      </trkpt>
      <trkpt lat="47.549879" lon="7.802247">
        <ele>299.819956</ele>
        <time>2021-11-20T23:18:11.280Z</time>
      </trkpt>
      <trkpt lat="47.549481" lon="7.802234">
        <ele>299.955778</ele>
        <time>2021-11-20T23:18:20.003Z</time>
      </trkpt>
      <trkpt lat="47.549410" lon="7.802226">
        <ele>299.980072</ele>
        <time>2021-11-20T23:18:21.606Z</time>
      </trkpt>
      <trkpt lat="47.548877" lon="7.802168">
        <ele>300.057852</ele>
        <time>2021-11-20T23:18:32.819Z</time>
      </trkpt>
      <trkpt lat="47.548626" lon="7.802129">
        <ele>300.089597</ele>
        <time>2021-11-20T23:18:38.026Z</time>
      </trkpt>
      <trkpt lat="47.548626" lon="7.802129">
        <ele>300.089597</ele>
        <time>2021-11-20T23:18:38.030Z</time>
      </trkpt>
      <trkpt lat="47.548626" lon="7.802129">
        <ele>300.089597</ele>
        <time>2021-11-20T23:18:38.038Z</time>
      </trkpt>
      <trkpt lat="47.548607" lon="7.801690">
        <ele>300.126945</ele>
        <time>2021-11-20T23:18:44.112Z</time>
      </trkpt>
      <trkpt lat="47.548596" lon="7.801213">
        <ele>300.167466</ele>
        <time>2021-11-20T23:18:50.644Z</time>
      </trkpt>
      <trkpt lat="47.548576" lon="7.800968">
        <ele>300.188419</ele>
        <time>2021-11-20T23:18:54.006Z</time>
      </trkpt>
      <trkpt lat="47.548569" lon="7.800838">
        <ele>300.199491</ele>
        <time>2021-11-20T23:18:55.771Z</time>
      </trkpt>
      <trkpt lat="47.548560" lon="7.800672">
        <ele>300.213630</ele>
        <time>2021-11-20T23:18:58.087Z</time>
      </trkpt>
      <trkpt lat="47.548545" lon="7.800404">
        <ele>300.251110</ele>
        <time>2021-11-20T23:19:01.734Z</time>
      </trkpt>
      <trkpt lat="47.548519" lon="7.799896">
        <ele>300.341557</ele>
        <time>2021-11-20T23:19:08.850Z</time>
      </trkpt>
      <trkpt lat="47.548514" lon="7.799795">
        <ele>300.359537</ele>
        <time>2021-11-20T23:19:10.253Z</time>
      </trkpt>
      <trkpt lat="47.548535" lon="7.799720">
        <ele>300.373952</ele>
        <time>2021-11-20T23:19:11.404Z</time>
      </trkpt>
      <trkpt lat="47.548459" lon="7.799691">
        <ele>300.394595</ele>
        <time>2021-11-20T23:19:13.051Z</time>
      </trkpt>
      <trkpt lat="47.547912" lon="7.799646">
        <ele>300.538694</ele>
        <time>2021-11-20T23:19:24.293Z</time>
      </trkpt>
      <trkpt lat="47.547540" lon="7.799538">
        <ele>300.638403</ele>
        <time>2021-11-20T23:19:32.254Z</time>
      </trkpt>
      <trkpt lat="47.546418" lon="7.798980">
        <ele>301.140682</ele>
        <time>2021-11-20T23:20:00.710Z</time>
      </trkpt>
      <trkpt lat="47.545807" lon="7.798846">
        <ele>301.425502</ele>
        <time>2021-11-20T23:20:13.652Z</time>
      </trkpt>
      <trkpt lat="47.545731" lon="7.798810">
        <ele>301.462295</ele>
        <time>2021-11-20T23:20:15.696Z</time>
      </trkpt>
      <trkpt lat="47.545581" lon="7.798713">
        <ele>301.524104</ele>
        <time>2021-11-20T23:20:18.502Z</time>
      </trkpt>
      <trkpt lat="47.545511" lon="7.798680">
        <ele>301.520130</ele>
        <time>2021-11-20T23:20:19.994Z</time>
      </trkpt>
      <trkpt lat="47.545558" lon="7.798144">
        <ele>301.500394</ele>
        <time>2021-11-20T23:20:26.782Z</time>
      </trkpt>
      <trkpt lat="47.545637" lon="7.797310">
        <ele>301.469643</ele>
        <time>2021-11-20T23:20:38.508Z</time>
      </trkpt>
      <trkpt lat="47.545645" lon="7.797258">
        <ele>301.467696</ele>
        <time>2021-11-20T23:20:39.002Z</time>
      </trkpt>
      <trkpt lat="47.545670" lon="7.797142">
        <ele>301.463250</ele>
        <time>2021-11-20T23:20:40.570Z</time>
      </trkpt>
      <trkpt lat="47.545689" lon="7.797076">
        <ele>301.460630</ele>
        <time>2021-11-20T23:20:41.475Z</time>
      </trkpt>
      <trkpt lat="47.545728" lon="7.796950">
        <ele>301.455568</ele>
        <time>2021-11-20T23:20:44.183Z</time>
      </trkpt>
      <trkpt lat="47.545761" lon="7.796839">
        <ele>301.451140</ele>
        <time>2021-11-20T23:20:46.056Z</time>
      </trkpt>
      <trkpt lat="47.545788" lon="7.796748">
        <ele>301.447510</ele>
        <time>2021-11-20T23:20:47.128Z</time>
      </trkpt>
      <trkpt lat="47.545889" lon="7.796500">
        <ele>301.436934</ele>
        <time>2021-11-20T23:20:51.412Z</time>
      </trkpt>
      <trkpt lat="47.546038" lon="7.796107">
        <ele>301.486562</ele>
        <time>2021-11-20T23:20:56.957Z</time>
      </trkpt>
      <trkpt lat="47.546105" lon="7.795928">
        <ele>301.542684</ele>
        <time>2021-11-20T23:21:00.470Z</time>
      </trkpt>
      <trkpt lat="47.546154" lon="7.795747">
        <ele>301.596155</ele>
        <time>2021-11-20T23:21:02.775Z</time>
      </trkpt>
      <trkpt lat="47.546170" lon="7.795612">
        <ele>301.633737</ele>
        <time>2021-11-20T23:21:04.715Z</time>
      </trkpt>
      <trkpt lat="47.546165" lon="7.795511">
        <ele>301.661505</ele>
        <time>2021-11-20T23:21:06.734Z</time>
      </trkpt>
      <trkpt lat="47.546019" lon="7.795020">
        <ele>301.808617</ele>
        <time>2021-11-20T23:21:14.493Z</time>
      </trkpt>
      <trkpt lat="47.545947" lon="7.794710">
        <ele>301.898508</ele>
        <time>2021-11-20T23:21:19.536Z</time>
      </trkpt>
      <trkpt lat="47.545921" lon="7.794468">
        <ele>301.965698</ele>
        <time>2021-11-20T23:21:23.649Z</time>
      </trkpt>
      <trkpt lat="47.545968" lon="7.793679">
        <ele>302.138436</ele>
        <time>2021-11-20T23:21:35.966Z</time>
      </trkpt>
      <trkpt lat="47.545969" lon="7.793663">
        <ele>302.134685</ele>
        <time>2021-11-20T23:21:36.229Z</time>
      </trkpt>
      <trkpt lat="47.546027" lon="7.793254">
        <ele>302.037123</ele>
        <time>2021-11-20T23:21:42.732Z</time>
      </trkpt>
      <trkpt lat="47.546253" lon="7.791998">
        <ele>301.733684</ele>
        <time>2021-11-20T23:21:59.422Z</time>
      </trkpt>
      <trkpt lat="47.546606" lon="7.789413">
        <ele>300.409164</ele>
        <time>2021-11-20T23:22:29.765Z</time>
      </trkpt>
      <trkpt lat="47.546673" lon="7.788921">
        <ele>300.093691</ele>
        <time>2021-11-20T23:22:35.912Z</time>
      </trkpt>
      <trkpt lat="47.546695" lon="7.788763">
        <ele>299.992291</ele>
        <time>2021-11-20T23:22:37.812Z</time>
      </trkpt>
      <trkpt lat="47.546897" lon="7.787133">
        <ele>300.307210</ele>
        <time>2021-11-20T23:22:58.635Z</time>
      </trkpt>
      <trkpt lat="47.546959" lon="7.786598">
        <ele>300.473907</ele>
        <time>2021-11-20T23:23:06.007Z</time>
      </trkpt>
      <trkpt lat="47.546952" lon="7.786540">
        <ele>300.492000</ele>
        <time>2021-11-20T23:23:06.965Z</time>
      </trkpt>
      <trkpt lat="47.546913" lon="7.786470">
        <ele>300.519873</ele>
        <time>2021-11-20T23:23:08.749Z</time>
      </trkpt>
      <trkpt lat="47.546526" lon="7.786353">
        <ele>300.911824</ele>
        <time>2021-11-20T23:23:20.146Z</time>
      </trkpt>
      <trkpt lat="47.546464" lon="7.786335">
        <ele>301.256624</ele>
        <time>2021-11-20T23:23:21.951Z</time>
      </trkpt>
      <trkpt lat="47.546417" lon="7.786331">
        <ele>301.513549</ele>
        <time>2021-11-20T23:23:23.189Z</time>
      </trkpt>
      <trkpt lat="47.546102" lon="7.786217">
        <ele>303.283209</ele>
        <time>2021-11-20T23:23:34.742Z</time>
      </trkpt>
      <trkpt lat="47.545856" lon="7.785973">
        <ele>304.898866</ele>
        <time>2021-11-20T23:23:46.897Z</time>
      </trkpt>
      <trkpt lat="47.545672" lon="7.785654">
        <ele>306.444608</ele>
        <time>2021-11-20T23:23:58.223Z</time>
      </trkpt>
      <trkpt lat="47.545624" lon="7.785548">
        <ele>306.914823</ele>
        <time>2021-11-20T23:24:04.888Z</time>
      </trkpt>
      <trkpt lat="47.545250" lon="7.784778">
        <ele>310.409409</ele>
        <time>2021-11-20T23:24:36.414Z</time>
      </trkpt>
      <trkpt lat="47.545240" lon="7.784746">
        <ele>310.515667</ele>
        <time>2021-11-20T23:24:39.094Z</time>
      </trkpt>
      <trkpt lat="47.545054" lon="7.784227">
        <ele>311.489064</ele>
        <time>2021-11-20T23:24:57.243Z</time>
      </trkpt>
      <trkpt lat="47.544950" lon="7.784008">
        <ele>311.932628</ele>
        <time>2021-11-20T23:25:03.574Z</time>
      </trkpt>
      <trkpt lat="47.544627" lon="7.783499">
        <ele>313.089896</ele>
        <time>2021-11-20T23:25:19.437Z</time>
      </trkpt>
      <trkpt lat="47.544555" lon="7.783372">
        <ele>313.364634</ele>
        <time>2021-11-20T23:25:21.514Z</time>
      </trkpt>
      <trkpt lat="47.544490" lon="7.783060">
        <ele>313.905532</ele>
        <time>2021-11-20T23:25:26.260Z</time>
      </trkpt>
      <trkpt lat="47.544474" lon="7.782623">
        <ele>314.630507</ele>
        <time>2021-11-20T23:25:31.268Z</time>
      </trkpt>
      <trkpt lat="47.544469" lon="7.782455">
        <ele>314.909077</ele>
        <time>2021-11-20T23:25:32.567Z</time>
      </trkpt>
      <trkpt lat="47.544461" lon="7.782254">
        <ele>314.147088</ele>
        <time>2021-11-20T23:25:33.831Z</time>
      </trkpt>
      <trkpt lat="47.544100" lon="7.779438">
        <ele>303.686973</ele>
        <time>2021-11-20T23:25:51.320Z</time>
      </trkpt>
      <trkpt lat="47.543933" lon="7.778374">
        <ele>300.745034</ele>
        <time>2021-11-20T23:25:58.391Z</time>
      </trkpt>
      <trkpt lat="47.543707" lon="7.777394">
        <ele>297.955979</ele>
        <time>2021-11-20T23:26:05.612Z</time>
      </trkpt>
      <trkpt lat="47.543527" lon="7.776532">
        <ele>297.223483</ele>
        <time>2021-11-20T23:26:12.756Z</time>
      </trkpt>
      <trkpt lat="47.543482" lon="7.776095">
        <ele>297.009966</ele>
        <time>2021-11-20T23:26:16.632Z</time>
      </trkpt>
      <trkpt lat="47.543449" lon="7.775478">
        <ele>296.711015</ele>
        <time>2021-11-20T23:26:22.375Z</time>
      </trkpt>
      <trkpt lat="47.543402" lon="7.775016">
        <ele>296.485345</ele>
        <time>2021-11-20T23:26:27.044Z</time>
      </trkpt>
      <trkpt lat="47.543350" lon="7.774507">
        <ele>296.289956</ele>
        <time>2021-11-20T23:26:32.281Z</time>
      </trkpt>
      <trkpt lat="47.543145" lon="7.773277">
        <ele>296.138522</ele>
        <time>2021-11-20T23:26:45.181Z</time>
      </trkpt>
      <trkpt lat="47.543108" lon="7.773069">
        <ele>296.112812</ele>
        <time>2021-11-20T23:26:47.361Z</time>
      </trkpt>
      <trkpt lat="47.542720" lon="7.770771">
        <ele>295.692273</ele>
        <time>2021-11-20T23:27:08.583Z</time>
      </trkpt>
      <trkpt lat="47.542450" lon="7.769311">
        <ele>295.662917</ele>
        <time>2021-11-20T23:27:22.555Z</time>
      </trkpt>
      <trkpt lat="47.542317" lon="7.768533">
        <ele>296.839800</ele>
        <time>2021-11-20T23:27:30.928Z</time>
      </trkpt>
      <trkpt lat="47.541697" lon="7.765479">
        <ele>305.108858</ele>
        <time>2021-11-20T23:28:33.194Z</time>
      </trkpt>
      <trkpt lat="47.541552" lon="7.764869">
        <ele>307.596499</ele>
        <time>2021-11-20T23:28:52.934Z</time>
      </trkpt>
      <trkpt lat="47.541443" lon="7.764512">
        <ele>309.103663</ele>
        <time>2021-11-20T23:29:06.785Z</time>
      </trkpt>
      <trkpt lat="47.541364" lon="7.764150">
        <ele>311.241248</ele>
        <time>2021-11-20T23:29:17.752Z</time>
      </trkpt>
      <trkpt lat="47.541377" lon="7.764045">
        <ele>311.924609</ele>
        <time>2021-11-20T23:29:22.315Z</time>
      </trkpt>
      <trkpt lat="47.541334" lon="7.764020">
        <ele>312.362650</ele>
        <time>2021-11-20T23:29:27.158Z</time>
      </trkpt>
      <trkpt lat="47.541219" lon="7.763853">
        <ele>313.889766</ele>
        <time>2021-11-20T23:29:33.745Z</time>
      </trkpt>
      <trkpt lat="47.541023" lon="7.762922">
        <ele>320.132622</ele>
        <time>2021-11-20T23:30:12.078Z</time>
      </trkpt>
      <trkpt lat="47.541004" lon="7.762306">
        <ele>324.080044</ele>
        <time>2021-11-20T23:30:34.896Z</time>
      </trkpt>
      <trkpt lat="47.540921" lon="7.761599">
        <ele>327.825654</ele>
        <time>2021-11-20T23:30:59.565Z</time>
      </trkpt>
      <trkpt lat="47.540567" lon="7.759901">
        <ele>334.530691</ele>
        <time>2021-11-20T23:31:44.239Z</time>
      </trkpt>
      <trkpt lat="47.540447" lon="7.759585">
        <ele>335.898646</ele>
        <time>2021-11-20T23:31:51.822Z</time>
      </trkpt>
      <trkpt lat="47.539949" lon="7.758688">
        <ele>336.326352</ele>
        <time>2021-11-20T23:32:10.066Z</time>
      </trkpt>
      <trkpt lat="47.539722" lon="7.758107">
        <ele>336.092276</ele>
        <time>2021-11-20T23:32:16.356Z</time>
      </trkpt>
      <trkpt lat="47.539595" lon="7.757548">
        <ele>335.886612</ele>
        <time>2021-11-20T23:32:20.750Z</time>
      </trkpt>
      <trkpt lat="47.539346" lon="7.755736">
        <ele>330.659691</ele>
        <time>2021-11-20T23:32:32.494Z</time>
      </trkpt>
      <trkpt lat="47.539230" lon="7.755294">
        <ele>328.948023</ele>
        <time>2021-11-20T23:32:35.386Z</time>
      </trkpt>
      <trkpt lat="47.539079" lon="7.754976">
        <ele>327.544737</ele>
        <time>2021-11-20T23:32:37.776Z</time>
      </trkpt>
      <trkpt lat="47.538792" lon="7.754549">
        <ele>325.665112</ele>
        <time>2021-11-20T23:32:41.511Z</time>
      </trkpt>
      <trkpt lat="47.538723" lon="7.754445">
        <ele>325.347266</ele>
        <time>2021-11-20T23:32:42.409Z</time>
      </trkpt>
      <trkpt lat="47.538494" lon="7.754103">
        <ele>324.297284</ele>
        <time>2021-11-20T23:32:45.569Z</time>
      </trkpt>
      <trkpt lat="47.538359" lon="7.753900">
        <ele>323.676152</ele>
        <time>2021-11-20T23:32:47.470Z</time>
      </trkpt>
      <trkpt lat="47.538052" lon="7.753460">
        <ele>322.296852</ele>
        <time>2021-11-20T23:32:51.877Z</time>
      </trkpt>
      <trkpt lat="47.537715" lon="7.753194">
        <ele>321.063887</ele>
        <time>2021-11-20T23:32:55.996Z</time>
      </trkpt>
      <trkpt lat="47.537564" lon="7.753073">
        <ele>320.509561</ele>
        <time>2021-11-20T23:32:57.898Z</time>
      </trkpt>
      <trkpt lat="47.537371" lon="7.752851">
        <ele>320.228744</ele>
        <time>2021-11-20T23:33:01.335Z</time>
      </trkpt>
      <trkpt lat="47.537134" lon="7.752309">
        <ele>320.039463</ele>
        <time>2021-11-20T23:33:07.623Z</time>
      </trkpt>
      <trkpt lat="47.535912" lon="7.749669">
        <ele>319.232004</ele>
        <time>2021-11-20T23:33:37.803Z</time>
      </trkpt>
      <trkpt lat="47.534874" lon="7.746551">
        <ele>318.576446</ele>
        <time>2021-11-20T23:34:09.653Z</time>
      </trkpt>
      <trkpt lat="47.534429" lon="7.744856">
        <ele>318.709216</ele>
        <time>2021-11-20T23:34:28.564Z</time>
      </trkpt>
      <trkpt lat="47.534370" lon="7.744709">
        <ele>318.733940</ele>
        <time>2021-11-20T23:34:30.211Z</time>
      </trkpt>
      <trkpt lat="47.534179" lon="7.744495">
        <ele>318.785225</ele>
        <time>2021-11-20T23:34:34.094Z</time>
      </trkpt>
      <trkpt lat="47.534097" lon="7.744343">
        <ele>318.813354</ele>
        <time>2021-11-20T23:34:36.105Z</time>
      </trkpt>
      <trkpt lat="47.534043" lon="7.744207">
        <ele>318.836164</ele>
        <time>2021-11-20T23:34:37.850Z</time>
      </trkpt>
      <trkpt lat="47.533870" lon="7.743466">
        <ele>319.085566</ele>
        <time>2021-11-20T23:34:46.629Z</time>
      </trkpt>
      <trkpt lat="47.533707" lon="7.742025">
        <ele>319.773824</ele>
        <time>2021-11-20T23:35:05.178Z</time>
      </trkpt>
      <trkpt lat="47.533352" lon="7.740430">
        <ele>319.536736</ele>
        <time>2021-11-20T23:35:24.300Z</time>
      </trkpt>
      <trkpt lat="47.533191" lon="7.739816">
        <ele>319.088757</ele>
        <time>2021-11-20T23:35:30.371Z</time>
      </trkpt>
      <trkpt lat="47.533153" lon="7.739664">
        <ele>318.978519</ele>
        <time>2021-11-20T23:35:31.668Z</time>
      </trkpt>
      <trkpt lat="47.531874" lon="7.736048">
        <ele>312.639873</ele>
        <time>2021-11-20T23:36:00.141Z</time>
      </trkpt>
      <trkpt lat="47.531710" lon="7.735855">
        <ele>312.236774</ele>
        <time>2021-11-20T23:36:02.327Z</time>
      </trkpt>
      <trkpt lat="47.531389" lon="7.735745">
        <ele>311.602722</ele>
        <time>2021-11-20T23:36:05.891Z</time>
      </trkpt>
      <trkpt lat="47.531325" lon="7.735684">
        <ele>311.456261</ele>
        <time>2021-11-20T23:36:06.604Z</time>
      </trkpt>
      <trkpt lat="47.530882" lon="7.735983">
        <ele>310.519402</ele>
        <time>2021-11-20T23:36:12.216Z</time>
      </trkpt>
      <trkpt lat="47.530193" lon="7.736351">
        <ele>309.801510</ele>
        <time>2021-11-20T23:36:21.635Z</time>
      </trkpt>
      <trkpt lat="47.529741" lon="7.736731">
        <ele>309.823282</ele>
        <time>2021-11-20T23:36:30.115Z</time>
      </trkpt>
      <trkpt lat="47.529603" lon="7.736896">
        <ele>309.830712</ele>
        <time>2021-11-20T23:36:33.360Z</time>
      </trkpt>
      <trkpt lat="47.529534" lon="7.737005">
        <ele>309.834937</ele>
        <time>2021-11-20T23:36:35.523Z</time>
      </trkpt>
      <trkpt lat="47.528997" lon="7.738134">
        <ele>309.664249</ele>
        <time>2021-11-20T23:36:49.502Z</time>
      </trkpt>
      <trkpt lat="47.528896" lon="7.738303">
        <ele>309.557904</ele>
        <time>2021-11-20T23:36:51.685Z</time>
      </trkpt>
      <trkpt lat="47.528842" lon="7.738378">
        <ele>309.506242</ele>
        <time>2021-11-20T23:36:52.503Z</time>
      </trkpt>
      <trkpt lat="47.528638" lon="7.738583">
        <ele>309.334202</ele>
        <time>2021-11-20T23:36:55.586Z</time>
      </trkpt>
      <trkpt lat="47.528601" lon="7.738620">
        <ele>309.303046</ele>
        <time>2021-11-20T23:36:56.123Z</time>
      </trkpt>
      <trkpt lat="47.528341" lon="7.738762">
        <ele>309.109661</ele>
        <time>2021-11-20T23:36:59.484Z</time>
      </trkpt>
      <trkpt lat="47.528292" lon="7.738774">
        <ele>309.075002</ele>
        <time>2021-11-20T23:37:00.078Z</time>
      </trkpt>
      <trkpt lat="47.527841" lon="7.738820">
        <ele>308.759525</ele>
        <time>2021-11-20T23:37:07.886Z</time>
      </trkpt>
      <trkpt lat="47.527567" lon="7.738827">
        <ele>308.594716</ele>
        <time>2021-11-20T23:37:11.462Z</time>
      </trkpt>
      <trkpt lat="47.527349" lon="7.738840">
        <ele>308.546578</ele>
        <time>2021-11-20T23:37:14.153Z</time>
      </trkpt>
      <trkpt lat="47.527103" lon="7.738847">
        <ele>308.492290</ele>
        <time>2021-11-20T23:37:17.159Z</time>
      </trkpt>
      <trkpt lat="47.527038" lon="7.739424">
        <ele>308.405138</ele>
        <time>2021-11-20T23:37:22.282Z</time>
      </trkpt>
      <trkpt lat="47.526782" lon="7.740808">
        <ele>308.285214</ele>
        <time>2021-11-20T23:37:37.545Z</time>
      </trkpt>
      <trkpt lat="47.526222" lon="7.742784">
        <ele>309.565289</ele>
        <time>2021-11-20T23:38:04.171Z</time>
      </trkpt>
      <trkpt lat="47.525969" lon="7.743974">
        <ele>310.736318</ele>
        <time>2021-11-20T23:38:21.044Z</time>
      </trkpt>
      <trkpt lat="47.525836" lon="7.744800">
        <ele>311.667598</ele>
        <time>2021-11-20T23:38:33.247Z</time>
      </trkpt>
      <trkpt lat="47.525817" lon="7.744920">
        <ele>311.802773</ele>
        <time>2021-11-20T23:38:35.091Z</time>
      </trkpt>
      <trkpt lat="47.525761" lon="7.745310">
        <ele>312.240054</ele>
        <time>2021-11-20T23:38:41.038Z</time>
      </trkpt>
      <trkpt lat="47.525754" lon="7.745361">
        <ele>312.297130</ele>
        <time>2021-11-20T23:38:41.767Z</time>
      </trkpt>
      <trkpt lat="47.525698" lon="7.745676">
        <ele>312.654367</ele>
        <time>2021-11-20T23:38:47.037Z</time>
      </trkpt>
      <trkpt lat="47.525506" lon="7.746583">
        <ele>314.187475</ele>
        <time>2021-11-20T23:39:01.803Z</time>
      </trkpt>
      <trkpt lat="47.525493" lon="7.746648">
        <ele>314.299261</ele>
        <time>2021-11-20T23:39:02.958Z</time>
      </trkpt>
      <trkpt lat="47.525488" lon="7.746661">
        <ele>314.323931</ele>
        <time>2021-11-20T23:39:03.413Z</time>
      </trkpt>
      <trkpt lat="47.525175" lon="7.747653">
        <ele>316.129478</ele>
        <time>2021-11-20T23:39:22.018Z</time>
      </trkpt>
      <trkpt lat="47.525102" lon="7.747843">
        <ele>316.489948</ele>
        <time>2021-11-20T23:39:25.903Z</time>
      </trkpt>
      <trkpt lat="47.525034" lon="7.748003">
        <ele>316.801692</ele>
        <time>2021-11-20T23:39:28.601Z</time>
      </trkpt>
      <trkpt lat="47.524939" lon="7.748210">
        <ele>317.243270</ele>
        <time>2021-11-20T23:39:33.150Z</time>
      </trkpt>
      <trkpt lat="47.524786" lon="7.748513">
        <ele>318.047724</ele>
        <time>2021-11-20T23:39:39.575Z</time>
      </trkpt>
      <trkpt lat="47.524595" lon="7.748826">
        <ele>318.944719</ele>
        <time>2021-11-20T23:39:47.116Z</time>
      </trkpt>
      <trkpt lat="47.523810" lon="7.749861">
        <ele>322.254185</ele>
        <time>2021-11-20T23:40:16.377Z</time>
      </trkpt>
      <trkpt lat="47.522660" lon="7.751079">
        <ele>327.114466</ele>
        <time>2021-11-20T23:40:58.243Z</time>
      </trkpt>
      <trkpt lat="47.522153" lon="7.751504">
        <ele>329.103559</ele>
        <time>2021-11-20T23:41:14.831Z</time>
      </trkpt>
      <trkpt lat="47.521128" lon="7.752139">
        <ele>331.690246</ele>
        <time>2021-11-20T23:41:43.334Z</time>
      </trkpt>
      <trkpt lat="47.520691" lon="7.752581">
        <ele>332.922291</ele>
        <time>2021-11-20T23:41:55.674Z</time>
      </trkpt>
      <trkpt lat="47.520500" lon="7.752840">
        <ele>333.225931</ele>
        <time>2021-11-20T23:42:00.430Z</time>
      </trkpt>
      <trkpt lat="47.520081" lon="7.753575">
        <ele>333.266149</ele>
        <time>2021-11-20T23:42:11.121Z</time>
      </trkpt>
      <trkpt lat="47.519771" lon="7.754124">
        <ele>333.296071</ele>
        <time>2021-11-20T23:42:17.775Z</time>
      </trkpt>
      <trkpt lat="47.519558" lon="7.754516">
        <ele>333.317108</ele>
        <time>2021-11-20T23:42:22.139Z</time>
      </trkpt>
      <trkpt lat="47.518866" lon="7.755813">
        <ele>332.848947</ele>
        <time>2021-11-20T23:42:36.102Z</time>
      </trkpt>
      <trkpt lat="47.517863" lon="7.757421">
        <ele>332.749190</ele>
        <time>2021-11-20T23:42:56.814Z</time>
      </trkpt>
      <trkpt lat="47.516954" lon="7.758506">
        <ele>333.440490</ele>
        <time>2021-11-20T23:43:18.439Z</time>
      </trkpt>
      <trkpt lat="47.516501" lon="7.759179">
        <ele>334.808636</ele>
        <time>2021-11-20T23:43:31.553Z</time>
      </trkpt>
      <trkpt lat="47.515929" lon="7.760077">
        <ele>336.646947</ele>
        <time>2021-11-20T23:43:51.259Z</time>
      </trkpt>
      <trkpt lat="47.515394" lon="7.761200">
        <ele>339.464317</ele>
        <time>2021-11-20T23:44:18.070Z</time>
      </trkpt>
      <trkpt lat="47.515265" lon="7.761533">
        <ele>340.383046</ele>
        <time>2021-11-20T23:44:25.946Z</time>
      </trkpt>
      <trkpt lat="47.515220" lon="7.761710">
        <ele>340.835664</ele>
        <time>2021-11-20T23:44:29.814Z</time>
      </trkpt>
      <trkpt lat="47.515194" lon="7.761991">
        <ele>341.514442</ele>
        <time>2021-11-20T23:44:35.846Z</time>
      </trkpt>
      <trkpt lat="47.515150" lon="7.762617">
        <ele>343.020694</ele>
        <time>2021-11-20T23:44:47.966Z</time>
      </trkpt>
      <trkpt lat="47.515108" lon="7.762767">
        <ele>343.409305</ele>
        <time>2021-11-20T23:44:51.429Z</time>
      </trkpt>
      <trkpt lat="47.515023" lon="7.762891">
        <ele>343.817684</ele>
        <time>2021-11-20T23:44:55.160Z</time>
      </trkpt>
      <trkpt lat="47.514492" lon="7.763207">
        <ele>345.006201</ele>
        <time>2021-11-20T23:45:10.558Z</time>
      </trkpt>
      <trkpt lat="47.514365" lon="7.763357">
        <ele>345.343594</ele>
        <time>2021-11-20T23:45:14.944Z</time>
      </trkpt>
      <trkpt lat="47.514022" lon="7.763802">
        <ele>346.290717</ele>
        <time>2021-11-20T23:45:23.117Z</time>
      </trkpt>
      <trkpt lat="47.513823" lon="7.764227">
        <ele>347.016103</ele>
        <time>2021-11-20T23:45:30.264Z</time>
      </trkpt>
      <trkpt lat="47.513810" lon="7.764252">
        <ele>347.060359</ele>
        <time>2021-11-20T23:45:30.652Z</time>
      </trkpt>
      <trkpt lat="47.513747" lon="7.764397">
        <ele>347.302198</ele>
        <time>2021-11-20T23:45:33.154Z</time>
      </trkpt>
      <trkpt lat="47.513707" lon="7.764494">
        <ele>347.461614</ele>
        <time>2021-11-20T23:45:35.170Z</time>
      </trkpt>
      <trkpt lat="47.513661" lon="7.764590">
        <ele>347.597277</ele>
        <time>2021-11-20T23:45:37.133Z</time>
      </trkpt>
      <trkpt lat="47.513615" lon="7.764654">
        <ele>347.687353</ele>
        <time>2021-11-20T23:45:37.805Z</time>
      </trkpt>
      <trkpt lat="47.513036" lon="7.765134">
        <ele>348.634281</ele>
        <time>2021-11-20T23:45:52.768Z</time>
      </trkpt>
      <trkpt lat="47.512959" lon="7.765198">
        <ele>348.760289</ele>
        <time>2021-11-20T23:45:53.890Z</time>
      </trkpt>
      <trkpt lat="47.512947" lon="7.765205">
        <ele>348.778694</ele>
        <time>2021-11-20T23:45:54.125Z</time>
      </trkpt>
      <trkpt lat="47.512876" lon="7.765238">
        <ele>348.884885</ele>
        <time>2021-11-20T23:45:55.621Z</time>
      </trkpt>
      <trkpt lat="47.512596" lon="7.765294">
        <ele>349.288070</ele>
        <time>2021-11-20T23:46:01.091Z</time>
      </trkpt>
      <trkpt lat="47.512523" lon="7.765308">
        <ele>349.393110</ele>
        <time>2021-11-20T23:46:02.549Z</time>
      </trkpt>
      <trkpt lat="47.512359" lon="7.765319">
        <ele>349.627376</ele>
        <time>2021-11-20T23:46:06.522Z</time>
      </trkpt>
      <trkpt lat="47.512026" lon="7.765311">
        <ele>350.103457</ele>
        <time>2021-11-20T23:46:12.518Z</time>
      </trkpt>
      <trkpt lat="47.511929" lon="7.765269">
        <ele>350.283369</ele>
        <time>2021-11-20T23:46:14.706Z</time>
      </trkpt>
      <trkpt lat="47.511866" lon="7.765218">
        <ele>350.411191</ele>
        <time>2021-11-20T23:46:15.782Z</time>
      </trkpt>
      <trkpt lat="47.511702" lon="7.765093">
        <ele>350.739559</ele>
        <time>2021-11-20T23:46:20.168Z</time>
      </trkpt>
      <trkpt lat="47.511360" lon="7.764807">
        <ele>351.438793</ele>
        <time>2021-11-20T23:46:29.603Z</time>
      </trkpt>
      <trkpt lat="47.511298" lon="7.764777">
        <ele>351.554910</ele>
        <time>2021-11-20T23:46:31.659Z</time>
      </trkpt>
      <trkpt lat="47.511261" lon="7.764772">
        <ele>351.621051</ele>
        <time>2021-11-20T23:46:32.559Z</time>
      </trkpt>
      <trkpt lat="47.510922" lon="7.764773">
        <ele>352.224536</ele>
        <time>2021-11-20T23:46:40.432Z</time>
      </trkpt>
      <trkpt lat="47.510628" lon="7.764909">
        <ele>352.772865</ele>
        <time>2021-11-20T23:46:46.260Z</time>
      </trkpt>
      <trkpt lat="47.510486" lon="7.765012">
        <ele>353.054361</ele>
        <time>2021-11-20T23:46:49.585Z</time>
      </trkpt>
      <trkpt lat="47.510392" lon="7.765088">
        <ele>353.245027</ele>
        <time>2021-11-20T23:46:51.559Z</time>
      </trkpt>
      <trkpt lat="47.510179" lon="7.765273">
        <ele>353.977171</ele>
        <time>2021-11-20T23:46:56.180Z</time>
      </trkpt>
      <trkpt lat="47.510078" lon="7.765363">
        <ele>354.347118</ele>
        <time>2021-11-20T23:46:58.864Z</time>
      </trkpt>
      <trkpt lat="47.510019" lon="7.765402">
        <ele>354.549892</ele>
        <time>2021-11-20T23:47:00.034Z</time>
      </trkpt>
      <trkpt lat="47.509942" lon="7.765436">
        <ele>354.802055</ele>
        <time>2021-11-20T23:47:02.066Z</time>
      </trkpt>
      <trkpt lat="47.509899" lon="7.765445">
        <ele>354.938341</ele>
        <time>2021-11-20T23:47:03.063Z</time>
      </trkpt>
      <trkpt lat="47.509741" lon="7.765454">
        <ele>355.434550</ele>
        <time>2021-11-20T23:47:07.186Z</time>
      </trkpt>
      <trkpt lat="47.509600" lon="7.765443">
        <ele>355.877655</ele>
        <time>2021-11-20T23:47:11.429Z</time>
      </trkpt>
      <trkpt lat="47.509436" lon="7.765441">
        <ele>356.392343</ele>
        <time>2021-11-20T23:47:16.455Z</time>
      </trkpt>
      <trkpt lat="47.509057" lon="7.765447">
        <ele>357.581804</ele>
        <time>2021-11-20T23:47:28.993Z</time>
      </trkpt>
      <trkpt lat="47.508744" lon="7.765478">
        <ele>358.566268</ele>
        <time>2021-11-20T23:47:38.967Z</time>
      </trkpt>
      <trkpt lat="47.508322" lon="7.765556">
        <ele>359.948343</ele>
        <time>2021-11-20T23:47:51.629Z</time>
      </trkpt>
      <trkpt lat="47.508137" lon="7.765584">
        <ele>360.560940</ele>
        <time>2021-11-20T23:47:56.411Z</time>
      </trkpt>
      <trkpt lat="47.507977" lon="7.765561">
        <ele>361.090485</ele>
        <time>2021-11-20T23:48:00.625Z</time>
      </trkpt>
      <trkpt lat="47.507650" lon="7.765503">
        <ele>362.175381</ele>
        <time>2021-11-20T23:48:08.859Z</time>
      </trkpt>
      <trkpt lat="47.507506" lon="7.765470">
        <ele>362.655391</ele>
        <time>2021-11-20T23:48:14.192Z</time>
      </trkpt>
      <trkpt lat="47.507429" lon="7.765409">
        <ele>362.943076</ele>
        <time>2021-11-20T23:48:15.848Z</time>
      </trkpt>
      <trkpt lat="47.506870" lon="7.765037">
        <ele>364.950812</ele>
        <time>2021-11-20T23:48:34.230Z</time>
      </trkpt>
      <trkpt lat="47.506716" lon="7.764971">
        <ele>365.414102</ele>
        <time>2021-11-20T23:48:37.590Z</time>
      </trkpt>
      <trkpt lat="47.506619" lon="7.764938">
        <ele>365.701711</ele>
        <time>2021-11-20T23:48:40.376Z</time>
      </trkpt>
      <trkpt lat="47.506377" lon="7.764894">
        <ele>366.406277</ele>
        <time>2021-11-20T23:48:45.822Z</time>
      </trkpt>
      <trkpt lat="47.506301" lon="7.764884">
        <ele>366.626762</ele>
        <time>2021-11-20T23:48:47.522Z</time>
      </trkpt>
      <trkpt lat="47.506143" lon="7.764883">
        <ele>367.083341</ele>
        <time>2021-11-20T23:48:52.220Z</time>
      </trkpt>
      <trkpt lat="47.505115" lon="7.765011">
        <ele>370.064460</ele>
        <time>2021-11-20T23:49:18.214Z</time>
      </trkpt>
      <trkpt lat="47.504400" lon="7.764478">
        <ele>372.136792</ele>
        <time>2021-11-20T23:49:43.473Z</time>
      </trkpt>
      <trkpt lat="47.503736" lon="7.764325">
        <ele>373.876024</ele>
        <time>2021-11-20T23:50:02.453Z</time>
      </trkpt>
      <trkpt lat="47.502578" lon="7.764620">
        <ele>375.137664</ele>
        <time>2021-11-20T23:50:17.476Z</time>
      </trkpt>
      <trkpt lat="47.502400" lon="7.764717">
        <ele>375.230344</ele>
        <time>2021-11-20T23:50:25.792Z</time>
      </trkpt>
      <trkpt lat="47.502299" lon="7.764761">
        <ele>375.281788</ele>
        <time>2021-11-20T23:50:26.870Z</time>
      </trkpt>
      <trkpt lat="47.501861" lon="7.764937">
        <ele>375.503549</ele>
        <time>2021-11-20T23:50:32.409Z</time>
      </trkpt>
      <trkpt lat="47.501785" lon="7.764941">
        <ele>375.540707</ele>
        <time>2021-11-20T23:50:39.039Z</time>
      </trkpt>
      <trkpt lat="47.501717" lon="7.764903">
        <ele>375.576222</ele>
        <time>2021-11-20T23:50:39.680Z</time>
      </trkpt>
      <trkpt lat="47.501402" lon="7.764367">
        <ele>376.255877</ele>
        <time>2021-11-20T23:50:45.805Z</time>
      </trkpt>
      <trkpt lat="47.501345" lon="7.764315">
        <ele>376.358490</ele>
        <time>2021-11-20T23:50:46.362Z</time>
      </trkpt>
      <trkpt lat="47.501281" lon="7.764267">
        <ele>376.468444</ele>
        <time>2021-11-20T23:50:53.931Z</time>
      </trkpt>
      <trkpt lat="47.501206" lon="7.764177">
        <ele>376.616411</ele>
        <time>2021-11-20T23:50:54.855Z</time>
      </trkpt>
      <trkpt lat="47.500750" lon="7.764229">
        <ele>377.317321</ele>
        <time>2021-11-20T23:51:01.448Z</time>
      </trkpt>
      <trkpt lat="47.499021" lon="7.765388">
        <ele>383.912861</ele>
        <time>2021-11-20T23:51:57.479Z</time>
      </trkpt>
      <trkpt lat="47.498581" lon="7.765578">
        <ele>386.002158</ele>
        <time>2021-11-20T23:52:14.575Z</time>
      </trkpt>
      <trkpt lat="47.498206" lon="7.765691">
        <ele>388.760017</ele>
        <time>2021-11-20T23:52:30.628Z</time>
      </trkpt>
      <trkpt lat="47.497832" lon="7.765749">
        <ele>391.935380</ele>
        <time>2021-11-20T23:52:47.811Z</time>
      </trkpt>
      <trkpt lat="47.497683" lon="7.765775">
        <ele>393.202257</ele>
        <time>2021-11-20T23:52:56.234Z</time>
      </trkpt>
      <trkpt lat="47.496981" lon="7.765800">
        <ele>399.131696</ele>
        <time>2021-11-20T23:53:31.766Z</time>
      </trkpt>
      <trkpt lat="47.496601" lon="7.765776">
        <ele>402.600475</ele>
        <time>2021-11-20T23:53:52.349Z</time>
      </trkpt>
      <trkpt lat="47.496345" lon="7.765747">
        <ele>405.701025</ele>
        <time>2021-11-20T23:54:05.417Z</time>
      </trkpt>
      <trkpt lat="47.495891" lon="7.765655">
        <ele>411.234768</ele>
        <time>2021-11-20T23:54:30.556Z</time>
      </trkpt>
      <trkpt lat="47.495429" lon="7.765534">
        <ele>416.900650</ele>
        <time>2021-11-20T23:55:01.723Z</time>
      </trkpt>
      <trkpt lat="47.494837" lon="7.765306">
        <ele>424.534244</ele>
        <time>2021-11-20T23:55:46.247Z</time>
      </trkpt>
      <trkpt lat="47.494623" lon="7.765176">
        <ele>428.165698</ele>
        <time>2021-11-20T23:56:03.540Z</time>
      </trkpt>
      <trkpt lat="47.494523" lon="7.765111">
        <ele>429.880274</ele>
        <time>2021-11-20T23:56:12.473Z</time>
      </trkpt>
      <trkpt lat="47.494327" lon="7.764912">
        <ele>433.611592</ele>
        <time>2021-11-20T23:56:31.227Z</time>
      </trkpt>
      <trkpt lat="47.493822" lon="7.764461">
        <ele>442.870828</ele>
        <time>2021-11-20T23:57:20.129Z</time>
      </trkpt>
      <trkpt lat="47.493545" lon="7.764429">
        <ele>447.232545</ele>
        <time>2021-11-20T23:57:42.697Z</time>
      </trkpt>
      <trkpt lat="47.493274" lon="7.764563">
        <ele>451.710869</ele>
        <time>2021-11-20T23:58:04.518Z</time>
      </trkpt>
      <trkpt lat="47.493115" lon="7.764783">
        <ele>453.564281</ele>
        <time>2021-11-20T23:58:21.458Z</time>
      </trkpt>
      <trkpt lat="47.493010" lon="7.765043">
        <ele>455.306999</ele>
        <time>2021-11-20T23:58:35.398Z</time>
      </trkpt>
      <trkpt lat="47.492941" lon="7.765577">
        <ele>458.435007</ele>
        <time>2021-11-20T23:58:56.731Z</time>
      </trkpt>
      <trkpt lat="47.493006" lon="7.768806">
        <ele>471.389818</ele>
        <time>2021-11-21T00:00:09.264Z</time>
      </trkpt>
      <trkpt lat="47.492999" lon="7.768874">
        <ele>471.562780</ele>
        <time>2021-11-21T00:00:09.791Z</time>
      </trkpt>
      <trkpt lat="47.493049" lon="7.768906">
        <ele>471.765509</ele>
        <time>2021-11-21T00:00:10.692Z</time>
      </trkpt>
      <trkpt lat="47.493003" lon="7.769128">
        <ele>472.349398</ele>
        <time>2021-11-21T00:00:14.581Z</time>
      </trkpt>
      <trkpt lat="47.492853" lon="7.769527">
        <ele>473.497545</ele>
        <time>2021-11-21T00:00:21.518Z</time>
      </trkpt>
      <trkpt lat="47.492753" lon="7.769701">
        <ele>474.259570</ele>
        <time>2021-11-21T00:00:26.033Z</time>
      </trkpt>
      <trkpt lat="47.492661" lon="7.769832">
        <ele>474.982051</ele>
        <time>2021-11-21T00:00:28.572Z</time>
      </trkpt>
      <trkpt lat="47.492435" lon="7.770039">
        <ele>476.486129</ele>
        <time>2021-11-21T00:00:37.064Z</time>
      </trkpt>
      <trkpt lat="47.492137" lon="7.770169">
        <ele>478.244283</ele>
        <time>2021-11-21T00:00:47.504Z</time>
      </trkpt>
      <trkpt lat="47.492020" lon="7.770184">
        <ele>478.908879</ele>
        <time>2021-11-21T00:00:50.586Z</time>
      </trkpt>
      <trkpt lat="47.491182" lon="7.770222">
        <ele>483.653444</ele>
        <time>2021-11-21T00:01:27.094Z</time>
      </trkpt>
      <trkpt lat="47.490367" lon="7.770241">
        <ele>490.176623</ele>
        <time>2021-11-21T00:02:11.763Z</time>
      </trkpt>
      <trkpt lat="47.490063" lon="7.770088">
        <ele>492.787082</ele>
        <time>2021-11-21T00:02:30.764Z</time>
      </trkpt>
      <trkpt lat="47.489882" lon="7.769861">
        <ele>494.715894</ele>
        <time>2021-11-21T00:02:42.139Z</time>
      </trkpt>
      <trkpt lat="47.489759" lon="7.769607">
        <ele>496.432546</ele>
        <time>2021-11-21T00:02:52.138Z</time>
      </trkpt>
      <trkpt lat="47.489330" lon="7.768521">
        <ele>497.511927</ele>
        <time>2021-11-21T00:03:16.775Z</time>
      </trkpt>
      <trkpt lat="47.489260" lon="7.768283">
        <ele>497.216444</ele>
        <time>2021-11-21T00:03:20.502Z</time>
      </trkpt>
      <trkpt lat="47.489217" lon="7.768114">
        <ele>497.010873</ele>
        <time>2021-11-21T00:03:21.742Z</time>
      </trkpt>
      <trkpt lat="47.489202" lon="7.768057">
        <ele>496.941239</ele>
        <time>2021-11-21T00:03:22.113Z</time>
      </trkpt>
      <trkpt lat="47.489166" lon="7.767905">
        <ele>496.757886</ele>
        <time>2021-11-21T00:03:23.467Z</time>
      </trkpt>
      <trkpt lat="47.489106" lon="7.767650">
        <ele>496.450506</ele>
        <time>2021-11-21T00:03:25.216Z</time>
      </trkpt>
      <trkpt lat="47.489047" lon="7.767376">
        <ele>496.123138</ele>
        <time>2021-11-21T00:03:27.063Z</time>
      </trkpt>
      <trkpt lat="47.488885" lon="7.766666">
        <ele>494.074890</ele>
        <time>2021-11-21T00:03:31.583Z</time>
      </trkpt>
      <trkpt lat="47.488779" lon="7.766201">
        <ele>490.377226</ele>
        <time>2021-11-21T00:03:34.445Z</time>
      </trkpt>
      <trkpt lat="47.488674" lon="7.765750">
        <ele>486.782997</ele>
        <time>2021-11-21T00:03:37.168Z</time>
      </trkpt>
      <trkpt lat="47.488592" lon="7.765070">
        <ele>481.578384</ele>
        <time>2021-11-21T00:03:41.110Z</time>
      </trkpt>
      <trkpt lat="47.488619" lon="7.763292">
        <ele>467.702469</ele>
        <time>2021-11-21T00:03:51.231Z</time>
      </trkpt>
      <trkpt lat="47.488582" lon="7.762924">
        <ele>464.715190</ele>
        <time>2021-11-21T00:03:53.357Z</time>
      </trkpt>
      <trkpt lat="47.488339" lon="7.762200">
        <ele>458.224443</ele>
        <time>2021-11-21T00:03:57.987Z</time>
      </trkpt>
      <trkpt lat="47.487890" lon="7.761232">
        <ele>449.388839</ele>
        <time>2021-11-21T00:04:04.747Z</time>
      </trkpt>
      <trkpt lat="47.487031" lon="7.759652">
        <ele>434.950737</ele>
        <time>2021-11-21T00:04:16.498Z</time>
      </trkpt>
      <trkpt lat="47.486636" lon="7.758922">
        <ele>428.838869</ele>
        <time>2021-11-21T00:04:21.972Z</time>
      </trkpt>
      <trkpt lat="47.486484" lon="7.758798">
        <ele>427.160254</ele>
        <time>2021-11-21T00:04:23.431Z</time>
      </trkpt>
      <trkpt lat="47.486303" lon="7.758588">
        <ele>424.935867</ele>
        <time>2021-11-21T00:04:25.469Z</time>
      </trkpt>
      <trkpt lat="47.485984" lon="7.758280">
        <ele>421.252115</ele>
        <time>2021-11-21T00:04:28.774Z</time>
      </trkpt>
      <trkpt lat="47.485673" lon="7.758136">
        <ele>418.100547</ele>
        <time>2021-11-21T00:04:31.607Z</time>
      </trkpt>
      <trkpt lat="47.485622" lon="7.758125">
        <ele>417.629170</ele>
        <time>2021-11-21T00:04:32.051Z</time>
      </trkpt>
      <trkpt lat="47.485584" lon="7.758116">
        <ele>417.367829</ele>
        <time>2021-11-21T00:04:32.364Z</time>
      </trkpt>
      <trkpt lat="47.485109" lon="7.758040">
        <ele>414.123318</ele>
        <time>2021-11-21T00:04:36.535Z</time>
      </trkpt>
      <trkpt lat="47.484579" lon="7.757732">
        <ele>410.256500</ele>
        <time>2021-11-21T00:04:41.620Z</time>
      </trkpt>
      <trkpt lat="47.484552" lon="7.757716">
        <ele>410.058988</ele>
        <time>2021-11-21T00:04:41.856Z</time>
      </trkpt>
      <trkpt lat="47.484252" lon="7.757357">
        <ele>407.438879</ele>
        <time>2021-11-21T00:04:45.362Z</time>
      </trkpt>
      <trkpt lat="47.483892" lon="7.756713">
        <ele>404.798263</ele>
        <time>2021-11-21T00:04:51.833Z</time>
      </trkpt>
      <trkpt lat="47.483791" lon="7.756407">
        <ele>404.231347</ele>
        <time>2021-11-21T00:04:54.472Z</time>
      </trkpt>
      <trkpt lat="47.483769" lon="7.756121">
        <ele>403.752162</ele>
        <time>2021-11-21T00:04:57.972Z</time>
      </trkpt>
      <trkpt lat="47.483754" lon="7.755239">
        <ele>402.283412</ele>
        <time>2021-11-21T00:05:04.205Z</time>
      </trkpt>
      <trkpt lat="47.483795" lon="7.754908">
        <ele>401.723209</ele>
        <time>2021-11-21T00:05:06.566Z</time>
      </trkpt>
      <trkpt lat="47.483838" lon="7.754668">
        <ele>401.309873</ele>
        <time>2021-11-21T00:05:08.409Z</time>
      </trkpt>
      <trkpt lat="47.483916" lon="7.754251">
        <ele>399.652266</ele>
        <time>2021-11-21T00:05:11.342Z</time>
      </trkpt>
      <trkpt lat="47.484067" lon="7.753436">
        <ele>395.367669</ele>
        <time>2021-11-21T00:05:16.964Z</time>
      </trkpt>
      <trkpt lat="47.484428" lon="7.751559">
        <ele>384.553100</ele>
        <time>2021-11-21T00:05:28.281Z</time>
      </trkpt>
      <trkpt lat="47.484582" lon="7.750743">
        <ele>378.357748</ele>
        <time>2021-11-21T00:05:33.120Z</time>
      </trkpt>
      <trkpt lat="47.484640" lon="7.750440">
        <ele>376.054881</ele>
        <time>2021-11-21T00:05:34.915Z</time>
      </trkpt>
      <trkpt lat="47.484700" lon="7.749896">
        <ele>372.024237</ele>
        <time>2021-11-21T00:05:38.104Z</time>
      </trkpt>
      <trkpt lat="47.484572" lon="7.749580">
        <ele>369.330173</ele>
        <time>2021-11-21T00:05:40.281Z</time>
      </trkpt>
      <trkpt lat="47.484510" lon="7.749532">
        <ele>368.573013</ele>
        <time>2021-11-21T00:05:40.859Z</time>
      </trkpt>
      <trkpt lat="47.484462" lon="7.749511">
        <ele>368.046729</ele>
        <time>2021-11-21T00:05:41.292Z</time>
      </trkpt>
      <trkpt lat="47.484403" lon="7.749499">
        <ele>367.568041</ele>
        <time>2021-11-21T00:05:41.833Z</time>
      </trkpt>
      <trkpt lat="47.484374" lon="7.749499">
        <ele>367.334946</ele>
        <time>2021-11-21T00:05:42.081Z</time>
      </trkpt>
      <trkpt lat="47.484276" lon="7.749526">
        <ele>366.533707</ele>
        <time>2021-11-21T00:05:42.956Z</time>
      </trkpt>
      <trkpt lat="47.484079" lon="7.749775">
        <ele>364.451244</ele>
        <time>2021-11-21T00:05:45.215Z</time>
      </trkpt>
      <trkpt lat="47.483936" lon="7.750074">
        <ele>362.461533</ele>
        <time>2021-11-21T00:05:47.334Z</time>
      </trkpt>
      <trkpt lat="47.483821" lon="7.750312">
        <ele>360.872277</ele>
        <time>2021-11-21T00:05:49.198Z</time>
      </trkpt>
      <trkpt lat="47.483598" lon="7.750514">
        <ele>358.770672</ele>
        <time>2021-11-21T00:05:51.508Z</time>
      </trkpt>
      <trkpt lat="47.483353" lon="7.750495">
        <ele>356.798713</ele>
        <time>2021-11-21T00:05:53.652Z</time>
      </trkpt>
      <trkpt lat="47.483212" lon="7.750380">
        <ele>355.504630</ele>
        <time>2021-11-21T00:05:55.194Z</time>
      </trkpt>
      <trkpt lat="47.483118" lon="7.750142">
        <ele>354.007225</ele>
        <time>2021-11-21T00:05:56.841Z</time>
      </trkpt>
      <trkpt lat="47.483104" lon="7.749789">
        <ele>352.418702</ele>
        <time>2021-11-21T00:05:59.129Z</time>
      </trkpt>
      <trkpt lat="47.483127" lon="7.749663">
        <ele>351.861967</ele>
        <time>2021-11-21T00:05:59.871Z</time>
      </trkpt>
      <trkpt lat="47.483328" lon="7.749171">
        <ele>349.409589</ele>
        <time>2021-11-21T00:06:03.372Z</time>
      </trkpt>
      <trkpt lat="47.483455" lon="7.748863">
        <ele>347.870529</ele>
        <time>2021-11-21T00:06:05.643Z</time>
      </trkpt>
      <trkpt lat="47.483653" lon="7.748384">
        <ele>345.475382</ele>
        <time>2021-11-21T00:06:09.057Z</time>
      </trkpt>
      <trkpt lat="47.483857" lon="7.747917">
        <ele>343.103412</ele>
        <time>2021-11-21T00:06:12.485Z</time>
      </trkpt>
      <trkpt lat="47.483953" lon="7.747697">
        <ele>342.102671</ele>
        <time>2021-11-21T00:06:14.096Z</time>
      </trkpt>
      <trkpt lat="47.484176" lon="7.747166">
        <ele>340.488770</ele>
        <time>2021-11-21T00:06:18.341Z</time>
      </trkpt>
      <trkpt lat="47.484266" lon="7.746897">
        <ele>339.713904</ele>
        <time>2021-11-21T00:06:20.156Z</time>
      </trkpt>
      <trkpt lat="47.484616" lon="7.745052">
        <ele>334.700840</ele>
        <time>2021-11-21T00:06:33.567Z</time>
      </trkpt>
      <trkpt lat="47.484658" lon="7.744938">
        <ele>334.331203</ele>
        <time>2021-11-21T00:06:34.309Z</time>
      </trkpt>
      <trkpt lat="47.484727" lon="7.744803">
        <ele>333.849336</ele>
        <time>2021-11-21T00:06:36.503Z</time>
      </trkpt>
      <trkpt lat="47.484772" lon="7.744741">
        <ele>333.590318</ele>
        <time>2021-11-21T00:06:37.412Z</time>
      </trkpt>
      <trkpt lat="47.485152" lon="7.744380">
        <ele>331.688015</ele>
        <time>2021-11-21T00:06:42.339Z</time>
      </trkpt>
      <trkpt lat="47.485353" lon="7.744189">
        <ele>330.681722</ele>
        <time>2021-11-21T00:06:44.508Z</time>
      </trkpt>
      <trkpt lat="47.485726" lon="7.743655">
        <ele>328.495396</ele>
        <time>2021-11-21T00:06:49.342Z</time>
      </trkpt>
      <trkpt lat="47.486081" lon="7.742579">
        <ele>323.946699</ele>
        <time>2021-11-21T00:06:56.826Z</time>
      </trkpt>
      <trkpt lat="47.486170" lon="7.742275">
        <ele>322.612091</ele>
        <time>2021-11-21T00:06:58.785Z</time>
      </trkpt>
      <trkpt lat="47.486221" lon="7.742103">
        <ele>321.855449</ele>
        <time>2021-11-21T00:07:00.090Z</time>
      </trkpt>
      <trkpt lat="47.486335" lon="7.741716">
        <ele>320.154797</ele>
        <time>2021-11-21T00:07:02.640Z</time>
      </trkpt>
      <trkpt lat="47.486413" lon="7.741401">
        <ele>318.803361</ele>
        <time>2021-11-21T00:07:04.690Z</time>
      </trkpt>
      <trkpt lat="47.486458" lon="7.741135">
        <ele>317.698755</ele>
        <time>2021-11-21T00:07:06.436Z</time>
      </trkpt>
      <trkpt lat="47.486469" lon="7.741035">
        <ele>317.290619</ele>
        <time>2021-11-21T00:07:07.066Z</time>
      </trkpt>
      <trkpt lat="47.486493" lon="7.740755">
        <ele>316.794730</ele>
        <time>2021-11-21T00:07:08.768Z</time>
      </trkpt>
      <trkpt lat="47.486498" lon="7.740674">
        <ele>316.686438</ele>
        <time>2021-11-21T00:07:09.349Z</time>
      </trkpt>
      <trkpt lat="47.486546" lon="7.739919">
        <ele>315.676799</ele>
        <time>2021-11-21T00:07:14.419Z</time>
      </trkpt>
      <trkpt lat="47.486574" lon="7.739389">
        <ele>314.969009</ele>
        <time>2021-11-21T00:07:18.316Z</time>
      </trkpt>
      <trkpt lat="47.486588" lon="7.739167">
        <ele>314.672157</ele>
        <time>2021-11-21T00:07:20.050Z</time>
      </trkpt>
      <trkpt lat="47.486599" lon="7.738994">
        <ele>314.440809</ele>
        <time>2021-11-21T00:07:21.753Z</time>
      </trkpt>
      <trkpt lat="47.486652" lon="7.738745">
        <ele>314.093237</ele>
        <time>2021-11-21T00:07:24.651Z</time>
      </trkpt>
      <trkpt lat="47.486688" lon="7.738613">
        <ele>313.903721</ele>
        <time>2021-11-21T00:07:25.977Z</time>
      </trkpt>
      <trkpt lat="47.486696" lon="7.738489">
        <ele>313.737878</ele>
        <time>2021-11-21T00:07:28.198Z</time>
      </trkpt>
      <trkpt lat="47.486689" lon="7.738358">
        <ele>313.576725</ele>
        <time>2021-11-21T00:07:30.349Z</time>
      </trkpt>
      <trkpt lat="47.486676" lon="7.738293">
        <ele>313.757390</ele>
        <time>2021-11-21T00:07:31.379Z</time>
      </trkpt>
      <trkpt lat="47.486621" lon="7.738169">
        <ele>314.152703</ele>
        <time>2021-11-21T00:07:33.554Z</time>
      </trkpt>
      <trkpt lat="47.486495" lon="7.737981">
        <ele>314.858398</ele>
        <time>2021-11-21T00:07:38.809Z</time>
      </trkpt>
      <trkpt lat="47.486384" lon="7.737805">
        <ele>315.500023</ele>
        <time>2021-11-21T00:07:43.001Z</time>
      </trkpt>
      <trkpt lat="47.486354" lon="7.737753">
        <ele>315.682250</ele>
        <time>2021-11-21T00:07:44.170Z</time>
      </trkpt>
      <trkpt lat="47.486314" lon="7.737686">
        <ele>315.920524</ele>
        <time>2021-11-21T00:07:45.872Z</time>
      </trkpt>
      <trkpt lat="47.486287" lon="7.737642">
        <ele>316.078927</ele>
        <time>2021-11-21T00:07:47.639Z</time>
      </trkpt>
      <trkpt lat="47.486087" lon="7.737329">
        <ele>317.227013</ele>
        <time>2021-11-21T00:07:56.653Z</time>
      </trkpt>
      <trkpt lat="47.485976" lon="7.737217">
        <ele>317.756878</ele>
        <time>2021-11-21T00:08:01.782Z</time>
      </trkpt>
      <trkpt lat="47.485875" lon="7.737156">
        <ele>318.187119</ele>
        <time>2021-11-21T00:08:05.307Z</time>
      </trkpt>
      <trkpt lat="47.485806" lon="7.737111">
        <ele>318.484509</ele>
        <time>2021-11-21T00:08:07.590Z</time>
      </trkpt>
      <trkpt lat="47.485750" lon="7.737070">
        <ele>318.730926</ele>
        <time>2021-11-21T00:08:09.781Z</time>
      </trkpt>
      <trkpt lat="47.485679" lon="7.737020">
        <ele>319.041040</ele>
        <time>2021-11-21T00:08:13.166Z</time>
      </trkpt>
      <trkpt lat="47.485564" lon="7.736965">
        <ele>319.517697</ele>
        <time>2021-11-21T00:08:17.336Z</time>
      </trkpt>
      <trkpt lat="47.485482" lon="7.736917">
        <ele>319.865486</ele>
        <time>2021-11-21T00:08:20.077Z</time>
      </trkpt>
      <trkpt lat="47.485412" lon="7.736871">
        <ele>320.167562</ele>
        <time>2021-11-21T00:08:22.611Z</time>
      </trkpt>
      <trkpt lat="47.485357" lon="7.736813">
        <ele>320.433927</ele>
        <time>2021-11-21T00:08:25.564Z</time>
      </trkpt>
      <trkpt lat="47.485212" lon="7.736657">
        <ele>321.235396</ele>
        <time>2021-11-21T00:08:31.384Z</time>
      </trkpt>
      <trkpt lat="47.485182" lon="7.736627">
        <ele>321.406310</ele>
        <time>2021-11-21T00:08:32.447Z</time>
      </trkpt>
      <trkpt lat="47.485143" lon="7.736599">
        <ele>321.610927</ele>
        <time>2021-11-21T00:08:33.970Z</time>
      </trkpt>
      <trkpt lat="47.485052" lon="7.736552">
        <ele>322.065893</ele>
        <time>2021-11-21T00:08:37.956Z</time>
      </trkpt>
      <trkpt lat="47.485005" lon="7.736543">
        <ele>322.289599</ele>
        <time>2021-11-21T00:08:39.693Z</time>
      </trkpt>
      <trkpt lat="47.484905" lon="7.736536">
        <ele>322.762163</ele>
        <time>2021-11-21T00:08:43.028Z</time>
      </trkpt>
      <trkpt lat="47.484870" lon="7.736533">
        <ele>322.927652</ele>
        <time>2021-11-21T00:08:44.107Z</time>
      </trkpt>
      <trkpt lat="47.484700" lon="7.736511">
        <ele>323.733176</ele>
        <time>2021-11-21T00:08:50.512Z</time>
      </trkpt>
      <trkpt lat="47.484515" lon="7.736477">
        <ele>324.613151</ele>
        <time>2021-11-21T00:08:57.099Z</time>
      </trkpt>
      <trkpt lat="47.484114" lon="7.736364">
        <ele>326.540031</ele>
        <time>2021-11-21T00:09:11.195Z</time>
      </trkpt>
      <trkpt lat="47.483917" lon="7.736315">
        <ele>327.482987</ele>
        <time>2021-11-21T00:09:17.611Z</time>
      </trkpt>
      <trkpt lat="47.483778" lon="7.736282">
        <ele>328.147508</ele>
        <time>2021-11-21T00:09:22.588Z</time>
      </trkpt>
      <trkpt lat="47.483599" lon="7.736235">
        <ele>329.005651</ele>
        <time>2021-11-21T00:09:29.403Z</time>
      </trkpt>
      <trkpt lat="47.483356" lon="7.736149">
        <ele>330.010253</ele>
        <time>2021-11-21T00:09:38.362Z</time>
      </trkpt>
      <trkpt lat="47.483352" lon="7.736146">
        <ele>330.027841</ele>
        <time>2021-11-21T00:09:38.848Z</time>
      </trkpt>
      <trkpt lat="47.483095" lon="7.735982">
        <ele>331.125530</ele>
        <time>2021-11-21T00:09:47.857Z</time>
      </trkpt>
      <trkpt lat="47.482953" lon="7.735671">
        <ele>332.120345</ele>
        <time>2021-11-21T00:09:56.784Z</time>
      </trkpt>
      <trkpt lat="47.482931" lon="7.735630">
        <ele>332.259105</ele>
        <time>2021-11-21T00:09:58.183Z</time>
      </trkpt>
      <trkpt lat="47.482843" lon="7.735675">
        <ele>332.624270</ele>
        <time>2021-11-21T00:10:00.539Z</time>
      </trkpt>
      <trkpt lat="47.482798" lon="7.735712">
        <ele>332.826177</ele>
        <time>2021-11-21T00:10:02.309Z</time>
      </trkpt>
      <trkpt lat="47.482759" lon="7.735794">
        <ele>333.091948</ele>
        <time>2021-11-21T00:10:04.536Z</time>
      </trkpt>
      <trkpt lat="47.482666" lon="7.735762">
        <ele>333.466426</ele>
        <time>2021-11-21T00:10:07.090Z</time>
      </trkpt>
      <trkpt lat="47.482502" lon="7.735796">
        <ele>334.115917</ele>
        <time>2021-11-21T00:10:11.300Z</time>
      </trkpt>
      <trkpt lat="47.482455" lon="7.735817">
        <ele>334.308472</ele>
        <time>2021-11-21T00:10:13.492Z</time>
      </trkpt>
      <trkpt lat="47.482190" lon="7.735935">
        <ele>335.393843</ele>
        <time>2021-11-21T00:10:21.307Z</time>
      </trkpt>
      <trkpt lat="47.482126" lon="7.735966">
        <ele>335.657957</ele>
        <time>2021-11-21T00:10:23.736Z</time>
      </trkpt>
      <trkpt lat="47.482046" lon="7.736005">
        <ele>335.988307</ele>
        <time>2021-11-21T00:10:26.673Z</time>
      </trkpt>
      <trkpt lat="47.481911" lon="7.736111">
        <ele>336.775471</ele>
        <time>2021-11-21T00:10:31.007Z</time>
      </trkpt>
      <trkpt lat="47.481746" lon="7.736309">
        <ele>338.018340</ele>
        <time>2021-11-21T00:10:39.509Z</time>
      </trkpt>
      <trkpt lat="47.481528" lon="7.736594">
        <ele>339.720231</ele>
        <time>2021-11-21T00:10:49.170Z</time>
      </trkpt>
      <trkpt lat="47.481415" lon="7.736739">
        <ele>340.595297</ele>
        <time>2021-11-21T00:10:54.751Z</time>
      </trkpt>
      <trkpt lat="47.481358" lon="7.736813">
        <ele>341.038933</ele>
        <time>2021-11-21T00:10:56.413Z</time>
      </trkpt>
      <trkpt lat="47.481122" lon="7.737038">
        <ele>342.681425</ele>
        <time>2021-11-21T00:11:06.913Z</time>
      </trkpt>
      <trkpt lat="47.481084" lon="7.737033">
        <ele>342.904618</ele>
        <time>2021-11-21T00:11:08.062Z</time>
      </trkpt>
      <trkpt lat="47.481043" lon="7.737005">
        <ele>343.168802</ele>
        <time>2021-11-21T00:11:09.476Z</time>
      </trkpt>
      <trkpt lat="47.480998" lon="7.736963">
        <ele>343.480071</ele>
        <time>2021-11-21T00:11:11.599Z</time>
      </trkpt>
      <trkpt lat="47.480783" lon="7.736712">
        <ele>345.082289</ele>
        <time>2021-11-21T00:11:24.300Z</time>
      </trkpt>
      <trkpt lat="47.480717" lon="7.736638">
        <ele>345.566753</ele>
        <time>2021-11-21T00:11:27.274Z</time>
      </trkpt>
      <trkpt lat="47.480675" lon="7.736582">
        <ele>345.897517</ele>
        <time>2021-11-21T00:11:29.464Z</time>
      </trkpt>
      <trkpt lat="47.480639" lon="7.736513">
        <ele>346.242177</ele>
        <time>2021-11-21T00:11:33.458Z</time>
      </trkpt>
      <trkpt lat="47.480309" lon="7.735364">
        <ele>353.569896</ele>
        <time>2021-11-21T00:12:13.436Z</time>
      </trkpt>
      <trkpt lat="47.480231" lon="7.735048">
        <ele>355.614941</ele>
        <time>2021-11-21T00:12:26.634Z</time>
      </trkpt>
      <trkpt lat="47.480208" lon="7.734904">
        <ele>356.514418</ele>
        <time>2021-11-21T00:12:31.831Z</time>
      </trkpt>
      <trkpt lat="47.480177" lon="7.734199">
        <ele>360.809120</ele>
        <time>2021-11-21T00:12:57.964Z</time>
      </trkpt>
      <trkpt lat="47.480029" lon="7.733853">
        <ele>363.287779</ele>
        <time>2021-11-21T00:13:11.594Z</time>
      </trkpt>
      <trkpt lat="47.479940" lon="7.733695">
        <ele>364.504537</ele>
        <time>2021-11-21T00:13:18.799Z</time>
      </trkpt>
      <trkpt lat="47.479876" lon="7.733626">
        <ele>365.197668</ele>
        <time>2021-11-21T00:13:23.259Z</time>
      </trkpt>
      <trkpt lat="47.479629" lon="7.733549">
        <ele>367.407129</ele>
        <time>2021-11-21T00:13:36.391Z</time>
      </trkpt>
      <trkpt lat="47.479442" lon="7.733643">
        <ele>369.135824</ele>
        <time>2021-11-21T00:13:46.297Z</time>
      </trkpt>
      <trkpt lat="47.479374" lon="7.733720">
        <ele>369.885332</ele>
        <time>2021-11-21T00:13:50.903Z</time>
      </trkpt>
      <trkpt lat="47.479287" lon="7.733859">
        <ele>371.006077</ele>
        <time>2021-11-21T00:13:56.716Z</time>
      </trkpt>
      <trkpt lat="47.479108" lon="7.734183">
        <ele>373.481685</ele>
        <time>2021-11-21T00:14:10.312Z</time>
      </trkpt>
      <trkpt lat="47.479049" lon="7.734271">
        <ele>374.214975</ele>
        <time>2021-11-21T00:14:14.928Z</time>
      </trkpt>
      <trkpt lat="47.478987" lon="7.734340">
        <ele>374.894040</ele>
        <time>2021-11-21T00:14:18.932Z</time>
      </trkpt>
      <trkpt lat="47.478751" lon="7.734445">
        <ele>377.051123</ele>
        <time>2021-11-21T00:14:31.038Z</time>
      </trkpt>
      <trkpt lat="47.478604" lon="7.734448">
        <ele>378.337939</ele>
        <time>2021-11-21T00:14:38.401Z</time>
      </trkpt>
      <trkpt lat="47.478419" lon="7.734438">
        <ele>379.845438</ele>
        <time>2021-11-21T00:14:46.706Z</time>
      </trkpt>
      <trkpt lat="47.478062" lon="7.734359">
        <ele>382.732350</ele>
        <time>2021-11-21T00:15:02.648Z</time>
      </trkpt>
      <trkpt lat="47.477944" lon="7.734325">
        <ele>383.693800</ele>
        <time>2021-11-21T00:15:09.552Z</time>
      </trkpt>
      <trkpt lat="47.477622" lon="7.734199">
        <ele>386.357580</ele>
        <time>2021-11-21T00:15:24.997Z</time>
      </trkpt>
      <trkpt lat="47.476662" lon="7.733746">
        <ele>394.337410</ele>
        <time>2021-11-21T00:16:11.573Z</time>
      </trkpt>
      <trkpt lat="47.476542" lon="7.733685">
        <ele>395.294206</ele>
        <time>2021-11-21T00:16:18.553Z</time>
      </trkpt>
      <trkpt lat="47.476311" lon="7.733566">
        <ele>397.138662</ele>
        <time>2021-11-21T00:16:28.730Z</time>
      </trkpt>
      <trkpt lat="47.475702" lon="7.733361">
        <ele>401.848271</ele>
        <time>2021-11-21T00:16:54.707Z</time>
      </trkpt>
      <trkpt lat="47.475643" lon="7.733352">
        <ele>402.295527</ele>
        <time>2021-11-21T00:16:57.615Z</time>
      </trkpt>
      <trkpt lat="47.475513" lon="7.733347">
        <ele>403.276141</ele>
        <time>2021-11-21T00:17:04.496Z</time>
      </trkpt>
      <trkpt lat="47.475316" lon="7.733339">
        <ele>404.762207</ele>
        <time>2021-11-21T00:17:13.514Z</time>
      </trkpt>
      <trkpt lat="47.475034" lon="7.733352">
        <ele>406.870271</ele>
        <time>2021-11-21T00:17:27.752Z</time>
      </trkpt>
      <trkpt lat="47.474608" lon="7.733393">
        <ele>409.874952</ele>
        <time>2021-11-21T00:17:45.580Z</time>
      </trkpt>
      <trkpt lat="47.474307" lon="7.733450">
        <ele>412.010784</ele>
        <time>2021-11-21T00:17:57.793Z</time>
      </trkpt>
      <trkpt lat="47.474010" lon="7.733547">
        <ele>414.151509</ele>
        <time>2021-11-21T00:18:10.801Z</time>
      </trkpt>
      <trkpt lat="47.473788" lon="7.733629">
        <ele>415.761988</ele>
        <time>2021-11-21T00:18:20.434Z</time>
      </trkpt>
      <trkpt lat="47.473666" lon="7.733675">
        <ele>416.648117</ele>
        <time>2021-11-21T00:18:25.757Z</time>
      </trkpt>
      <trkpt lat="47.473509" lon="7.733729">
        <ele>417.782610</ele>
        <time>2021-11-21T00:18:32.439Z</time>
      </trkpt>
      <trkpt lat="47.473073" lon="7.733797">
        <ele>420.801095</ele>
        <time>2021-11-21T00:18:51.837Z</time>
      </trkpt>
      <trkpt lat="47.472834" lon="7.733752">
        <ele>422.426039</ele>
        <time>2021-11-21T00:19:02.531Z</time>
      </trkpt>
      <trkpt lat="47.472688" lon="7.733697">
        <ele>423.442162</ele>
        <time>2021-11-21T00:19:08.526Z</time>
      </trkpt>
      <trkpt lat="47.472547" lon="7.733633">
        <ele>424.436893</ele>
        <time>2021-11-21T00:19:14.658Z</time>
      </trkpt>
      <trkpt lat="47.472105" lon="7.733303">
        <ele>427.776086</ele>
        <time>2021-11-21T00:19:33.054Z</time>
      </trkpt>
      <trkpt lat="47.471631" lon="7.732839">
        <ele>431.613402</ele>
        <time>2021-11-21T00:19:58.100Z</time>
      </trkpt>
      <trkpt lat="47.471395" lon="7.732417">
        <ele>434.154607</ele>
        <time>2021-11-21T00:20:15.081Z</time>
      </trkpt>
      <trkpt lat="47.471268" lon="7.732034">
        <ele>436.133935</ele>
        <time>2021-11-21T00:20:27.453Z</time>
      </trkpt>
      <trkpt lat="47.471153" lon="7.731437">
        <ele>439.014157</ele>
        <time>2021-11-21T00:20:45.167Z</time>
      </trkpt>
      <trkpt lat="47.471111" lon="7.731234">
        <ele>439.999164</ele>
        <time>2021-11-21T00:20:51.683Z</time>
      </trkpt>
      <trkpt lat="47.470944" lon="7.730671">
        <ele>442.851806</ele>
        <time>2021-11-21T00:21:08.308Z</time>
      </trkpt>
      <trkpt lat="47.470700" lon="7.730260">
        <ele>445.075737</ele>
        <time>2021-11-21T00:21:22.912Z</time>
      </trkpt>
      <trkpt lat="47.470333" lon="7.729782">
        <ele>447.795247</ele>
        <time>2021-11-21T00:21:42.040Z</time>
      </trkpt>
      <trkpt lat="47.469646" lon="7.728865">
        <ele>452.941586</ele>
        <time>2021-11-21T00:22:14.440Z</time>
      </trkpt>
      <trkpt lat="47.469535" lon="7.728710">
        <ele>453.792225</ele>
        <time>2021-11-21T00:22:19.797Z</time>
      </trkpt>
      <trkpt lat="47.469377" lon="7.728513">
        <ele>454.978451</ele>
        <time>2021-11-21T00:22:27.220Z</time>
      </trkpt>
      <trkpt lat="47.469080" lon="7.728106">
        <ele>457.302570</ele>
        <time>2021-11-21T00:22:42.243Z</time>
      </trkpt>
      <trkpt lat="47.467507" lon="7.725936">
        <ele>469.665631</ele>
        <time>2021-11-21T00:24:05.688Z</time>
      </trkpt>
      <trkpt lat="47.467396" lon="7.725770">
        <ele>470.574289</ele>
        <time>2021-11-21T00:24:12.167Z</time>
      </trkpt>
      <trkpt lat="47.467028" lon="7.725230">
        <ele>473.558304</ele>
        <time>2021-11-21T00:24:30.870Z</time>
      </trkpt>
      <trkpt lat="47.466779" lon="7.724949">
        <ele>475.150576</ele>
        <time>2021-11-21T00:24:42.150Z</time>
      </trkpt>
      <trkpt lat="47.466538" lon="7.724737">
        <ele>476.404291</ele>
        <time>2021-11-21T00:24:51.908Z</time>
      </trkpt>
      <trkpt lat="47.466305" lon="7.724568">
        <ele>477.564597</ele>
        <time>2021-11-21T00:25:00.216Z</time>
      </trkpt>
      <trkpt lat="47.466193" lon="7.724504">
        <ele>478.101446</ele>
        <time>2021-11-21T00:25:04.537Z</time>
      </trkpt>
      <trkpt lat="47.465567" lon="7.724049">
        <ele>481.220105</ele>
        <time>2021-11-21T00:25:26.368Z</time>
      </trkpt>
      <trkpt lat="47.464882" lon="7.723233">
        <ele>485.064750</ele>
        <time>2021-11-21T00:25:53.082Z</time>
      </trkpt>
      <trkpt lat="47.464732" lon="7.723056">
        <ele>485.894700</ele>
        <time>2021-11-21T00:25:59.594Z</time>
      </trkpt>
      <trkpt lat="47.464070" lon="7.722248">
        <ele>489.607007</ele>
        <time>2021-11-21T00:26:27.545Z</time>
      </trkpt>
      <trkpt lat="47.463877" lon="7.722012">
        <ele>490.599230</ele>
        <time>2021-11-21T00:26:36.458Z</time>
      </trkpt>
      <trkpt lat="47.463361" lon="7.721353">
        <ele>492.952897</ele>
        <time>2021-11-21T00:26:58.660Z</time>
      </trkpt>
      <trkpt lat="47.463192" lon="7.721145">
        <ele>493.711945</ele>
        <time>2021-11-21T00:27:05.245Z</time>
      </trkpt>
      <trkpt lat="47.463093" lon="7.721026">
        <ele>494.152376</ele>
        <time>2021-11-21T00:27:08.971Z</time>
      </trkpt>
      <trkpt lat="47.462940" lon="7.720839">
        <ele>494.837614</ele>
        <time>2021-11-21T00:27:14.533Z</time>
      </trkpt>
      <trkpt lat="47.462398" lon="7.720204">
        <ele>496.331384</ele>
        <time>2021-11-21T00:27:30.835Z</time>
      </trkpt>
      <trkpt lat="47.461918" lon="7.719612">
        <ele>496.002306</ele>
        <time>2021-11-21T00:27:39.618Z</time>
      </trkpt>
      <trkpt lat="47.461492" lon="7.719155">
        <ele>495.725211</ele>
        <time>2021-11-21T00:27:45.794Z</time>
      </trkpt>
      <trkpt lat="47.461216" lon="7.718921">
        <ele>495.557703</ele>
        <time>2021-11-21T00:27:49.340Z</time>
      </trkpt>
      <trkpt lat="47.460941" lon="7.718688">
        <ele>495.065387</ele>
        <time>2021-11-21T00:27:52.723Z</time>
      </trkpt>
      <trkpt lat="47.460776" lon="7.718517">
        <ele>494.650241</ele>
        <time>2021-11-21T00:27:54.841Z</time>
      </trkpt>
      <trkpt lat="47.460739" lon="7.718471">
        <ele>494.550645</ele>
        <time>2021-11-21T00:27:55.336Z</time>
      </trkpt>
      <trkpt lat="47.460341" lon="7.718145">
        <ele>493.613185</ele>
        <time>2021-11-21T00:28:00.180Z</time>
      </trkpt>
      <trkpt lat="47.459999" lon="7.717456">
        <ele>492.422393</ele>
        <time>2021-11-21T00:28:06.463Z</time>
      </trkpt>
      <trkpt lat="47.459964" lon="7.717452">
        <ele>492.350059</ele>
        <time>2021-11-21T00:28:06.834Z</time>
      </trkpt>
      <trkpt lat="47.459892" lon="7.717448">
        <ele>492.201594</ele>
        <time>2021-11-21T00:28:07.656Z</time>
      </trkpt>
      <trkpt lat="47.459808" lon="7.717440">
        <ele>492.028149</ele>
        <time>2021-11-21T00:28:08.586Z</time>
      </trkpt>
      <trkpt lat="47.459721" lon="7.717415">
        <ele>491.845529</ele>
        <time>2021-11-21T00:28:09.580Z</time>
      </trkpt>
      <trkpt lat="47.459652" lon="7.717361">
        <ele>491.740569</ele>
        <time>2021-11-21T00:28:10.490Z</time>
      </trkpt>
      <trkpt lat="47.459543" lon="7.717156">
        <ele>491.559124</ele>
        <time>2021-11-21T00:28:12.533Z</time>
      </trkpt>
      <trkpt lat="47.459339" lon="7.716263">
        <ele>490.903331</ele>
        <time>2021-11-21T00:28:20.437Z</time>
      </trkpt>
      <trkpt lat="47.459310" lon="7.716122">
        <ele>490.800795</ele>
        <time>2021-11-21T00:28:21.605Z</time>
      </trkpt>
      <trkpt lat="47.459245" lon="7.715752">
        <ele>490.534826</ele>
        <time>2021-11-21T00:28:24.857Z</time>
      </trkpt>
      <trkpt lat="47.459169" lon="7.715233">
        <ele>490.165368</ele>
        <time>2021-11-21T00:28:29.395Z</time>
      </trkpt>
      <trkpt lat="47.459125" lon="7.714899">
        <ele>489.930818</ele>
        <time>2021-11-21T00:28:32.361Z</time>
      </trkpt>
      <trkpt lat="47.459087" lon="7.714650">
        <ele>489.776326</ele>
        <time>2021-11-21T00:28:34.643Z</time>
      </trkpt>
      <trkpt lat="47.459038" lon="7.714408">
        <ele>489.623436</ele>
        <time>2021-11-21T00:28:36.830Z</time>
      </trkpt>
      <trkpt lat="47.458889" lon="7.713782">
        <ele>489.221775</ele>
        <time>2021-11-21T00:28:42.449Z</time>
      </trkpt>
      <trkpt lat="47.458775" lon="7.712975">
        <ele>488.722812</ele>
        <time>2021-11-21T00:28:49.213Z</time>
      </trkpt>
      <trkpt lat="47.458710" lon="7.712573">
        <ele>488.472651</ele>
        <time>2021-11-21T00:28:52.634Z</time>
      </trkpt>
      <trkpt lat="47.458637" lon="7.712151">
        <ele>488.128018</ele>
        <time>2021-11-21T00:28:56.190Z</time>
      </trkpt>
      <trkpt lat="47.458564" lon="7.711732">
        <ele>487.698368</ele>
        <time>2021-11-21T00:28:59.754Z</time>
      </trkpt>
      <trkpt lat="47.458484" lon="7.711198">
        <ele>487.155255</ele>
        <time>2021-11-21T00:29:04.231Z</time>
      </trkpt>
      <trkpt lat="47.458468" lon="7.711120">
        <ele>487.074317</ele>
        <time>2021-11-21T00:29:04.885Z</time>
      </trkpt>
      <trkpt lat="47.458366" lon="7.710766">
        <ele>486.692212</ele>
        <time>2021-11-21T00:29:07.898Z</time>
      </trkpt>
      <trkpt lat="47.458261" lon="7.710491">
        <ele>486.378607</ele>
        <time>2021-11-21T00:29:10.249Z</time>
      </trkpt>
      <trkpt lat="47.458242" lon="7.710453">
        <ele>486.331677</ele>
        <time>2021-11-21T00:29:10.594Z</time>
      </trkpt>
      <trkpt lat="47.457944" lon="7.710033">
        <ele>485.727130</ele>
        <time>2021-11-21T00:29:15.191Z</time>
      </trkpt>
      <trkpt lat="47.457446" lon="7.709786">
        <ele>484.530714</ele>
        <time>2021-11-21T00:29:20.933Z</time>
      </trkpt>
      <trkpt lat="47.457222" lon="7.709711">
        <ele>483.999213</ele>
        <time>2021-11-21T00:29:23.492Z</time>
      </trkpt>
      <trkpt lat="47.457024" lon="7.709673">
        <ele>483.537158</ele>
        <time>2021-11-21T00:29:25.641Z</time>
      </trkpt>
      <trkpt lat="47.456271" lon="7.709825">
        <ele>481.778403</ele>
        <time>2021-11-21T00:29:33.738Z</time>
      </trkpt>
      <trkpt lat="47.455980" lon="7.709878">
        <ele>480.927283</ele>
        <time>2021-11-21T00:29:36.727Z</time>
      </trkpt>
      <trkpt lat="47.455679" lon="7.709963">
        <ele>479.934509</ele>
        <time>2021-11-21T00:29:39.829Z</time>
      </trkpt>
      <trkpt lat="47.455432" lon="7.710084">
        <ele>479.091541</ele>
        <time>2021-11-21T00:29:42.471Z</time>
      </trkpt>
      <trkpt lat="47.455188" lon="7.710225">
        <ele>478.242848</ele>
        <time>2021-11-21T00:29:45.172Z</time>
      </trkpt>
      <trkpt lat="47.455156" lon="7.710244">
        <ele>478.131134</ele>
        <time>2021-11-21T00:29:45.495Z</time>
      </trkpt>
      <trkpt lat="47.455060" lon="7.710275">
        <ele>477.812793</ele>
        <time>2021-11-21T00:29:46.523Z</time>
      </trkpt>
      <trkpt lat="47.454961" lon="7.710280">
        <ele>477.491874</ele>
        <time>2021-11-21T00:29:47.519Z</time>
      </trkpt>
      <trkpt lat="47.454807" lon="7.710229">
        <ele>476.980601</ele>
        <time>2021-11-21T00:29:49.052Z</time>
      </trkpt>
      <trkpt lat="47.454541" lon="7.710010">
        <ele>475.994297</ele>
        <time>2021-11-21T00:29:52.097Z</time>
      </trkpt>
      <trkpt lat="47.453968" lon="7.709323">
        <ele>473.411029</ele>
        <time>2021-11-21T00:29:59.412Z</time>
      </trkpt>
      <trkpt lat="47.453734" lon="7.708981">
        <ele>472.246973</ele>
        <time>2021-11-21T00:30:02.661Z</time>
      </trkpt>
      <trkpt lat="47.453358" lon="7.708380">
        <ele>470.288014</ele>
        <time>2021-11-21T00:30:08.258Z</time>
      </trkpt>
      <trkpt lat="47.452773" lon="7.707630">
        <ele>467.377270</ele>
        <time>2021-11-21T00:30:15.995Z</time>
      </trkpt>
      <trkpt lat="47.452044" lon="7.706887">
        <ele>463.945051</ele>
        <time>2021-11-21T00:30:24.831Z</time>
      </trkpt>
      <trkpt lat="47.451609" lon="7.706354">
        <ele>461.671247</ele>
        <time>2021-11-21T00:30:30.149Z</time>
      </trkpt>
      <trkpt lat="47.451588" lon="7.706328">
        <ele>461.550540</ele>
        <time>2021-11-21T00:30:30.384Z</time>
      </trkpt>
      <trkpt lat="47.450944" lon="7.705517">
        <ele>457.822569</ele>
        <time>2021-11-21T00:30:38.446Z</time>
      </trkpt>
      <trkpt lat="47.450911" lon="7.705485">
        <ele>457.648649</ele>
        <time>2021-11-21T00:30:38.773Z</time>
      </trkpt>
      <trkpt lat="47.450695" lon="7.705273">
        <ele>456.506086</ele>
        <time>2021-11-21T00:30:41.292Z</time>
      </trkpt>
      <trkpt lat="47.450259" lon="7.704843">
        <ele>454.419359</ele>
        <time>2021-11-21T00:30:46.337Z</time>
      </trkpt>
      <trkpt lat="47.450085" lon="7.704753">
        <ele>454.349049</ele>
        <time>2021-11-21T00:30:48.504Z</time>
      </trkpt>
      <trkpt lat="47.450006" lon="7.704711">
        <ele>454.317029</ele>
        <time>2021-11-21T00:30:49.437Z</time>
      </trkpt>
      <trkpt lat="47.449898" lon="7.704673">
        <ele>454.274686</ele>
        <time>2021-11-21T00:30:50.605Z</time>
      </trkpt>
      <trkpt lat="47.449827" lon="7.704663">
        <ele>454.247483</ele>
        <time>2021-11-21T00:30:51.483Z</time>
      </trkpt>
      <trkpt lat="47.449770" lon="7.704654">
        <ele>454.225618</ele>
        <time>2021-11-21T00:30:52.761Z</time>
      </trkpt>
      <trkpt lat="47.449649" lon="7.704651">
        <ele>454.179460</ele>
        <time>2021-11-21T00:30:54.180Z</time>
      </trkpt>
      <trkpt lat="47.449479" lon="7.704760">
        <ele>454.108787</ele>
        <time>2021-11-21T00:30:56.284Z</time>
      </trkpt>
      <trkpt lat="47.449138" lon="7.705438">
        <ele>453.890845</ele>
        <time>2021-11-21T00:31:07.214Z</time>
      </trkpt>
      <trkpt lat="47.449013" lon="7.705516">
        <ele>453.839097</ele>
        <time>2021-11-21T00:31:09.812Z</time>
      </trkpt>
      <trkpt lat="47.448830" lon="7.705480">
        <ele>453.768683</ele>
        <time>2021-11-21T00:31:13.734Z</time>
      </trkpt>
      <trkpt lat="47.448779" lon="7.705426">
        <ele>453.796667</ele>
        <time>2021-11-21T00:31:15.100Z</time>
      </trkpt>
      <trkpt lat="47.448749" lon="7.705339">
        <ele>453.906383</ele>
        <time>2021-11-21T00:31:16.531Z</time>
      </trkpt>
      <trkpt lat="47.448687" lon="7.705095">
        <ele>454.199224</ele>
        <time>2021-11-21T00:31:20.497Z</time>
      </trkpt>
      <trkpt lat="47.448288" lon="7.703531">
        <ele>456.077223</ele>
        <time>2021-11-21T00:31:47.487Z</time>
      </trkpt>
      <trkpt lat="47.448208" lon="7.703252">
        <ele>456.417688</ele>
        <time>2021-11-21T00:31:53.646Z</time>
      </trkpt>
      <trkpt lat="47.448102" lon="7.702885">
        <ele>456.632097</ele>
        <time>2021-11-21T00:31:57.458Z</time>
      </trkpt>
      <trkpt lat="47.447921" lon="7.702162">
        <ele>455.856805</ele>
        <time>2021-11-21T00:32:03.723Z</time>
      </trkpt>
      <trkpt lat="47.447685" lon="7.701213">
        <ele>454.839975</ele>
        <time>2021-11-21T00:32:11.325Z</time>
      </trkpt>
      <trkpt lat="47.447486" lon="7.700513">
        <ele>454.076356</ele>
        <time>2021-11-21T00:32:16.698Z</time>
      </trkpt>
      <trkpt lat="47.446969" lon="7.698301">
        <ele>450.214259</ele>
        <time>2021-11-21T00:32:33.210Z</time>
      </trkpt>
      <trkpt lat="47.446756" lon="7.697834">
        <ele>449.341597</ele>
        <time>2021-11-21T00:32:37.596Z</time>
      </trkpt>
      <trkpt lat="47.446404" lon="7.697267">
        <ele>448.259734</ele>
        <time>2021-11-21T00:32:43.472Z</time>
      </trkpt>
      <trkpt lat="47.446318" lon="7.697047">
        <ele>447.902556</ele>
        <time>2021-11-21T00:32:45.587Z</time>
      </trkpt>
      <trkpt lat="47.446285" lon="7.696935">
        <ele>447.730836</ele>
        <time>2021-11-21T00:32:46.472Z</time>
      </trkpt>
      <trkpt lat="47.446241" lon="7.696767">
        <ele>447.477603</ele>
        <time>2021-11-21T00:32:47.774Z</time>
      </trkpt>
      <trkpt lat="47.446194" lon="7.696540">
        <ele>447.143910</ele>
        <time>2021-11-21T00:32:49.786Z</time>
      </trkpt>
      <trkpt lat="47.445855" lon="7.695649">
        <ele>445.486977</ele>
        <time>2021-11-21T00:32:57.295Z</time>
      </trkpt>
      <trkpt lat="47.445851" lon="7.695576">
        <ele>445.284508</ele>
        <time>2021-11-21T00:32:57.784Z</time>
      </trkpt>
      <trkpt lat="47.445850" lon="7.695532">
        <ele>445.162802</ele>
        <time>2021-11-21T00:32:58.050Z</time>
      </trkpt>
      <trkpt lat="47.445849" lon="7.695384">
        <ele>444.753638</ele>
        <time>2021-11-21T00:32:58.957Z</time>
      </trkpt>
      <trkpt lat="47.445813" lon="7.694948">
        <ele>443.539372</ele>
        <time>2021-11-21T00:33:01.853Z</time>
      </trkpt>
      <trkpt lat="47.445672" lon="7.694244">
        <ele>441.509616</ele>
        <time>2021-11-21T00:33:06.826Z</time>
      </trkpt>
      <trkpt lat="47.445704" lon="7.693986">
        <ele>440.784481</ele>
        <time>2021-11-21T00:33:08.661Z</time>
      </trkpt>
      <trkpt lat="47.445721" lon="7.693973">
        <ele>440.706246</ele>
        <time>2021-11-21T00:33:08.819Z</time>
      </trkpt>
      <trkpt lat="47.445737" lon="7.693966">
        <ele>440.638040</ele>
        <time>2021-11-21T00:33:08.957Z</time>
      </trkpt>
      <trkpt lat="47.445965" lon="7.694081">
        <ele>439.653304</ele>
        <time>2021-11-21T00:33:11.213Z</time>
      </trkpt>
      <trkpt lat="47.446012" lon="7.694122">
        <ele>439.430238</ele>
        <time>2021-11-21T00:33:11.689Z</time>
      </trkpt>
      <trkpt lat="47.446075" lon="7.694194">
        <ele>439.104756</ele>
        <time>2021-11-21T00:33:12.385Z</time>
      </trkpt>
      <trkpt lat="47.446275" lon="7.694519">
        <ele>437.900992</ele>
        <time>2021-11-21T00:33:15.339Z</time>
      </trkpt>
      <trkpt lat="47.446307" lon="7.694613">
        <ele>437.614682</ele>
        <time>2021-11-21T00:33:15.972Z</time>
      </trkpt>
      <trkpt lat="47.446342" lon="7.694748">
        <ele>437.221337</ele>
        <time>2021-11-21T00:33:17.575Z</time>
      </trkpt>
      <trkpt lat="47.446470" lon="7.695015">
        <ele>436.330939</ele>
        <time>2021-11-21T00:33:19.622Z</time>
      </trkpt>
      <trkpt lat="47.446501" lon="7.695063">
        <ele>436.150368</ele>
        <time>2021-11-21T00:33:20.040Z</time>
      </trkpt>
      <trkpt lat="47.446566" lon="7.695150">
        <ele>435.797666</ele>
        <time>2021-11-21T00:33:21.537Z</time>
      </trkpt>
      <trkpt lat="47.446714" lon="7.695348">
        <ele>434.994761</ele>
        <time>2021-11-21T00:33:23.399Z</time>
      </trkpt>
      <trkpt lat="47.446837" lon="7.695505">
        <ele>434.341092</ele>
        <time>2021-11-21T00:33:25.043Z</time>
      </trkpt>
      <trkpt lat="47.446984" lon="7.695684">
        <ele>433.575022</ele>
        <time>2021-11-21T00:33:26.791Z</time>
      </trkpt>
      <trkpt lat="47.447222" lon="7.695984">
        <ele>432.316914</ele>
        <time>2021-11-21T00:33:30.080Z</time>
      </trkpt>
      <trkpt lat="47.447352" lon="7.696172">
        <ele>431.585410</ele>
        <time>2021-11-21T00:33:31.959Z</time>
      </trkpt>
      <trkpt lat="47.447699" lon="7.696748">
        <ele>430.171965</ele>
        <time>2021-11-21T00:33:37.317Z</time>
      </trkpt>
      <trkpt lat="47.447725" lon="7.696812">
        <ele>430.043693</ele>
        <time>2021-11-21T00:33:37.754Z</time>
      </trkpt>
      <trkpt lat="47.447921" lon="7.697255">
        <ele>429.134169</ele>
        <time>2021-11-21T00:33:41.354Z</time>
      </trkpt>
      <trkpt lat="47.448256" lon="7.698069">
        <ele>427.497051</ele>
        <time>2021-11-21T00:33:48.964Z</time>
      </trkpt>
      <trkpt lat="47.448465" lon="7.698442">
        <ele>426.706854</ele>
        <time>2021-11-21T00:33:52.463Z</time>
      </trkpt>
      <trkpt lat="47.448569" lon="7.698553">
        <ele>426.503369</ele>
        <time>2021-11-21T00:33:53.772Z</time>
      </trkpt>
      <trkpt lat="47.448699" lon="7.698668">
        <ele>426.263036</ele>
        <time>2021-11-21T00:33:55.387Z</time>
      </trkpt>
      <trkpt lat="47.448994" lon="7.698894">
        <ele>425.735937</ele>
        <time>2021-11-21T00:33:59.139Z</time>
      </trkpt>
      <trkpt lat="47.449262" lon="7.699089">
        <ele>425.262071</ele>
        <time>2021-11-21T00:34:02.667Z</time>
      </trkpt>
      <trkpt lat="47.450543" lon="7.700018">
        <ele>422.990514</ele>
        <time>2021-11-21T00:34:19.319Z</time>
      </trkpt>
      <trkpt lat="47.450799" lon="7.700071">
        <ele>422.576856</ele>
        <time>2021-11-21T00:34:22.477Z</time>
      </trkpt>
      <trkpt lat="47.451088" lon="7.699984">
        <ele>422.104901</ele>
        <time>2021-11-21T00:34:25.916Z</time>
      </trkpt>
      <trkpt lat="47.451153" lon="7.699940">
        <ele>421.990506</ele>
        <time>2021-11-21T00:34:26.712Z</time>
      </trkpt>
      <trkpt lat="47.451202" lon="7.699899">
        <ele>421.900412</ele>
        <time>2021-11-21T00:34:27.278Z</time>
      </trkpt>
      <trkpt lat="47.451918" lon="7.698602">
        <ele>419.311592</ele>
        <time>2021-11-21T00:34:39.726Z</time>
      </trkpt>
      <trkpt lat="47.452189" lon="7.698217">
        <ele>418.221616</ele>
        <time>2021-11-21T00:34:43.715Z</time>
      </trkpt>
      <trkpt lat="47.453388" lon="7.697714">
        <ele>413.510874</ele>
        <time>2021-11-21T00:34:56.170Z</time>
      </trkpt>
      <trkpt lat="47.453660" lon="7.697642">
        <ele>411.990250</ele>
        <time>2021-11-21T00:34:58.665Z</time>
      </trkpt>
      <trkpt lat="47.454053" lon="7.697649">
        <ele>409.827387</ele>
        <time>2021-11-21T00:35:02.166Z</time>
      </trkpt>
      <trkpt lat="47.454278" lon="7.697693">
        <ele>408.578418</ele>
        <time>2021-11-21T00:35:04.231Z</time>
      </trkpt>
      <trkpt lat="47.454791" lon="7.697790">
        <ele>405.833369</ele>
        <time>2021-11-21T00:35:09.042Z</time>
      </trkpt>
      <trkpt lat="47.455239" lon="7.697864">
        <ele>404.621086</ele>
        <time>2021-11-21T00:35:13.341Z</time>
      </trkpt>
      <trkpt lat="47.455395" lon="7.697858">
        <ele>404.201419</ele>
        <time>2021-11-21T00:35:14.800Z</time>
      </trkpt>
      <trkpt lat="47.455470" lon="7.697839">
        <ele>403.996786</ele>
        <time>2021-11-21T00:35:15.588Z</time>
      </trkpt>
      <trkpt lat="47.455543" lon="7.697790">
        <ele>403.781196</ele>
        <time>2021-11-21T00:35:16.367Z</time>
      </trkpt>
      <trkpt lat="47.455510" lon="7.697645">
        <ele>403.502996</ele>
        <time>2021-11-21T00:35:17.411Z</time>
      </trkpt>
      <trkpt lat="47.455404" lon="7.696022">
        <ele>401.326768</ele>
        <time>2021-11-21T00:35:30.670Z</time>
      </trkpt>
      <trkpt lat="47.455486" lon="7.692837">
        <ele>403.924757</ele>
        <time>2021-11-21T00:36:17.066Z</time>
      </trkpt>
      <trkpt lat="47.455466" lon="7.692668">
        <ele>404.088179</ele>
        <time>2021-11-21T00:36:19.036Z</time>
      </trkpt>
      <trkpt lat="47.455436" lon="7.692541">
        <ele>404.216318</ele>
        <time>2021-11-21T00:36:20.949Z</time>
      </trkpt>
      <trkpt lat="47.455205" lon="7.691971">
        <ele>404.849304</ele>
        <time>2021-11-21T00:36:29.828Z</time>
      </trkpt>
      <trkpt lat="47.454703" lon="7.691197">
        <ele>405.862768</ele>
        <time>2021-11-21T00:36:44.759Z</time>
      </trkpt>
      <trkpt lat="47.454034" lon="7.690524">
        <ele>406.957465</ele>
        <time>2021-11-21T00:37:01.291Z</time>
      </trkpt>
      <trkpt lat="47.453538" lon="7.690217">
        <ele>407.684945</ele>
        <time>2021-11-21T00:37:11.787Z</time>
      </trkpt>
      <trkpt lat="47.453487" lon="7.690182">
        <ele>407.761015</ele>
        <time>2021-11-21T00:37:13.586Z</time>
      </trkpt>
      <trkpt lat="47.453294" lon="7.690025">
        <ele>408.059036</ele>
        <time>2021-11-21T00:37:17.455Z</time>
      </trkpt>
      <trkpt lat="47.453139" lon="7.689805">
        <ele>408.335318</ele>
        <time>2021-11-21T00:37:22.000Z</time>
      </trkpt>
      <trkpt lat="47.452723" lon="7.688756">
        <ele>409.383989</ele>
        <time>2021-11-21T00:37:37.902Z</time>
      </trkpt>
      <trkpt lat="47.452543" lon="7.687988">
        <ele>410.084914</ele>
        <time>2021-11-21T00:37:48.804Z</time>
      </trkpt>
      <trkpt lat="47.452511" lon="7.687148">
        <ele>411.013198</ele>
        <time>2021-11-21T00:38:00.278Z</time>
      </trkpt>
      <trkpt lat="47.452468" lon="7.687010">
        <ele>411.207868</ele>
        <time>2021-11-21T00:38:02.650Z</time>
      </trkpt>
      <trkpt lat="47.452276" lon="7.686394">
        <ele>412.076878</ele>
        <time>2021-11-21T00:38:12.863Z</time>
      </trkpt>
      <trkpt lat="47.452033" lon="7.685806">
        <ele>412.959764</ele>
        <time>2021-11-21T00:38:23.792Z</time>
      </trkpt>
      <trkpt lat="47.451512" lon="7.684848">
        <ele>414.586171</ele>
        <time>2021-11-21T00:38:43.651Z</time>
      </trkpt>
      <trkpt lat="47.450880" lon="7.683995">
        <ele>416.320697</ele>
        <time>2021-11-21T00:39:03.152Z</time>
      </trkpt>
      <trkpt lat="47.450216" lon="7.683257">
        <ele>418.137163</ele>
        <time>2021-11-21T00:39:21.537Z</time>
      </trkpt>
      <trkpt lat="47.449371" lon="7.682547">
        <ele>420.575971</ele>
        <time>2021-11-21T00:39:44.742Z</time>
      </trkpt>
      <trkpt lat="47.449105" lon="7.682126">
        <ele>421.553691</ele>
        <time>2021-11-21T00:39:55.027Z</time>
      </trkpt>
      <trkpt lat="47.449066" lon="7.681910">
        <ele>421.933073</ele>
        <time>2021-11-21T00:39:59.228Z</time>
      </trkpt>
      <trkpt lat="47.449071" lon="7.681449">
        <ele>423.148973</ele>
        <time>2021-11-21T00:40:08.143Z</time>
      </trkpt>
      <trkpt lat="47.449341" lon="7.678552">
        <ele>430.791210</ele>
        <time>2021-11-21T00:41:10.541Z</time>
      </trkpt>
      <trkpt lat="47.449373" lon="7.677847">
        <ele>432.510121</ele>
        <time>2021-11-21T00:41:25.019Z</time>
      </trkpt>
      <trkpt lat="47.449388" lon="7.677146">
        <ele>434.216294</ele>
        <time>2021-11-21T00:41:39.249Z</time>
      </trkpt>
      <trkpt lat="47.449626" lon="7.675886">
        <ele>436.573717</ele>
        <time>2021-11-21T00:42:01.634Z</time>
      </trkpt>
      <trkpt lat="47.449647" lon="7.675700">
        <ele>436.829342</ele>
        <time>2021-11-21T00:42:04.708Z</time>
      </trkpt>
      <trkpt lat="47.449648" lon="7.675423">
        <ele>437.204840</ele>
        <time>2021-11-21T00:42:08.568Z</time>
      </trkpt>
      <trkpt lat="47.449629" lon="7.675216">
        <ele>437.488015</ele>
        <time>2021-11-21T00:42:11.269Z</time>
      </trkpt>
      <trkpt lat="47.449613" lon="7.675121">
        <ele>437.620728</ele>
        <time>2021-11-21T00:42:12.922Z</time>
      </trkpt>
      <trkpt lat="47.449580" lon="7.674934">
        <ele>437.882708</ele>
        <time>2021-11-21T00:42:15.477Z</time>
      </trkpt>
      <trkpt lat="47.449463" lon="7.674461">
        <ele>438.565441</ele>
        <time>2021-11-21T00:42:22.470Z</time>
      </trkpt>
      <trkpt lat="47.449339" lon="7.673666">
        <ele>439.634166</ele>
        <time>2021-11-21T00:42:34.260Z</time>
      </trkpt>
      <trkpt lat="47.449291" lon="7.673412">
        <ele>439.966575</ele>
        <time>2021-11-21T00:42:38.762Z</time>
      </trkpt>
      <trkpt lat="47.449091" lon="7.672830">
        <ele>440.789414</ele>
        <time>2021-11-21T00:42:48.905Z</time>
      </trkpt>
      <trkpt lat="47.448844" lon="7.672394">
        <ele>441.506306</ele>
        <time>2021-11-21T00:42:57.022Z</time>
      </trkpt>
      <trkpt lat="47.448827" lon="7.672348">
        <ele>441.572378</ele>
        <time>2021-11-21T00:42:57.621Z</time>
      </trkpt>
      <trkpt lat="47.448800" lon="7.672264">
        <ele>441.689604</ele>
        <time>2021-11-21T00:42:58.764Z</time>
      </trkpt>
      <trkpt lat="47.448753" lon="7.672078">
        <ele>441.939874</ele>
        <time>2021-11-21T00:43:01.667Z</time>
      </trkpt>
      <trkpt lat="47.448684" lon="7.671787">
        <ele>442.328550</ele>
        <time>2021-11-21T00:43:06.537Z</time>
      </trkpt>
      <trkpt lat="47.448612" lon="7.671488">
        <ele>442.870453</ele>
        <time>2021-11-21T00:43:11.837Z</time>
      </trkpt>
      <trkpt lat="47.448590" lon="7.671360">
        <ele>443.137238</ele>
        <time>2021-11-21T00:43:14.193Z</time>
      </trkpt>
      <trkpt lat="47.448572" lon="7.671065">
        <ele>443.735570</ele>
        <time>2021-11-21T00:43:18.452Z</time>
      </trkpt>
      <trkpt lat="47.448599" lon="7.670932">
        <ele>444.016080</ele>
        <time>2021-11-21T00:43:21.123Z</time>
      </trkpt>
      <trkpt lat="47.448657" lon="7.670830">
        <ele>444.285283</ele>
        <time>2021-11-21T00:43:23.234Z</time>
      </trkpt>
      <trkpt lat="47.448818" lon="7.670700">
        <ele>444.833233</ele>
        <time>2021-11-21T00:43:27.626Z</time>
      </trkpt>
      <trkpt lat="47.449088" lon="7.670572">
        <ele>445.680186</ele>
        <time>2021-11-21T00:43:34.725Z</time>
      </trkpt>
      <trkpt lat="47.449125" lon="7.670544">
        <ele>445.804341</ele>
        <time>2021-11-21T00:43:35.888Z</time>
      </trkpt>
      <trkpt lat="47.449158" lon="7.670507">
        <ele>445.928046</ele>
        <time>2021-11-21T00:43:37.076Z</time>
      </trkpt>
      <trkpt lat="47.449210" lon="7.670420">
        <ele>446.162593</ele>
        <time>2021-11-21T00:43:39.587Z</time>
      </trkpt>
      <trkpt lat="47.449245" lon="7.670322">
        <ele>446.386466</ele>
        <time>2021-11-21T00:43:41.640Z</time>
      </trkpt>
      <trkpt lat="47.449246" lon="7.669961">
        <ele>447.115697</ele>
        <time>2021-11-21T00:43:48.498Z</time>
      </trkpt>
      <trkpt lat="47.449199" lon="7.669094">
        <ele>449.669363</ele>
        <time>2021-11-21T00:44:06.964Z</time>
      </trkpt>
      <trkpt lat="47.449189" lon="7.668933">
        <ele>450.254415</ele>
        <time>2021-11-21T00:44:11.790Z</time>
      </trkpt>
      <trkpt lat="47.449173" lon="7.668787">
        <ele>450.789627</ele>
        <time>2021-11-21T00:44:15.006Z</time>
      </trkpt>
      <trkpt lat="47.449116" lon="7.668452">
        <ele>452.039651</ele>
        <time>2021-11-21T00:44:23.282Z</time>
      </trkpt>
      <trkpt lat="47.449113" lon="7.668434">
        <ele>452.106735</ele>
        <time>2021-11-21T00:44:23.873Z</time>
      </trkpt>
      <trkpt lat="47.449086" lon="7.668269">
        <ele>452.721042</ele>
        <time>2021-11-21T00:44:27.837Z</time>
      </trkpt>
      <trkpt lat="47.448950" lon="7.667532">
        <ele>455.485489</ele>
        <time>2021-11-21T00:44:45.463Z</time>
      </trkpt>
      <trkpt lat="47.448942" lon="7.667396">
        <ele>455.979483</ele>
        <time>2021-11-21T00:44:50.158Z</time>
      </trkpt>
      <trkpt lat="47.448943" lon="7.667317">
        <ele>456.265406</ele>
        <time>2021-11-21T00:44:52.270Z</time>
      </trkpt>
      <trkpt lat="47.448967" lon="7.667149">
        <ele>456.886755</ele>
        <time>2021-11-21T00:44:55.666Z</time>
      </trkpt>
      <trkpt lat="47.448997" lon="7.667034">
        <ele>457.332788</ele>
        <time>2021-11-21T00:44:58.757Z</time>
      </trkpt>
      <trkpt lat="47.449072" lon="7.666757">
        <ele>458.852968</ele>
        <time>2021-11-21T00:45:09.476Z</time>
      </trkpt>
      <trkpt lat="47.449414" lon="7.665695">
        <ele>465.143107</ele>
        <time>2021-11-21T00:45:44.471Z</time>
      </trkpt>
      <trkpt lat="47.449432" lon="7.665615">
        <ele>465.593966</ele>
        <time>2021-11-21T00:45:47.790Z</time>
      </trkpt>
      <trkpt lat="47.449446" lon="7.665513">
        <ele>466.150533</ele>
        <time>2021-11-21T00:45:52.313Z</time>
      </trkpt>
      <trkpt lat="47.449450" lon="7.665415">
        <ele>466.675543</ele>
        <time>2021-11-21T00:45:57.573Z</time>
      </trkpt>
      <trkpt lat="47.449441" lon="7.665293">
        <ele>467.331809</ele>
        <time>2021-11-21T00:46:00.215Z</time>
      </trkpt>
      <trkpt lat="47.449396" lon="7.665028">
        <ele>468.792894</ele>
        <time>2021-11-21T00:46:08.499Z</time>
      </trkpt>
      <trkpt lat="47.449370" lon="7.664917">
        <ele>469.421068</ele>
        <time>2021-11-21T00:46:14.331Z</time>
      </trkpt>
      <trkpt lat="47.449175" lon="7.664357">
        <ele>472.737302</ele>
        <time>2021-11-21T00:46:33.452Z</time>
      </trkpt>
      <trkpt lat="47.449031" lon="7.664198">
        <ele>474.089632</ele>
        <time>2021-11-21T00:46:40.825Z</time>
      </trkpt>
      <trkpt lat="47.448781" lon="7.664132">
        <ele>476.000599</ele>
        <time>2021-11-21T00:46:51.164Z</time>
      </trkpt>
      <trkpt lat="47.448693" lon="7.664150">
        <ele>476.669094</ele>
        <time>2021-11-21T00:46:55.927Z</time>
      </trkpt>
      <trkpt lat="47.448661" lon="7.664157">
        <ele>476.912511</ele>
        <time>2021-11-21T00:46:57.227Z</time>
      </trkpt>
      <trkpt lat="47.448595" lon="7.664189">
        <ele>477.435169</ele>
        <time>2021-11-21T00:47:02.009Z</time>
      </trkpt>
      <trkpt lat="47.448467" lon="7.664289">
        <ele>478.524516</ele>
        <time>2021-11-21T00:47:06.183Z</time>
      </trkpt>
      <trkpt lat="47.448316" lon="7.664525">
        <ele>480.177799</ele>
        <time>2021-11-21T00:47:17.156Z</time>
      </trkpt>
      <trkpt lat="47.448241" lon="7.664819">
        <ele>481.776799</ele>
        <time>2021-11-21T00:47:25.354Z</time>
      </trkpt>
      <trkpt lat="47.448216" lon="7.665002">
        <ele>482.726853</ele>
        <time>2021-11-21T00:47:31.802Z</time>
      </trkpt>
      <trkpt lat="47.448208" lon="7.665438">
        <ele>484.946366</ele>
        <time>2021-11-21T00:47:44.253Z</time>
      </trkpt>
      <trkpt lat="47.448206" lon="7.665560">
        <ele>485.630599</ele>
        <time>2021-11-21T00:47:48.248Z</time>
      </trkpt>
      <trkpt lat="47.448169" lon="7.665959">
        <ele>488.086147</ele>
        <time>2021-11-21T00:48:01.367Z</time>
      </trkpt>
      <trkpt lat="47.447979" lon="7.666512">
        <ele>491.868119</ele>
        <time>2021-11-21T00:48:21.004Z</time>
      </trkpt>
      <trkpt lat="47.447929" lon="7.666589">
        <ele>492.518997</ele>
        <time>2021-11-21T00:48:22.872Z</time>
      </trkpt>
      <trkpt lat="47.447888" lon="7.666650">
        <ele>493.043384</ele>
        <time>2021-11-21T00:48:27.207Z</time>
      </trkpt>
      <trkpt lat="47.447554" lon="7.666977">
        <ele>496.654981</ele>
        <time>2021-11-21T00:48:46.975Z</time>
      </trkpt>
      <trkpt lat="47.446739" lon="7.667422">
        <ele>505.031909</ele>
        <time>2021-11-21T00:49:36.454Z</time>
      </trkpt>
      <trkpt lat="47.446425" lon="7.667491">
        <ele>508.408986</ele>
        <time>2021-11-21T00:49:58.110Z</time>
      </trkpt>
      <trkpt lat="47.445942" lon="7.667458">
        <ele>513.552716</ele>
        <time>2021-11-21T00:50:27.325Z</time>
      </trkpt>
      <trkpt lat="47.445776" lon="7.667533">
        <ele>515.399252</ele>
        <time>2021-11-21T00:50:37.822Z</time>
      </trkpt>
      <trkpt lat="47.445654" lon="7.667805">
        <ele>517.747422</ele>
        <time>2021-11-21T00:50:49.341Z</time>
      </trkpt>
      <trkpt lat="47.445654" lon="7.667998">
        <ele>519.135959</ele>
        <time>2021-11-21T00:50:56.963Z</time>
      </trkpt>
      <trkpt lat="47.445750" lon="7.668418">
        <ele>521.476517</ele>
        <time>2021-11-21T00:51:11.091Z</time>
      </trkpt>
      <trkpt lat="47.445783" lon="7.668679">
        <ele>522.447193</ele>
        <time>2021-11-21T00:51:20.879Z</time>
      </trkpt>
      <trkpt lat="47.445787" lon="7.668799">
        <ele>522.886413</ele>
        <time>2021-11-21T00:51:23.688Z</time>
      </trkpt>
      <trkpt lat="47.445777" lon="7.668911">
        <ele>523.299407</ele>
        <time>2021-11-21T00:51:26.298Z</time>
      </trkpt>
      <trkpt lat="47.445759" lon="7.669034">
        <ele>523.759468</ele>
        <time>2021-11-21T00:51:31.220Z</time>
      </trkpt>
      <trkpt lat="47.445577" lon="7.669433">
        <ele>525.518876</ele>
        <time>2021-11-21T00:51:44.082Z</time>
      </trkpt>
      <trkpt lat="47.445070" lon="7.669945">
        <ele>528.837684</ele>
        <time>2021-11-21T00:52:06.135Z</time>
      </trkpt>
      <trkpt lat="47.444169" lon="7.671458">
        <ele>529.103931</ele>
        <time>2021-11-21T00:52:25.072Z</time>
      </trkpt>
      <trkpt lat="47.444057" lon="7.671641">
        <ele>528.917175</ele>
        <time>2021-11-21T00:52:27.440Z</time>
      </trkpt>
      <trkpt lat="47.443989" lon="7.671784">
        <ele>528.784898</ele>
        <time>2021-11-21T00:52:28.490Z</time>
      </trkpt>
      <trkpt lat="47.443713" lon="7.672402">
        <ele>528.132503</ele>
        <time>2021-11-21T00:52:33.605Z</time>
      </trkpt>
      <trkpt lat="47.443628" lon="7.672491">
        <ele>527.890131</ele>
        <time>2021-11-21T00:52:34.745Z</time>
      </trkpt>
      <trkpt lat="47.443344" lon="7.672548">
        <ele>527.223188</ele>
        <time>2021-11-21T00:52:37.499Z</time>
      </trkpt>
      <trkpt lat="47.442608" lon="7.672446">
        <ele>525.502973</ele>
        <time>2021-11-21T00:52:44.731Z</time>
      </trkpt>
      <trkpt lat="47.442480" lon="7.672412">
        <ele>525.200343</ele>
        <time>2021-11-21T00:52:46.169Z</time>
      </trkpt>
      <trkpt lat="47.442412" lon="7.672395">
        <ele>525.039857</ele>
        <time>2021-11-21T00:52:47.268Z</time>
      </trkpt>
      <trkpt lat="47.442155" lon="7.672236">
        <ele>524.391561</ele>
        <time>2021-11-21T00:52:50.984Z</time>
      </trkpt>
      <trkpt lat="47.441865" lon="7.671856">
        <ele>525.257577</ele>
        <time>2021-11-21T00:52:58.234Z</time>
      </trkpt>
      <trkpt lat="47.441470" lon="7.671052">
        <ele>528.052127</ele>
        <time>2021-11-21T00:53:16.763Z</time>
      </trkpt>
      <trkpt lat="47.441062" lon="7.669851">
        <ele>532.075256</ele>
        <time>2021-11-21T00:53:52.937Z</time>
      </trkpt>
      <trkpt lat="47.440446" lon="7.668714">
        <ele>540.531851</ele>
        <time>2021-11-21T00:54:39.151Z</time>
      </trkpt>
      <trkpt lat="47.440169" lon="7.668322">
        <ele>543.822768</ele>
        <time>2021-11-21T00:54:59.241Z</time>
      </trkpt>
      <trkpt lat="47.439581" lon="7.667783">
        <ele>550.343534</ele>
        <time>2021-11-21T00:55:37.834Z</time>
      </trkpt>
      <trkpt lat="47.438933" lon="7.667652">
        <ele>557.159498</ele>
        <time>2021-11-21T00:56:16.147Z</time>
      </trkpt>
      <trkpt lat="47.437347" lon="7.667604">
        <ele>571.815230</ele>
        <time>2021-11-21T00:57:45.130Z</time>
      </trkpt>
      <trkpt lat="47.436461" lon="7.668064">
        <ele>579.279330</ele>
        <time>2021-11-21T00:58:25.118Z</time>
      </trkpt>
      <trkpt lat="47.436229" lon="7.668289">
        <ele>580.739493</ele>
        <time>2021-11-21T00:58:34.742Z</time>
      </trkpt>
      <trkpt lat="47.435984" lon="7.668771">
        <ele>582.259832</ele>
        <time>2021-11-21T00:58:47.042Z</time>
      </trkpt>
      <trkpt lat="47.435855" lon="7.669387">
        <ele>583.885890</ele>
        <time>2021-11-21T00:58:58.281Z</time>
      </trkpt>
      <trkpt lat="47.435863" lon="7.669933">
        <ele>585.263019</ele>
        <time>2021-11-21T00:59:06.982Z</time>
      </trkpt>
      <trkpt lat="47.435825" lon="7.670081">
        <ele>585.662201</ele>
        <time>2021-11-21T00:59:12.084Z</time>
      </trkpt>
      <trkpt lat="47.435746" lon="7.670164">
        <ele>586.023502</ele>
        <time>2021-11-21T00:59:14.411Z</time>
      </trkpt>
      <trkpt lat="47.435556" lon="7.670121">
        <ele>586.740058</ele>
        <time>2021-11-21T00:59:19.228Z</time>
      </trkpt>
      <trkpt lat="47.435461" lon="7.669917">
        <ele>587.140527</ele>
        <time>2021-11-21T00:59:24.939Z</time>
      </trkpt>
      <trkpt lat="47.435486" lon="7.669749">
        <ele>587.406190</ele>
        <time>2021-11-21T00:59:27.277Z</time>
      </trkpt>
      <trkpt lat="47.435644" lon="7.669489">
        <ele>587.945980</ele>
        <time>2021-11-21T00:59:35.056Z</time>
      </trkpt>
      <trkpt lat="47.435690" lon="7.669269">
        <ele>588.301609</ele>
        <time>2021-11-21T00:59:38.075Z</time>
      </trkpt>
      <trkpt lat="47.435627" lon="7.668716">
        <ele>589.167687</ele>
        <time>2021-11-21T00:59:48.334Z</time>
      </trkpt>
      <trkpt lat="47.435616" lon="7.668601">
        <ele>589.347059</ele>
        <time>2021-11-21T00:59:52.380Z</time>
      </trkpt>
      <trkpt lat="47.435610" lon="7.668528">
        <ele>589.460629</ele>
        <time>2021-11-21T00:59:53.777Z</time>
      </trkpt>
      <trkpt lat="47.435594" lon="7.667328">
        <ele>590.529387</ele>
        <time>2021-11-21T01:00:09.039Z</time>
      </trkpt>
      <trkpt lat="47.435317" lon="7.665781">
        <ele>588.395375</ele>
        <time>2021-11-21T01:00:20.271Z</time>
      </trkpt>
      <trkpt lat="47.435310" lon="7.665751">
        <ele>588.353056</ele>
        <time>2021-11-21T01:00:20.466Z</time>
      </trkpt>
      <trkpt lat="47.435137" lon="7.664767">
        <ele>587.316148</ele>
        <time>2021-11-21T01:00:27.731Z</time>
      </trkpt>
      <trkpt lat="47.435078" lon="7.664451">
        <ele>587.277410</ele>
        <time>2021-11-21T01:00:30.044Z</time>
      </trkpt>
      <trkpt lat="47.434962" lon="7.663801">
        <ele>587.197971</ele>
        <time>2021-11-21T01:00:35.262Z</time>
      </trkpt>
      <trkpt lat="47.434916" lon="7.663590">
        <ele>587.171774</ele>
        <time>2021-11-21T01:00:36.837Z</time>
      </trkpt>
      <trkpt lat="47.434875" lon="7.663359">
        <ele>587.143552</ele>
        <time>2021-11-21T01:00:38.859Z</time>
      </trkpt>
      <trkpt lat="47.434859" lon="7.663246">
        <ele>587.129909</ele>
        <time>2021-11-21T01:00:39.801Z</time>
      </trkpt>
      <trkpt lat="47.434872" lon="7.662857">
        <ele>587.083885</ele>
        <time>2021-11-21T01:00:46.120Z</time>
      </trkpt>
      <trkpt lat="47.434926" lon="7.662659">
        <ele>587.058657</ele>
        <time>2021-11-21T01:00:49.648Z</time>
      </trkpt>
      <trkpt lat="47.435095" lon="7.662384">
        <ele>587.242343</ele>
        <time>2021-11-21T01:00:59.497Z</time>
      </trkpt>
      <trkpt lat="47.435242" lon="7.662285">
        <ele>587.567361</ele>
        <time>2021-11-21T01:01:04.317Z</time>
      </trkpt>
      <trkpt lat="47.435304" lon="7.662258">
        <ele>587.697409</ele>
        <time>2021-11-21T01:01:06.737Z</time>
      </trkpt>
      <trkpt lat="47.435446" lon="7.662263">
        <ele>587.983203</ele>
        <time>2021-11-21T01:01:11.189Z</time>
      </trkpt>
      <trkpt lat="47.435854" lon="7.662545">
        <ele>588.889414</ele>
        <time>2021-11-21T01:01:21.731Z</time>
      </trkpt>
      <trkpt lat="47.435959" lon="7.662666">
        <ele>589.157282</ele>
        <time>2021-11-21T01:01:25.328Z</time>
      </trkpt>
      <trkpt lat="47.435991" lon="7.662704">
        <ele>589.239867</ele>
        <time>2021-11-21T01:01:26.500Z</time>
      </trkpt>
      <trkpt lat="47.436303" lon="7.662996">
        <ele>589.982848</ele>
        <time>2021-11-21T01:01:35.351Z</time>
      </trkpt>
      <trkpt lat="47.437184" lon="7.663243">
        <ele>588.234538</ele>
        <time>2021-11-21T01:01:46.755Z</time>
      </trkpt>
      <trkpt lat="47.437826" lon="7.663574">
        <ele>585.321193</ele>
        <time>2021-11-21T01:01:53.297Z</time>
      </trkpt>
      <trkpt lat="47.437907" lon="7.663616">
        <ele>584.953394</ele>
        <time>2021-11-21T01:01:54.046Z</time>
      </trkpt>
      <trkpt lat="47.438047" lon="7.663590">
        <ele>584.348802</ele>
        <time>2021-11-21T01:01:55.473Z</time>
      </trkpt>
      <trkpt lat="47.438131" lon="7.663522">
        <ele>583.938452</ele>
        <time>2021-11-21T01:01:56.423Z</time>
      </trkpt>
      <trkpt lat="47.438165" lon="7.663478">
        <ele>583.744840</ele>
        <time>2021-11-21T01:01:56.806Z</time>
      </trkpt>
      <trkpt lat="47.438254" lon="7.663292">
        <ele>583.084521</ele>
        <time>2021-11-21T01:01:58.255Z</time>
      </trkpt>
      <trkpt lat="47.438258" lon="7.662961">
        <ele>581.115692</ele>
        <time>2021-11-21T01:02:00.158Z</time>
      </trkpt>
      <trkpt lat="47.437873" lon="7.662190">
        <ele>574.919073</ele>
        <time>2021-11-21T01:02:05.906Z</time>
      </trkpt>
      <trkpt lat="47.437831" lon="7.662098">
        <ele>574.201389</ele>
        <time>2021-11-21T01:02:06.526Z</time>
      </trkpt>
      <trkpt lat="47.437630" lon="7.661733">
        <ele>571.158032</ele>
        <time>2021-11-21T01:02:09.293Z</time>
      </trkpt>
      <trkpt lat="47.437288" lon="7.661207">
        <ele>566.440370</ele>
        <time>2021-11-21T01:02:13.554Z</time>
      </trkpt>
      <trkpt lat="47.437119" lon="7.660984">
        <ele>564.751372</ele>
        <time>2021-11-21T01:02:15.552Z</time>
      </trkpt>
      <trkpt lat="47.437052" lon="7.660896">
        <ele>564.171205</ele>
        <time>2021-11-21T01:02:16.313Z</time>
      </trkpt>
      <trkpt lat="47.436880" lon="7.660682">
        <ele>562.715936</ele>
        <time>2021-11-21T01:02:18.374Z</time>
      </trkpt>
      <trkpt lat="47.436850" lon="7.660646">
        <ele>562.465808</ele>
        <time>2021-11-21T01:02:18.687Z</time>
      </trkpt>
      <trkpt lat="47.436756" lon="7.660530">
        <ele>561.673167</ele>
        <time>2021-11-21T01:02:19.741Z</time>
      </trkpt>
      <trkpt lat="47.436682" lon="7.660438">
        <ele>561.047258</ele>
        <time>2021-11-21T01:02:20.636Z</time>
      </trkpt>
      <trkpt lat="47.436598" lon="7.660334">
        <ele>560.337984</ele>
        <time>2021-11-21T01:02:21.646Z</time>
      </trkpt>
      <trkpt lat="47.436536" lon="7.660260">
        <ele>559.822153</ele>
        <time>2021-11-21T01:02:22.362Z</time>
      </trkpt>
      <trkpt lat="47.436279" lon="7.659921">
        <ele>557.592509</ele>
        <time>2021-11-21T01:02:25.614Z</time>
      </trkpt>
      <trkpt lat="47.436034" lon="7.659525">
        <ele>555.242580</ele>
        <time>2021-11-21T01:02:28.960Z</time>
      </trkpt>
      <trkpt lat="47.435801" lon="7.659142">
        <ele>553.702199</ele>
        <time>2021-11-21T01:02:32.367Z</time>
      </trkpt>
      <trkpt lat="47.435755" lon="7.659069">
        <ele>553.544234</ele>
        <time>2021-11-21T01:02:33.111Z</time>
      </trkpt>
      <trkpt lat="47.435411" lon="7.658524">
        <ele>552.363986</ele>
        <time>2021-11-21T01:02:38.263Z</time>
      </trkpt>
      <trkpt lat="47.435276" lon="7.658425">
        <ele>552.011244</ele>
        <time>2021-11-21T01:02:39.754Z</time>
      </trkpt>
      <trkpt lat="47.435002" lon="7.658396">
        <ele>551.368239</ele>
        <time>2021-11-21T01:02:42.906Z</time>
      </trkpt>
      <trkpt lat="47.434918" lon="7.658372">
        <ele>551.167979</ele>
        <time>2021-11-21T01:02:43.727Z</time>
      </trkpt>
      <trkpt lat="47.434888" lon="7.658482">
        <ele>550.980188</ele>
        <time>2021-11-21T01:02:44.885Z</time>
      </trkpt>
      <trkpt lat="47.434743" lon="7.658784">
        <ele>550.393805</ele>
        <time>2021-11-21T01:02:47.687Z</time>
      </trkpt>
      <trkpt lat="47.434694" lon="7.658816">
        <ele>550.268416</ele>
        <time>2021-11-21T01:02:48.494Z</time>
      </trkpt>
      <trkpt lat="47.434660" lon="7.658830">
        <ele>550.185802</ele>
        <time>2021-11-21T01:02:49.039Z</time>
      </trkpt>
      <trkpt lat="47.434278" lon="7.658890">
        <ele>550.402779</ele>
        <time>2021-11-21T01:02:55.038Z</time>
      </trkpt>
      <trkpt lat="47.434228" lon="7.658941">
        <ele>550.520551</ele>
        <time>2021-11-21T01:02:55.970Z</time>
      </trkpt>
      <trkpt lat="47.434200" lon="7.658986">
        <ele>550.600735</ele>
        <time>2021-11-21T01:02:56.733Z</time>
      </trkpt>
      <trkpt lat="47.434084" lon="7.659216">
        <ele>550.976978</ele>
        <time>2021-11-21T01:02:59.551Z</time>
      </trkpt>
      <trkpt lat="47.434021" lon="7.659378">
        <ele>551.222039</ele>
        <time>2021-11-21T01:03:02.672Z</time>
      </trkpt>
      <trkpt lat="47.433811" lon="7.660025">
        <ele>552.163167</ele>
        <time>2021-11-21T01:03:14.211Z</time>
      </trkpt>
      <trkpt lat="47.433783" lon="7.660107">
        <ele>552.283630</ele>
        <time>2021-11-21T01:03:16.395Z</time>
      </trkpt>
      <trkpt lat="47.433425" lon="7.661161">
        <ele>554.603922</ele>
        <time>2021-11-21T01:03:39.063Z</time>
      </trkpt>
      <trkpt lat="47.433375" lon="7.661263">
        <ele>555.055555</ele>
        <time>2021-11-21T01:03:41.751Z</time>
      </trkpt>
      <trkpt lat="47.433323" lon="7.661365">
        <ele>555.513488</ele>
        <time>2021-11-21T01:03:43.922Z</time>
      </trkpt>
      <trkpt lat="47.433245" lon="7.661519">
        <ele>556.203256</ele>
        <time>2021-11-21T01:03:48.451Z</time>
      </trkpt>
      <trkpt lat="47.433040" lon="7.661786">
        <ele>557.651359</ele>
        <time>2021-11-21T01:03:57.033Z</time>
      </trkpt>
      <trkpt lat="47.432812" lon="7.661916">
        <ele>558.946589</ele>
        <time>2021-11-21T01:04:06.480Z</time>
      </trkpt>
      <trkpt lat="47.432445" lon="7.661997">
        <ele>560.913343</ele>
        <time>2021-11-21T01:04:21.623Z</time>
      </trkpt>
      <trkpt lat="47.431859" lon="7.662126">
        <ele>564.373581</ele>
        <time>2021-11-21T01:04:46.903Z</time>
      </trkpt>
      <trkpt lat="47.431423" lon="7.662273">
        <ele>567.411568</ele>
        <time>2021-11-21T01:05:04.993Z</time>
      </trkpt>
      <trkpt lat="47.431237" lon="7.662333">
        <ele>568.704877</ele>
        <time>2021-11-21T01:05:13.881Z</time>
      </trkpt>
      <trkpt lat="47.430248" lon="7.662388">
        <ele>575.277172</ele>
        <time>2021-11-21T01:05:56.308Z</time>
      </trkpt>
      <trkpt lat="47.429735" lon="7.662451">
        <ele>576.963478</ele>
        <time>2021-11-21T01:06:16.368Z</time>
      </trkpt>
      <trkpt lat="47.429321" lon="7.662502">
        <ele>578.324385</ele>
        <time>2021-11-21T01:06:28.775Z</time>
      </trkpt>
      <trkpt lat="47.427955" lon="7.662742">
        <ele>579.763130</ele>
        <time>2021-11-21T01:06:54.530Z</time>
      </trkpt>
      <trkpt lat="47.427132" lon="7.662811">
        <ele>577.867091</ele>
        <time>2021-11-21T01:07:02.798Z</time>
      </trkpt>
      <trkpt lat="47.425818" lon="7.663438">
        <ele>573.371155</ele>
        <time>2021-11-21T01:07:15.989Z</time>
      </trkpt>
      <trkpt lat="47.425650" lon="7.663587">
        <ele>572.650158</ele>
        <time>2021-11-21T01:07:17.859Z</time>
      </trkpt>
      <trkpt lat="47.425614" lon="7.663617">
        <ele>572.498073</ele>
        <time>2021-11-21T01:07:18.281Z</time>
      </trkpt>
      <trkpt lat="47.425596" lon="7.663633">
        <ele>572.420777</ele>
        <time>2021-11-21T01:07:18.731Z</time>
      </trkpt>
      <trkpt lat="47.425207" lon="7.663976">
        <ele>570.753886</ele>
        <time>2021-11-21T01:07:23.454Z</time>
      </trkpt>
      <trkpt lat="47.424925" lon="7.664067">
        <ele>570.167244</ele>
        <time>2021-11-21T01:07:26.562Z</time>
      </trkpt>
      <trkpt lat="47.424397" lon="7.664048">
        <ele>569.815293</ele>
        <time>2021-11-21T01:07:32.689Z</time>
      </trkpt>
      <trkpt lat="47.424319" lon="7.664045">
        <ele>569.763298</ele>
        <time>2021-11-21T01:07:33.550Z</time>
      </trkpt>
      <trkpt lat="47.424143" lon="7.664043">
        <ele>569.646012</ele>
        <time>2021-11-21T01:07:36.706Z</time>
      </trkpt>
      <trkpt lat="47.424082" lon="7.664042">
        <ele>569.605361</ele>
        <time>2021-11-21T01:07:37.464Z</time>
      </trkpt>
      <trkpt lat="47.423516" lon="7.664003">
        <ele>569.227782</ele>
        <time>2021-11-21T01:07:46.258Z</time>
      </trkpt>
      <trkpt lat="47.423461" lon="7.663981">
        <ele>569.189812</ele>
        <time>2021-11-21T01:07:47.509Z</time>
      </trkpt>
      <trkpt lat="47.423339" lon="7.663911">
        <ele>569.102603</ele>
        <time>2021-11-21T01:07:49.310Z</time>
      </trkpt>
      <trkpt lat="47.423150" lon="7.663794">
        <ele>569.268644</ele>
        <time>2021-11-21T01:07:52.597Z</time>
      </trkpt>
      <trkpt lat="47.422900" lon="7.663633">
        <ele>569.597144</ele>
        <time>2021-11-21T01:07:56.870Z</time>
      </trkpt>
      <trkpt lat="47.422849" lon="7.663600">
        <ele>569.664210</ele>
        <time>2021-11-21T01:07:57.635Z</time>
      </trkpt>
      <trkpt lat="47.422767" lon="7.663553">
        <ele>569.770156</ele>
        <time>2021-11-21T01:07:59.433Z</time>
      </trkpt>
      <trkpt lat="47.422716" lon="7.663529">
        <ele>569.834630</ele>
        <time>2021-11-21T01:08:00.110Z</time>
      </trkpt>
      <trkpt lat="47.422665" lon="7.663506">
        <ele>569.898862</ele>
        <time>2021-11-21T01:08:00.920Z</time>
      </trkpt>
      <trkpt lat="47.422602" lon="7.663494">
        <ele>569.975381</ele>
        <time>2021-11-21T01:08:01.964Z</time>
      </trkpt>
      <trkpt lat="47.422573" lon="7.663490">
        <ele>570.010467</ele>
        <time>2021-11-21T01:08:02.426Z</time>
      </trkpt>
      <trkpt lat="47.422472" lon="7.663483">
        <ele>570.132267</ele>
        <time>2021-11-21T01:08:04.093Z</time>
      </trkpt>
      <trkpt lat="47.422253" lon="7.663506">
        <ele>570.396744</ele>
        <time>2021-11-21T01:08:07.903Z</time>
      </trkpt>
      <trkpt lat="47.422093" lon="7.663554">
        <ele>570.593413</ele>
        <time>2021-11-21T01:08:10.839Z</time>
      </trkpt>
      <trkpt lat="47.421833" lon="7.663646">
        <ele>570.915465</ele>
        <time>2021-11-21T01:08:15.662Z</time>
      </trkpt>
      <trkpt lat="47.420627" lon="7.664074">
        <ele>577.308872</ele>
        <time>2021-11-21T01:08:53.997Z</time>
      </trkpt>
      <trkpt lat="47.419921" lon="7.664331">
        <ele>581.855530</ele>
        <time>2021-11-21T01:09:32.891Z</time>
      </trkpt>
      <trkpt lat="47.419643" lon="7.664425">
        <ele>583.709329</ele>
        <time>2021-11-21T01:09:45.686Z</time>
      </trkpt>
      <trkpt lat="47.419634" lon="7.664478">
        <ele>583.954689</ele>
        <time>2021-11-21T01:09:49.648Z</time>
      </trkpt>
      <trkpt lat="47.419396" lon="7.664801">
        <ele>586.098981</ele>
        <time>2021-11-21T01:10:02.765Z</time>
      </trkpt>
      <trkpt lat="47.419266" lon="7.665002">
        <ele>587.347508</ele>
        <time>2021-11-21T01:10:14.472Z</time>
      </trkpt>
      <trkpt lat="47.419196" lon="7.665142">
        <ele>588.129151</ele>
        <time>2021-11-21T01:10:18.085Z</time>
      </trkpt>
      <trkpt lat="47.418855" lon="7.665888">
        <ele>592.171608</ele>
        <time>2021-11-21T01:10:44.526Z</time>
      </trkpt>
      <trkpt lat="47.418627" lon="7.666418">
        <ele>594.426790</ele>
        <time>2021-11-21T01:10:58.727Z</time>
      </trkpt>
      <trkpt lat="47.418611" lon="7.666455">
        <ele>594.427838</ele>
        <time>2021-11-21T01:10:58.989Z</time>
      </trkpt>
      <trkpt lat="47.418303" lon="7.667476">
        <ele>594.454519</ele>
        <time>2021-11-21T01:11:08.757Z</time>
      </trkpt>
      <trkpt lat="47.418241" lon="7.667681">
        <ele>594.459879</ele>
        <time>2021-11-21T01:11:10.459Z</time>
      </trkpt>
      <trkpt lat="47.417870" lon="7.668841">
        <ele>594.654932</ele>
        <time>2021-11-21T01:11:20.657Z</time>
      </trkpt>
      <trkpt lat="47.417760" lon="7.669198">
        <ele>595.132814</ele>
        <time>2021-11-21T01:11:24.544Z</time>
      </trkpt>
      <trkpt lat="47.417497" lon="7.670003">
        <ele>596.221832</ele>
        <time>2021-11-21T01:11:38.637Z</time>
      </trkpt>
      <trkpt lat="47.417012" lon="7.671293">
        <ele>597.944788</ele>
        <time>2021-11-21T01:12:06.164Z</time>
      </trkpt>
      <trkpt lat="47.416895" lon="7.671624">
        <ele>598.283916</ele>
        <time>2021-11-21T01:12:12.607Z</time>
      </trkpt>
      <trkpt lat="47.416831" lon="7.671870">
        <ele>598.523256</ele>
        <time>2021-11-21T01:12:16.693Z</time>
      </trkpt>
      <trkpt lat="47.416672" lon="7.672526">
        <ele>599.156046</ele>
        <time>2021-11-21T01:12:25.471Z</time>
      </trkpt>
      <trkpt lat="47.416570" lon="7.673050">
        <ele>599.651200</ele>
        <time>2021-11-21T01:12:31.730Z</time>
      </trkpt>
      <trkpt lat="47.416452" lon="7.673625">
        <ele>600.236626</ele>
        <time>2021-11-21T01:12:38.158Z</time>
      </trkpt>
      <trkpt lat="47.416296" lon="7.674658">
        <ele>601.863078</ele>
        <time>2021-11-21T01:12:49.230Z</time>
      </trkpt>
      <trkpt lat="47.416266" lon="7.674888">
        <ele>602.223024</ele>
        <time>2021-11-21T01:12:51.573Z</time>
      </trkpt>
      <trkpt lat="47.416245" lon="7.675042">
        <ele>602.464432</ele>
        <time>2021-11-21T01:12:55.230Z</time>
      </trkpt>
      <trkpt lat="47.416209" lon="7.675715">
        <ele>603.501853</ele>
        <time>2021-11-21T01:13:07.015Z</time>
      </trkpt>
      <trkpt lat="47.416268" lon="7.676434">
        <ele>605.403587</ele>
        <time>2021-11-21T01:13:23.158Z</time>
      </trkpt>
      <trkpt lat="47.416280" lon="7.676561">
        <ele>605.998397</ele>
        <time>2021-11-21T01:13:27.463Z</time>
      </trkpt>
      <trkpt lat="47.416423" lon="7.677757">
        <ele>611.632020</ele>
        <time>2021-11-21T01:14:06.535Z</time>
      </trkpt>
      <trkpt lat="47.416671" lon="7.678721">
        <ele>616.415814</ele>
        <time>2021-11-21T01:14:39.676Z</time>
      </trkpt>
      <trkpt lat="47.416956" lon="7.679751">
        <ele>615.091536</ele>
        <time>2021-11-21T01:15:02.685Z</time>
      </trkpt>
      <trkpt lat="47.417122" lon="7.680430">
        <ele>614.116845</ele>
        <time>2021-11-21T01:15:07.619Z</time>
      </trkpt>
      <trkpt lat="47.417419" lon="7.681674">
        <ele>607.909351</ele>
        <time>2021-11-21T01:15:15.435Z</time>
      </trkpt>
      <trkpt lat="47.417536" lon="7.682130">
        <ele>602.618919</ele>
        <time>2021-11-21T01:15:18.169Z</time>
      </trkpt>
      <trkpt lat="47.417831" lon="7.683207">
        <ele>590.014597</ele>
        <time>2021-11-21T01:15:24.628Z</time>
      </trkpt>
      <trkpt lat="47.418122" lon="7.684530">
        <ele>573.464959</ele>
        <time>2021-11-21T01:15:32.327Z</time>
      </trkpt>
      <trkpt lat="47.418224" lon="7.684834">
        <ele>569.200810</ele>
        <time>2021-11-21T01:15:34.209Z</time>
      </trkpt>
      <trkpt lat="47.418585" lon="7.685419">
        <ele>559.251214</ele>
        <time>2021-11-21T01:15:38.603Z</time>
      </trkpt>
      <trkpt lat="47.418745" lon="7.685840">
        <ele>553.183308</ele>
        <time>2021-11-21T01:15:41.287Z</time>
      </trkpt>
      <trkpt lat="47.418815" lon="7.686186">
        <ele>548.953825</ele>
        <time>2021-11-21T01:15:43.303Z</time>
      </trkpt>
      <trkpt lat="47.419003" lon="7.687403">
        <ele>535.595791</ele>
        <time>2021-11-21T01:15:50.288Z</time>
      </trkpt>
      <trkpt lat="47.419067" lon="7.687847">
        <ele>530.738006</ele>
        <time>2021-11-21T01:15:52.827Z</time>
      </trkpt>
      <trkpt lat="47.419162" lon="7.688661">
        <ele>521.966258</ele>
        <time>2021-11-21T01:15:57.481Z</time>
      </trkpt>
      <trkpt lat="47.419239" lon="7.688933">
        <ele>519.369710</ele>
        <time>2021-11-21T01:15:59.143Z</time>
      </trkpt>
      <trkpt lat="47.419320" lon="7.689282">
        <ele>516.120484</ele>
        <time>2021-11-21T01:16:01.229Z</time>
      </trkpt>
      <trkpt lat="47.419818" lon="7.690447">
        <ele>503.985134</ele>
        <time>2021-11-21T01:16:09.071Z</time>
      </trkpt>
      <trkpt lat="47.420068" lon="7.690857">
        <ele>499.124727</ele>
        <time>2021-11-21T01:16:12.210Z</time>
      </trkpt>
      <trkpt lat="47.420420" lon="7.691053">
        <ele>495.410601</ele>
        <time>2021-11-21T01:16:15.417Z</time>
      </trkpt>
      <trkpt lat="47.420520" lon="7.691185">
        <ele>494.109872</ele>
        <time>2021-11-21T01:16:16.578Z</time>
      </trkpt>
      <trkpt lat="47.420795" lon="7.691860">
        <ele>488.937961</ele>
        <time>2021-11-21T01:16:21.181Z</time>
      </trkpt>
      <trkpt lat="47.421097" lon="7.692251">
        <ele>485.043002</ele>
        <time>2021-11-21T01:16:24.669Z</time>
      </trkpt>
      <trkpt lat="47.421634" lon="7.692689">
        <ele>479.831952</ele>
        <time>2021-11-21T01:16:30.076Z</time>
      </trkpt>
      <trkpt lat="47.421819" lon="7.692972">
        <ele>478.069262</ele>
        <time>2021-11-21T01:16:32.443Z</time>
      </trkpt>
      <trkpt lat="47.421947" lon="7.693272">
        <ele>476.480568</ele>
        <time>2021-11-21T01:16:34.593Z</time>
      </trkpt>
      <trkpt lat="47.422114" lon="7.693937">
        <ele>473.303230</ele>
        <time>2021-11-21T01:16:38.940Z</time>
      </trkpt>
      <trkpt lat="47.422396" lon="7.694536">
        <ele>470.034479</ele>
        <time>2021-11-21T01:16:43.507Z</time>
      </trkpt>
      <trkpt lat="47.423013" lon="7.694976">
        <ele>467.155965</ele>
        <time>2021-11-21T01:16:50.092Z</time>
      </trkpt>
      <trkpt lat="47.423449" lon="7.695467">
        <ele>465.025185</ele>
        <time>2021-11-21T01:16:55.563Z</time>
      </trkpt>
      <trkpt lat="47.423762" lon="7.695632">
        <ele>463.733381</ele>
        <time>2021-11-21T01:16:58.989Z</time>
      </trkpt>
      <trkpt lat="47.424016" lon="7.695878">
        <ele>462.552908</ele>
        <time>2021-11-21T01:17:02.185Z</time>
      </trkpt>
      <trkpt lat="47.424900" lon="7.697003">
        <ele>457.313282</ele>
        <time>2021-11-21T01:17:13.454Z</time>
      </trkpt>
      <trkpt lat="47.425158" lon="7.697261">
        <ele>455.912785</ele>
        <time>2021-11-21T01:17:16.370Z</time>
      </trkpt>
      <trkpt lat="47.425339" lon="7.697456">
        <ele>454.905787</ele>
        <time>2021-11-21T01:17:18.438Z</time>
      </trkpt>
      <trkpt lat="47.425557" lon="7.697758">
        <ele>453.492753</ele>
        <time>2021-11-21T01:17:21.223Z</time>
      </trkpt>
      <trkpt lat="47.425781" lon="7.698040">
        <ele>452.064042</ele>
        <time>2021-11-21T01:17:23.980Z</time>
      </trkpt>
      <trkpt lat="47.425893" lon="7.698191">
        <ele>451.327962</ele>
        <time>2021-11-21T01:17:25.406Z</time>
      </trkpt>
      <trkpt lat="47.425884" lon="7.698248">
        <ele>451.135681</ele>
        <time>2021-11-21T01:17:25.758Z</time>
      </trkpt>
      <trkpt lat="47.425872" lon="7.698326">
        <ele>450.872905</ele>
        <time>2021-11-21T01:17:26.301Z</time>
      </trkpt>
      <trkpt lat="47.426150" lon="7.698478">
        <ele>449.433642</ele>
        <time>2021-11-21T01:17:29.036Z</time>
      </trkpt>
      <trkpt lat="47.426300" lon="7.698599">
        <ele>448.603890</ele>
        <time>2021-11-21T01:17:30.641Z</time>
      </trkpt>
      <trkpt lat="47.426380" lon="7.698755">
        <ele>447.960838</ele>
        <time>2021-11-21T01:17:31.878Z</time>
      </trkpt>
      <trkpt lat="47.426486" lon="7.699326">
        <ele>446.015755</ele>
        <time>2021-11-21T01:17:35.712Z</time>
      </trkpt>
      <trkpt lat="47.426614" lon="7.699686">
        <ele>445.213988</ele>
        <time>2021-11-21T01:17:38.540Z</time>
      </trkpt>
      <trkpt lat="47.426785" lon="7.699970">
        <ele>444.618750</ele>
        <time>2021-11-21T01:17:41.192Z</time>
      </trkpt>
      <trkpt lat="47.426839" lon="7.700045">
        <ele>444.447272</ele>
        <time>2021-11-21T01:17:42.052Z</time>
      </trkpt>
      <trkpt lat="47.427025" lon="7.700228">
        <ele>443.930194</ele>
        <time>2021-11-21T01:17:44.448Z</time>
      </trkpt>
      <trkpt lat="47.427200" lon="7.700373">
        <ele>443.465920</ele>
        <time>2021-11-21T01:17:46.928Z</time>
      </trkpt>
      <trkpt lat="47.427453" lon="7.700575">
        <ele>442.800472</ele>
        <time>2021-11-21T01:17:50.234Z</time>
      </trkpt>
      <trkpt lat="47.427610" lon="7.700727">
        <ele>442.366144</ele>
        <time>2021-11-21T01:17:52.335Z</time>
      </trkpt>
      <trkpt lat="47.427876" lon="7.701155">
        <ele>441.455970</ele>
        <time>2021-11-21T01:17:56.610Z</time>
      </trkpt>
      <trkpt lat="47.428025" lon="7.701397">
        <ele>440.942052</ele>
        <time>2021-11-21T01:17:59.109Z</time>
      </trkpt>
      <trkpt lat="47.428127" lon="7.701544">
        <ele>440.611333</ele>
        <time>2021-11-21T01:18:00.583Z</time>
      </trkpt>
      <trkpt lat="47.428395" lon="7.701911">
        <ele>439.763199</ele>
        <time>2021-11-21T01:18:04.408Z</time>
      </trkpt>
      <trkpt lat="47.428616" lon="7.702184">
        <ele>439.094569</ele>
        <time>2021-11-21T01:18:07.552Z</time>
      </trkpt>
      <trkpt lat="47.428931" lon="7.702542">
        <ele>438.172122</ele>
        <time>2021-11-21T01:18:11.826Z</time>
      </trkpt>
      <trkpt lat="47.429066" lon="7.702651">
        <ele>437.815008</ele>
        <time>2021-11-21T01:18:13.471Z</time>
      </trkpt>
      <trkpt lat="47.429518" lon="7.702735">
        <ele>436.535527</ele>
        <time>2021-11-21T01:18:18.333Z</time>
      </trkpt>
      <trkpt lat="47.429638" lon="7.702791">
        <ele>436.136241</ele>
        <time>2021-11-21T01:18:19.609Z</time>
      </trkpt>
      <trkpt lat="47.429706" lon="7.702845">
        <ele>435.891312</ele>
        <time>2021-11-21T01:18:20.406Z</time>
      </trkpt>
      <trkpt lat="47.429875" lon="7.703034">
        <ele>435.218898</ele>
        <time>2021-11-21T01:18:22.523Z</time>
      </trkpt>
      <trkpt lat="47.430055" lon="7.703420">
        <ele>434.212563</ele>
        <time>2021-11-21T01:18:25.756Z</time>
      </trkpt>
      <trkpt lat="47.430104" lon="7.703542">
        <ele>433.908011</ele>
        <time>2021-11-21T01:18:26.704Z</time>
      </trkpt>
      <trkpt lat="47.430128" lon="7.703597">
        <ele>433.767523</ele>
        <time>2021-11-21T01:18:27.136Z</time>
      </trkpt>
      <trkpt lat="47.430196" lon="7.703773">
        <ele>433.332463</ele>
        <time>2021-11-21T01:18:28.495Z</time>
      </trkpt>
      <trkpt lat="47.430561" lon="7.704385">
        <ele>431.588738</ele>
        <time>2021-11-21T01:18:33.981Z</time>
      </trkpt>
      <trkpt lat="47.430706" lon="7.704567">
        <ele>431.046811</ele>
        <time>2021-11-21T01:18:35.846Z</time>
      </trkpt>
      <trkpt lat="47.430768" lon="7.704645">
        <ele>430.814867</ele>
        <time>2021-11-21T01:18:36.660Z</time>
      </trkpt>
      <trkpt lat="47.431152" lon="7.704943">
        <ele>429.579279</ele>
        <time>2021-11-21T01:18:41.203Z</time>
      </trkpt>
      <trkpt lat="47.431237" lon="7.705015">
        <ele>429.300179</ele>
        <time>2021-11-21T01:18:42.253Z</time>
      </trkpt>
      <trkpt lat="47.431286" lon="7.705056">
        <ele>429.139768</ele>
        <time>2021-11-21T01:18:42.783Z</time>
      </trkpt>
      <trkpt lat="47.431446" lon="7.705407">
        <ele>428.324058</ele>
        <time>2021-11-21T01:18:45.868Z</time>
      </trkpt>
      <trkpt lat="47.431456" lon="7.705511">
        <ele>428.121610</ele>
        <time>2021-11-21T01:18:46.576Z</time>
      </trkpt>
      <trkpt lat="47.431448" lon="7.705624">
        <ele>427.902643</ele>
        <time>2021-11-21T01:18:47.356Z</time>
      </trkpt>
      <trkpt lat="47.431295" lon="7.706190">
        <ele>426.727958</ele>
        <time>2021-11-21T01:18:51.691Z</time>
      </trkpt>
      <trkpt lat="47.431256" lon="7.706292">
        <ele>426.511700</ele>
        <time>2021-11-21T01:18:52.561Z</time>
      </trkpt>
      <trkpt lat="47.431180" lon="7.706427">
        <ele>426.285287</ele>
        <time>2021-11-21T01:18:53.830Z</time>
      </trkpt>
      <trkpt lat="47.431059" lon="7.706618">
        <ele>425.947952</ele>
        <time>2021-11-21T01:18:55.678Z</time>
      </trkpt>
      <trkpt lat="47.431007" lon="7.706752">
        <ele>425.748804</ele>
        <time>2021-11-21T01:18:56.847Z</time>
      </trkpt>
      <trkpt lat="47.430982" lon="7.706822">
        <ele>425.646761</ele>
        <time>2021-11-21T01:18:57.419Z</time>
      </trkpt>
      <trkpt lat="47.430965" lon="7.706914">
        <ele>425.523816</ele>
        <time>2021-11-21T01:18:58.050Z</time>
      </trkpt>
      <trkpt lat="47.430932" lon="7.707381">
        <ele>424.918515</ele>
        <time>2021-11-21T01:19:01.776Z</time>
      </trkpt>
      <trkpt lat="47.430993" lon="7.708159">
        <ele>423.908856</ele>
        <time>2021-11-21T01:19:08.054Z</time>
      </trkpt>
      <trkpt lat="47.431014" lon="7.708349">
        <ele>423.660673</ele>
        <time>2021-11-21T01:19:09.377Z</time>
      </trkpt>
      <trkpt lat="47.431069" lon="7.708486">
        <ele>423.455304</ele>
        <time>2021-11-21T01:19:10.713Z</time>
      </trkpt>
      <trkpt lat="47.431129" lon="7.708615">
        <ele>423.253491</ele>
        <time>2021-11-21T01:19:12.141Z</time>
      </trkpt>
      <trkpt lat="47.431145" lon="7.708642">
        <ele>423.207218</ele>
        <time>2021-11-21T01:19:12.380Z</time>
      </trkpt>
      <trkpt lat="47.431218" lon="7.708768">
        <ele>422.962429</ele>
        <time>2021-11-21T01:19:13.525Z</time>
      </trkpt>
      <trkpt lat="47.431395" lon="7.709100">
        <ele>422.264336</ele>
        <time>2021-11-21T01:19:16.728Z</time>
      </trkpt>
      <trkpt lat="47.431436" lon="7.709183">
        <ele>422.094610</ele>
        <time>2021-11-21T01:19:17.399Z</time>
      </trkpt>
      <trkpt lat="47.431483" lon="7.709323">
        <ele>421.836500</ele>
        <time>2021-11-21T01:19:18.615Z</time>
      </trkpt>
      <trkpt lat="47.431522" lon="7.709503">
        <ele>421.524363</ele>
        <time>2021-11-21T01:19:20.080Z</time>
      </trkpt>
      <trkpt lat="47.431600" lon="7.709867">
        <ele>420.893795</ele>
        <time>2021-11-21T01:19:22.655Z</time>
      </trkpt>
      <trkpt lat="47.431651" lon="7.710071">
        <ele>420.534628</ele>
        <time>2021-11-21T01:19:24.230Z</time>
      </trkpt>
      <trkpt lat="47.431662" lon="7.710114">
        <ele>420.458708</ele>
        <time>2021-11-21T01:19:24.495Z</time>
      </trkpt>
      <trkpt lat="47.432119" lon="7.711341">
        <ele>418.295359</ele>
        <time>2021-11-21T01:19:34.734Z</time>
      </trkpt>
      <trkpt lat="47.432229" lon="7.711639">
        <ele>417.882894</ele>
        <time>2021-11-21T01:19:37.100Z</time>
      </trkpt>
      <trkpt lat="47.432749" lon="7.713189">
        <ele>415.780786</ele>
        <time>2021-11-21T01:19:50.402Z</time>
      </trkpt>
      <trkpt lat="47.432995" lon="7.713939">
        <ele>415.144294</ele>
        <time>2021-11-21T01:19:57.061Z</time>
      </trkpt>
      <trkpt lat="47.433065" lon="7.714138">
        <ele>415.015413</ele>
        <time>2021-11-21T01:19:58.944Z</time>
      </trkpt>
      <trkpt lat="47.433737" lon="7.716123">
        <ele>414.300515</ele>
        <time>2021-11-21T01:20:17.631Z</time>
      </trkpt>
      <trkpt lat="47.434523" lon="7.718469">
        <ele>416.941593</ele>
        <time>2021-11-21T01:20:56.605Z</time>
      </trkpt>
      <trkpt lat="47.434530" lon="7.718491">
        <ele>416.979333</ele>
        <time>2021-11-21T01:20:57.700Z</time>
      </trkpt>
      <trkpt lat="47.434654" lon="7.718874">
        <ele>417.638459</ele>
        <time>2021-11-21T01:21:05.267Z</time>
      </trkpt>
      <trkpt lat="47.434848" lon="7.719466">
        <ele>418.659586</ele>
        <time>2021-11-21T01:21:18.147Z</time>
      </trkpt>
      <trkpt lat="47.435127" lon="7.720293">
        <ele>420.094143</ele>
        <time>2021-11-21T01:21:33.215Z</time>
      </trkpt>
      <trkpt lat="47.435175" lon="7.720447">
        <ele>420.357354</ele>
        <time>2021-11-21T01:21:36.489Z</time>
      </trkpt>
      <trkpt lat="47.435558" lon="7.721586">
        <ele>418.777281</ele>
        <time>2021-11-21T01:21:48.985Z</time>
      </trkpt>
      <trkpt lat="47.436765" lon="7.725173">
        <ele>409.615414</ele>
        <time>2021-11-21T01:22:14.991Z</time>
      </trkpt>
      <trkpt lat="47.437033" lon="7.725956">
        <ele>408.973832</ele>
        <time>2021-11-21T01:22:21.550Z</time>
      </trkpt>
      <trkpt lat="47.437077" lon="7.726084">
        <ele>408.936369</ele>
        <time>2021-11-21T01:22:22.570Z</time>
      </trkpt>
      <trkpt lat="47.437210" lon="7.726504">
        <ele>408.815367</ele>
        <time>2021-11-21T01:22:26.985Z</time>
      </trkpt>
      <trkpt lat="47.437247" lon="7.726609">
        <ele>408.784475</ele>
        <time>2021-11-21T01:22:28.216Z</time>
      </trkpt>
      <trkpt lat="47.437247" lon="7.726609">
        <ele>408.784475</ele>
        <time>2021-11-21T01:22:28.218Z</time>
      </trkpt>
      <trkpt lat="47.437291" lon="7.726736">
        <ele>408.747244</ele>
        <time>2021-11-21T01:22:30.821Z</time>
      </trkpt>
      <trkpt lat="47.437400" lon="7.726969">
        <ele>408.673326</ele>
        <time>2021-11-21T01:22:35.211Z</time>
      </trkpt>
      <trkpt lat="47.437559" lon="7.727278">
        <ele>408.572023</ele>
        <time>2021-11-21T01:22:41.401Z</time>
      </trkpt>
      <trkpt lat="47.438029" lon="7.727947">
        <ele>407.513928</ele>
        <time>2021-11-21T01:22:51.643Z</time>
      </trkpt>
      <trkpt lat="47.438277" lon="7.728199">
        <ele>406.752586</ele>
        <time>2021-11-21T01:22:55.150Z</time>
      </trkpt>
      <trkpt lat="47.438420" lon="7.728330">
        <ele>406.326975</ele>
        <time>2021-11-21T01:22:58.484Z</time>
      </trkpt>
      <trkpt lat="47.438996" lon="7.728816">
        <ele>404.649089</ele>
        <time>2021-11-21T01:23:05.134Z</time>
      </trkpt>
      <trkpt lat="47.439433" lon="7.729190">
        <ele>402.501172</ele>
        <time>2021-11-21T01:23:09.693Z</time>
      </trkpt>
      <trkpt lat="47.440436" lon="7.730051">
        <ele>394.865503</ele>
        <time>2021-11-21T01:23:19.916Z</time>
      </trkpt>
      <trkpt lat="47.440666" lon="7.730243">
        <ele>393.126589</ele>
        <time>2021-11-21T01:23:22.335Z</time>
      </trkpt>
      <trkpt lat="47.441594" lon="7.731080">
        <ele>389.574225</ele>
        <time>2021-11-21T01:23:33.420Z</time>
      </trkpt>
      <trkpt lat="47.441706" lon="7.731181">
        <ele>389.220577</ele>
        <time>2021-11-21T01:23:34.958Z</time>
      </trkpt>
      <trkpt lat="47.442994" lon="7.732397">
        <ele>385.720693</ele>
        <time>2021-11-21T01:23:52.420Z</time>
      </trkpt>
      <trkpt lat="47.443020" lon="7.732425">
        <ele>385.659285</ele>
        <time>2021-11-21T01:23:52.687Z</time>
      </trkpt>
      <trkpt lat="47.443230" lon="7.732639">
        <ele>385.172373</ele>
        <time>2021-11-21T01:23:55.832Z</time>
      </trkpt>
      <trkpt lat="47.443386" lon="7.732819">
        <ele>384.794596</ele>
        <time>2021-11-21T01:23:57.903Z</time>
      </trkpt>
      <trkpt lat="47.443761" lon="7.733253">
        <ele>383.885442</ele>
        <time>2021-11-21T01:24:03.178Z</time>
      </trkpt>
      <trkpt lat="47.443863" lon="7.733374">
        <ele>383.622824</ele>
        <time>2021-11-21T01:24:04.571Z</time>
      </trkpt>
      <trkpt lat="47.443910" lon="7.733430">
        <ele>383.497953</ele>
        <time>2021-11-21T01:24:05.153Z</time>
      </trkpt>
      <trkpt lat="47.444242" lon="7.733828">
        <ele>382.613756</ele>
        <time>2021-11-21T01:24:09.786Z</time>
      </trkpt>
      <trkpt lat="47.444384" lon="7.733998">
        <ele>382.235778</ele>
        <time>2021-11-21T01:24:11.824Z</time>
      </trkpt>
      <trkpt lat="47.444690" lon="7.734364">
        <ele>381.421561</ele>
        <time>2021-11-21T01:24:16.254Z</time>
      </trkpt>
      <trkpt lat="47.444778" lon="7.734464">
        <ele>381.191960</ele>
        <time>2021-11-21T01:24:17.544Z</time>
      </trkpt>
      <trkpt lat="47.444952" lon="7.734628">
        <ele>380.765088</ele>
        <time>2021-11-21T01:24:19.746Z</time>
      </trkpt>
      <trkpt lat="47.445206" lon="7.734772">
        <ele>380.202328</ele>
        <time>2021-11-21T01:24:22.680Z</time>
      </trkpt>
      <trkpt lat="47.445351" lon="7.734812">
        <ele>379.889538</ele>
        <time>2021-11-21T01:24:24.218Z</time>
      </trkpt>
      <trkpt lat="47.445493" lon="7.734890">
        <ele>379.562287</ele>
        <time>2021-11-21T01:24:25.875Z</time>
      </trkpt>
      <trkpt lat="47.445550" lon="7.734931">
        <ele>379.425352</ele>
        <time>2021-11-21T01:24:26.557Z</time>
      </trkpt>
      <trkpt lat="47.445610" lon="7.734982">
        <ele>379.275841</ele>
        <time>2021-11-21T01:24:27.272Z</time>
      </trkpt>
      <trkpt lat="47.445804" lon="7.735171">
        <ele>378.773948</ele>
        <time>2021-11-21T01:24:29.794Z</time>
      </trkpt>
      <trkpt lat="47.446093" lon="7.735404">
        <ele>378.062838</ele>
        <time>2021-11-21T01:24:33.331Z</time>
      </trkpt>
      <trkpt lat="47.446470" lon="7.735676">
        <ele>377.156615</ele>
        <time>2021-11-21T01:24:37.874Z</time>
      </trkpt>
      <trkpt lat="47.447048" lon="7.735793">
        <ele>375.939303</ele>
        <time>2021-11-21T01:24:44.347Z</time>
      </trkpt>
      <trkpt lat="47.447629" lon="7.735983">
        <ele>374.845833</ele>
        <time>2021-11-21T01:24:50.926Z</time>
      </trkpt>
      <trkpt lat="47.447927" lon="7.736077">
        <ele>374.285894</ele>
        <time>2021-11-21T01:24:54.303Z</time>
      </trkpt>
      <trkpt lat="47.448235" lon="7.736115">
        <ele>373.717933</ele>
        <time>2021-11-21T01:24:57.819Z</time>
      </trkpt>
      <trkpt lat="47.448379" lon="7.736094">
        <ele>373.452028</ele>
        <time>2021-11-21T01:24:59.335Z</time>
      </trkpt>
      <trkpt lat="47.448379" lon="7.736094">
        <ele>373.452028</ele>
        <time>2021-11-21T01:24:59.351Z</time>
      </trkpt>
      <trkpt lat="47.448379" lon="7.736094">
        <ele>373.452028</ele>
        <time>2021-11-21T01:24:59.353Z</time>
      </trkpt>
      <trkpt lat="47.448456" lon="7.736079">
        <ele>373.309307</ele>
        <time>2021-11-21T01:25:00.319Z</time>
      </trkpt>
      <trkpt lat="47.448554" lon="7.736059">
        <ele>373.127511</ele>
        <time>2021-11-21T01:25:01.492Z</time>
      </trkpt>
      <trkpt lat="47.448658" lon="7.736045">
        <ele>372.935605</ele>
        <time>2021-11-21T01:25:02.583Z</time>
      </trkpt>
      <trkpt lat="47.448771" lon="7.736054">
        <ele>372.753757</ele>
        <time>2021-11-21T01:25:03.844Z</time>
      </trkpt>
      <trkpt lat="47.448896" lon="7.736079">
        <ele>372.561956</ele>
        <time>2021-11-21T01:25:05.388Z</time>
      </trkpt>
      <trkpt lat="47.449072" lon="7.736131">
        <ele>372.289048</ele>
        <time>2021-11-21T01:25:07.306Z</time>
      </trkpt>
      <trkpt lat="47.449300" lon="7.736166">
        <ele>371.940496</ele>
        <time>2021-11-21T01:25:10.198Z</time>
      </trkpt>
      <trkpt lat="47.449358" lon="7.736158">
        <ele>371.851921</ele>
        <time>2021-11-21T01:25:10.811Z</time>
      </trkpt>
      <trkpt lat="47.449411" lon="7.736143">
        <ele>371.769869</ele>
        <time>2021-11-21T01:25:11.359Z</time>
      </trkpt>
      <trkpt lat="47.449636" lon="7.736014">
        <ele>371.402928</ele>
        <time>2021-11-21T01:25:14.421Z</time>
      </trkpt>
      <trkpt lat="47.449876" lon="7.735764">
        <ele>370.956543</ele>
        <time>2021-11-21T01:25:17.751Z</time>
      </trkpt>
      <trkpt lat="47.449999" lon="7.735674">
        <ele>370.747870</ele>
        <time>2021-11-21T01:25:19.275Z</time>
      </trkpt>
      <trkpt lat="47.450032" lon="7.735659">
        <ele>370.695375</ele>
        <time>2021-11-21T01:25:19.627Z</time>
      </trkpt>
      <trkpt lat="47.450096" lon="7.735633">
        <ele>370.594453</ele>
        <time>2021-11-21T01:25:20.367Z</time>
      </trkpt>
      <trkpt lat="47.450162" lon="7.735630">
        <ele>370.494049</ele>
        <time>2021-11-21T01:25:21.195Z</time>
      </trkpt>
      <trkpt lat="47.450235" lon="7.735644">
        <ele>370.382118</ele>
        <time>2021-11-21T01:25:22.079Z</time>
      </trkpt>
      <trkpt lat="47.450479" lon="7.735840">
        <ele>370.057805</ele>
        <time>2021-11-21T01:25:25.220Z</time>
      </trkpt>
      <trkpt lat="47.450546" lon="7.735968">
        <ele>369.979880</ele>
        <time>2021-11-21T01:25:26.583Z</time>
      </trkpt>
      <trkpt lat="47.450604" lon="7.736062">
        <ele>369.918620</ele>
        <time>2021-11-21T01:25:27.568Z</time>
      </trkpt>
      <trkpt lat="47.450657" lon="7.736137">
        <ele>369.866396</ele>
        <time>2021-11-21T01:25:28.346Z</time>
      </trkpt>
      <trkpt lat="47.450802" lon="7.736283">
        <ele>369.741512</ele>
        <time>2021-11-21T01:25:30.543Z</time>
      </trkpt>
      <trkpt lat="47.450937" lon="7.736418">
        <ele>369.625493</ele>
        <time>2021-11-21T01:25:32.624Z</time>
      </trkpt>
      <trkpt lat="47.451089" lon="7.736610">
        <ele>369.483180</ele>
        <time>2021-11-21T01:25:35.055Z</time>
      </trkpt>
      <trkpt lat="47.451187" lon="7.736763">
        <ele>369.381727</ele>
        <time>2021-11-21T01:25:36.931Z</time>
      </trkpt>
      <trkpt lat="47.451252" lon="7.736833">
        <ele>369.324483</ele>
        <time>2021-11-21T01:25:37.907Z</time>
      </trkpt>
      <trkpt lat="47.451333" lon="7.736889">
        <ele>369.260827</ele>
        <time>2021-11-21T01:25:39.055Z</time>
      </trkpt>
      <trkpt lat="47.451595" lon="7.736972">
        <ele>369.070074</ele>
        <time>2021-11-21T01:25:42.785Z</time>
      </trkpt>
      <trkpt lat="47.451812" lon="7.737022">
        <ele>368.913725</ele>
        <time>2021-11-21T01:25:46.037Z</time>
      </trkpt>
      <trkpt lat="47.451885" lon="7.737043">
        <ele>368.865237</ele>
        <time>2021-11-21T01:25:47.276Z</time>
      </trkpt>
      <trkpt lat="47.451989" lon="7.737075">
        <ele>368.912536</ele>
        <time>2021-11-21T01:25:48.805Z</time>
      </trkpt>
      <trkpt lat="47.452126" lon="7.737138">
        <ele>368.976418</ele>
        <time>2021-11-21T01:25:51.116Z</time>
      </trkpt>
      <trkpt lat="47.452390" lon="7.737308">
        <ele>369.104628</ele>
        <time>2021-11-21T01:25:56.215Z</time>
      </trkpt>
      <trkpt lat="47.452658" lon="7.737458">
        <ele>369.232219</ele>
        <time>2021-11-21T01:26:01.193Z</time>
      </trkpt>
      <trkpt lat="47.452759" lon="7.737507">
        <ele>369.279549</ele>
        <time>2021-11-21T01:26:02.875Z</time>
      </trkpt>
      <trkpt lat="47.452831" lon="7.737536">
        <ele>369.312775</ele>
        <time>2021-11-21T01:26:03.943Z</time>
      </trkpt>
      <trkpt lat="47.452976" lon="7.737565">
        <ele>369.377926</ele>
        <time>2021-11-21T01:26:06.822Z</time>
      </trkpt>
      <trkpt lat="47.453142" lon="7.737588">
        <ele>369.452164</ele>
        <time>2021-11-21T01:26:09.505Z</time>
      </trkpt>
      <trkpt lat="47.453432" lon="7.737638">
        <ele>369.582164</ele>
        <time>2021-11-21T01:26:14.873Z</time>
      </trkpt>
      <trkpt lat="47.453609" lon="7.737683">
        <ele>369.662132</ele>
        <time>2021-11-21T01:26:17.522Z</time>
      </trkpt>
      <trkpt lat="47.453751" lon="7.737751">
        <ele>369.608095</ele>
        <time>2021-11-21T01:26:20.559Z</time>
      </trkpt>
      <trkpt lat="47.453895" lon="7.737850">
        <ele>369.546093</ele>
        <time>2021-11-21T01:26:22.433Z</time>
      </trkpt>
      <trkpt lat="47.454020" lon="7.737957">
        <ele>369.489701</ele>
        <time>2021-11-21T01:26:25.663Z</time>
      </trkpt>
      <trkpt lat="47.454162" lon="7.738085">
        <ele>369.424770</ele>
        <time>2021-11-21T01:26:27.959Z</time>
      </trkpt>
      <trkpt lat="47.454170" lon="7.738094">
        <ele>369.420846</ele>
        <time>2021-11-21T01:26:28.053Z</time>
      </trkpt>
      <trkpt lat="47.454299" lon="7.738229">
        <ele>369.359143</ele>
        <time>2021-11-21T01:26:30.888Z</time>
      </trkpt>
      <trkpt lat="47.454441" lon="7.738403">
        <ele>369.287141</ele>
        <time>2021-11-21T01:26:33.351Z</time>
      </trkpt>
      <trkpt lat="47.454485" lon="7.738456">
        <ele>369.264984</ele>
        <time>2021-11-21T01:26:33.921Z</time>
      </trkpt>
      <trkpt lat="47.454492" lon="7.738464">
        <ele>369.261530</ele>
        <time>2021-11-21T01:26:34.544Z</time>
      </trkpt>
      <trkpt lat="47.454586" lon="7.738594">
        <ele>369.211281</ele>
        <time>2021-11-21T01:26:36.553Z</time>
      </trkpt>
      <trkpt lat="47.454623" lon="7.738651">
        <ele>369.190420</ele>
        <time>2021-11-21T01:26:37.341Z</time>
      </trkpt>
      <trkpt lat="47.454843" lon="7.738950">
        <ele>369.073759</ele>
        <time>2021-11-21T01:26:40.935Z</time>
      </trkpt>
      <trkpt lat="47.454998" lon="7.739141">
        <ele>368.994985</ele>
        <time>2021-11-21T01:26:43.164Z</time>
      </trkpt>
      <trkpt lat="47.455129" lon="7.739281">
        <ele>368.786641</ele>
        <time>2021-11-21T01:26:45.225Z</time>
      </trkpt>
      <trkpt lat="47.455241" lon="7.739382">
        <ele>368.489409</ele>
        <time>2021-11-21T01:26:46.694Z</time>
      </trkpt>
      <trkpt lat="47.455373" lon="7.739473">
        <ele>368.159417</ele>
        <time>2021-11-21T01:26:48.344Z</time>
      </trkpt>
      <trkpt lat="47.455488" lon="7.739552">
        <ele>367.872106</ele>
        <time>2021-11-21T01:26:49.807Z</time>
      </trkpt>
      <trkpt lat="47.455544" lon="7.739590">
        <ele>367.732499</ele>
        <time>2021-11-21T01:26:50.495Z</time>
      </trkpt>
      <trkpt lat="47.455935" lon="7.739854">
        <ele>366.758589</ele>
        <time>2021-11-21T01:26:55.226Z</time>
      </trkpt>
      <trkpt lat="47.456226" lon="7.740188">
        <ele>365.923958</ele>
        <time>2021-11-21T01:26:59.112Z</time>
      </trkpt>
      <trkpt lat="47.456384" lon="7.740496">
        <ele>365.331646</ele>
        <time>2021-11-21T01:27:01.733Z</time>
      </trkpt>
      <trkpt lat="47.456616" lon="7.741103">
        <ele>364.245052</ele>
        <time>2021-11-21T01:27:06.525Z</time>
      </trkpt>
      <trkpt lat="47.456656" lon="7.741204">
        <ele>364.060448</ele>
        <time>2021-11-21T01:27:07.285Z</time>
      </trkpt>
      <trkpt lat="47.456807" lon="7.741596">
        <ele>363.348920</ele>
        <time>2021-11-21T01:27:10.372Z</time>
      </trkpt>
      <trkpt lat="47.456944" lon="7.741933">
        <ele>362.728757</ele>
        <time>2021-11-21T01:27:13.083Z</time>
      </trkpt>
      <trkpt lat="47.456992" lon="7.742013">
        <ele>362.560072</ele>
        <time>2021-11-21T01:27:13.900Z</time>
      </trkpt>
      <trkpt lat="47.457059" lon="7.742125">
        <ele>362.324224</ele>
        <time>2021-11-21T01:27:14.888Z</time>
      </trkpt>
      <trkpt lat="47.457044" lon="7.742183">
        <ele>362.226287</ele>
        <time>2021-11-21T01:27:15.359Z</time>
      </trkpt>
      <trkpt lat="47.457045" lon="7.742228">
        <ele>362.155278</ele>
        <time>2021-11-21T01:27:15.723Z</time>
      </trkpt>
      <trkpt lat="47.457063" lon="7.742288">
        <ele>362.051755</ele>
        <time>2021-11-21T01:27:16.220Z</time>
      </trkpt>
      <trkpt lat="47.457083" lon="7.742311">
        <ele>361.992661</ele>
        <time>2021-11-21T01:27:16.486Z</time>
      </trkpt>
      <trkpt lat="47.457196" lon="7.742292">
        <ele>361.727386</ele>
        <time>2021-11-21T01:27:18.065Z</time>
      </trkpt>
      <trkpt lat="47.457210" lon="7.742264">
        <ele>361.672464</ele>
        <time>2021-11-21T01:27:18.309Z</time>
      </trkpt>
      <trkpt lat="47.457311" lon="7.742284">
        <ele>361.434776</ele>
        <time>2021-11-21T01:27:19.364Z</time>
      </trkpt>
      <trkpt lat="47.457445" lon="7.742311">
        <ele>361.119328</ele>
        <time>2021-11-21T01:27:20.933Z</time>
      </trkpt>
      <trkpt lat="47.458000" lon="7.742302">
        <ele>360.784633</ele>
        <time>2021-11-21T01:27:28.337Z</time>
      </trkpt>
      <trkpt lat="47.458349" lon="7.742281">
        <ele>360.872429</ele>
        <time>2021-11-21T01:27:33.590Z</time>
      </trkpt>
      <trkpt lat="47.458517" lon="7.742270">
        <ele>360.914698</ele>
        <time>2021-11-21T01:27:36.803Z</time>
      </trkpt>
      <trkpt lat="47.458665" lon="7.742312">
        <ele>360.952577</ele>
        <time>2021-11-21T01:27:39.480Z</time>
      </trkpt>
      <trkpt lat="47.458962" lon="7.742321">
        <ele>361.027245</ele>
        <time>2021-11-21T01:27:44.920Z</time>
      </trkpt>
      <trkpt lat="47.459071" lon="7.742404">
        <ele>361.058061</ele>
        <time>2021-11-21T01:27:46.730Z</time>
      </trkpt>
      <trkpt lat="47.459104" lon="7.742436">
        <ele>361.067979</ele>
        <time>2021-11-21T01:27:48.147Z</time>
      </trkpt>
      <trkpt lat="47.459181" lon="7.742476">
        <ele>361.088493</ele>
        <time>2021-11-21T01:27:49.612Z</time>
      </trkpt>
      <trkpt lat="47.459214" lon="7.742435">
        <ele>361.099326</ele>
        <time>2021-11-21T01:27:50.160Z</time>
      </trkpt>
      <trkpt lat="47.459352" lon="7.742262">
        <ele>361.140047</ele>
        <time>2021-11-21T01:27:53.009Z</time>
      </trkpt>
      <trkpt lat="47.459421" lon="7.742151">
        <ele>361.081478</ele>
        <time>2021-11-21T01:27:55.516Z</time>
      </trkpt>
      <trkpt lat="47.459496" lon="7.742033">
        <ele>361.018570</ele>
        <time>2021-11-21T01:27:57.123Z</time>
      </trkpt>
      <trkpt lat="47.459941" lon="7.741395">
        <ele>360.662520</ele>
        <time>2021-11-21T01:28:06.850Z</time>
      </trkpt>
      <trkpt lat="47.459971" lon="7.741305">
        <ele>360.623544</ele>
        <time>2021-11-21T01:28:07.634Z</time>
      </trkpt>
      <trkpt lat="47.460198" lon="7.741001">
        <ele>360.447617</ele>
        <time>2021-11-21T01:28:11.366Z</time>
      </trkpt>
      <trkpt lat="47.460849" lon="7.740105">
        <ele>359.691758</ele>
        <time>2021-11-21T01:28:21.448Z</time>
      </trkpt>
      <trkpt lat="47.460986" lon="7.739937">
        <ele>359.444981</ele>
        <time>2021-11-21T01:28:23.408Z</time>
      </trkpt>
      <trkpt lat="47.461070" lon="7.739839">
        <ele>359.296626</ele>
        <time>2021-11-21T01:28:24.752Z</time>
      </trkpt>
      <trkpt lat="47.461511" lon="7.739436">
        <ele>358.577796</ele>
        <time>2021-11-21T01:28:30.667Z</time>
      </trkpt>
      <trkpt lat="47.461764" lon="7.739271">
        <ele>358.194375</ele>
        <time>2021-11-21T01:28:34.035Z</time>
      </trkpt>
      <trkpt lat="47.462058" lon="7.739121">
        <ele>357.763117</ele>
        <time>2021-11-21T01:28:37.721Z</time>
      </trkpt>
      <trkpt lat="47.462257" lon="7.739044">
        <ele>357.489670</ele>
        <time>2021-11-21T01:28:40.086Z</time>
      </trkpt>
      <trkpt lat="47.462428" lon="7.738996">
        <ele>357.268937</ele>
        <time>2021-11-21T01:28:42.329Z</time>
      </trkpt>
      <trkpt lat="47.462754" lon="7.738927">
        <ele>356.851290</ele>
        <time>2021-11-21T01:28:46.427Z</time>
      </trkpt>
      <trkpt lat="47.464246" lon="7.738800">
        <ele>354.895568</ele>
        <time>2021-11-21T01:29:03.853Z</time>
      </trkpt>
      <trkpt lat="47.464525" lon="7.738789">
        <ele>354.485152</ele>
        <time>2021-11-21T01:29:07.114Z</time>
      </trkpt>
      <trkpt lat="47.464818" lon="7.738771">
        <ele>354.053923</ele>
        <time>2021-11-21T01:29:10.520Z</time>
      </trkpt>
      <trkpt lat="47.465111" lon="7.738724">
        <ele>353.620540</ele>
        <time>2021-11-21T01:29:13.970Z</time>
      </trkpt>
      <trkpt lat="47.465278" lon="7.738667">
        <ele>353.368513</ele>
        <time>2021-11-21T01:29:15.937Z</time>
      </trkpt>
      <trkpt lat="47.466017" lon="7.738617">
        <ele>352.136084</ele>
        <time>2021-11-21T01:29:24.365Z</time>
      </trkpt>
      <trkpt lat="47.466070" lon="7.738615">
        <ele>352.030577</ele>
        <time>2021-11-21T01:29:24.964Z</time>
      </trkpt>
      <trkpt lat="47.466320" lon="7.738600">
        <ele>351.532652</ele>
        <time>2021-11-21T01:29:27.704Z</time>
      </trkpt>
      <trkpt lat="47.467080" lon="7.738726">
        <ele>350.010736</ele>
        <time>2021-11-21T01:29:36.079Z</time>
      </trkpt>
      <trkpt lat="47.467174" lon="7.738757">
        <ele>349.819078</ele>
        <time>2021-11-21T01:29:37.120Z</time>
      </trkpt>
      <trkpt lat="47.467405" lon="7.738857">
        <ele>349.340094</ele>
        <time>2021-11-21T01:29:39.713Z</time>
      </trkpt>
      <trkpt lat="47.467978" lon="7.739203">
        <ele>347.998118</ele>
        <time>2021-11-21T01:29:46.356Z</time>
      </trkpt>
      <trkpt lat="47.470256" lon="7.740990">
        <ele>342.695075</ele>
        <time>2021-11-21T01:30:14.230Z</time>
      </trkpt>
      <trkpt lat="47.470851" lon="7.741453">
        <ele>341.621026</ele>
        <time>2021-11-21T01:30:21.975Z</time>
      </trkpt>
      <trkpt lat="47.472097" lon="7.742408">
        <ele>340.784550</ele>
        <time>2021-11-21T01:30:40.533Z</time>
      </trkpt>
      <trkpt lat="47.472647" lon="7.742849">
        <ele>340.568751</ele>
        <time>2021-11-21T01:30:49.678Z</time>
      </trkpt>
      <trkpt lat="47.472975" lon="7.743113">
        <ele>340.497658</ele>
        <time>2021-11-21T01:30:54.996Z</time>
      </trkpt>
      <trkpt lat="47.473017" lon="7.743146">
        <ele>340.488604</ele>
        <time>2021-11-21T01:30:55.678Z</time>
      </trkpt>
      <trkpt lat="47.473167" lon="7.743264">
        <ele>340.456258</ele>
        <time>2021-11-21T01:30:58.118Z</time>
      </trkpt>
      <trkpt lat="47.474415" lon="7.744233">
        <ele>339.777903</ele>
        <time>2021-11-21T01:31:17.875Z</time>
      </trkpt>
      <trkpt lat="47.474802" lon="7.744534">
        <ele>339.390244</ele>
        <time>2021-11-21T01:31:23.192Z</time>
      </trkpt>
      <trkpt lat="47.474825" lon="7.744552">
        <ele>339.367174</ele>
        <time>2021-11-21T01:31:23.463Z</time>
      </trkpt>
      <trkpt lat="47.474911" lon="7.744614">
        <ele>339.282351</ele>
        <time>2021-11-21T01:31:24.474Z</time>
      </trkpt>
      <trkpt lat="47.474874" lon="7.744750">
        <ele>339.194493</ele>
        <time>2021-11-21T01:31:25.515Z</time>
      </trkpt>
      <trkpt lat="47.474864" lon="7.744784">
        <ele>339.172271</ele>
        <time>2021-11-21T01:31:26.241Z</time>
      </trkpt>
      <trkpt lat="47.474823" lon="7.744923">
        <ele>339.081383</ele>
        <time>2021-11-21T01:31:28.066Z</time>
      </trkpt>
      <trkpt lat="47.474919" lon="7.745031">
        <ele>338.974452</ele>
        <time>2021-11-21T01:31:29.266Z</time>
      </trkpt>
      <trkpt lat="47.475120" lon="7.745213">
        <ele>338.765508</ele>
        <time>2021-11-21T01:31:32.133Z</time>
      </trkpt>
      <trkpt lat="47.475272" lon="7.745333">
        <ele>338.822171</ele>
        <time>2021-11-21T01:31:33.919Z</time>
      </trkpt>
      <trkpt lat="47.475322" lon="7.745366">
        <ele>338.883505</ele>
        <time>2021-11-21T01:31:34.452Z</time>
      </trkpt>
      <trkpt lat="47.476180" lon="7.745640">
        <ele>339.866829</ele>
        <time>2021-11-21T01:31:50.901Z</time>
      </trkpt>
      <trkpt lat="47.476180" lon="7.745640">
        <ele>339.866829</ele>
        <time>2021-11-21T01:31:50.908Z</time>
      </trkpt>
      <trkpt lat="47.476292" lon="7.745741">
        <ele>340.013769</ele>
        <time>2021-11-21T01:31:54.021Z</time>
      </trkpt>
      <trkpt lat="47.476354" lon="7.745912">
        <ele>340.160700</ele>
        <time>2021-11-21T01:31:57.191Z</time>
      </trkpt>
      <trkpt lat="47.476362" lon="7.746087">
        <ele>340.293509</ele>
        <time>2021-11-21T01:31:59.800Z</time>
      </trkpt>
      <trkpt lat="47.476334" lon="7.746151">
        <ele>340.351235</ele>
        <time>2021-11-21T01:32:01.555Z</time>
      </trkpt>
      <trkpt lat="47.476298" lon="7.746210">
        <ele>340.411420</ele>
        <time>2021-11-21T01:32:03.052Z</time>
      </trkpt>
      <trkpt lat="47.476172" lon="7.746455">
        <ele>340.644526</ele>
        <time>2021-11-21T01:32:08.104Z</time>
      </trkpt>
      <trkpt lat="47.475970" lon="7.746912">
        <ele>341.135642</ele>
        <time>2021-11-21T01:32:18.601Z</time>
      </trkpt>
      <trkpt lat="47.475711" lon="7.747426">
        <ele>341.732704</ele>
        <time>2021-11-21T01:32:29.139Z</time>
      </trkpt>
      <trkpt lat="47.475491" lon="7.747847">
        <ele>342.228290</ele>
        <time>2021-11-21T01:32:36.636Z</time>
      </trkpt>
      <trkpt lat="47.475204" lon="7.748388">
        <ele>342.868772</ele>
        <time>2021-11-21T01:32:45.303Z</time>
      </trkpt>
      <trkpt lat="47.475083" lon="7.748631">
        <ele>343.149857</ele>
        <time>2021-11-21T01:32:49.206Z</time>
      </trkpt>
      <trkpt lat="47.474983" lon="7.748830">
        <ele>342.903431</ele>
        <time>2021-11-21T01:32:51.052Z</time>
      </trkpt>
      <trkpt lat="47.474890" lon="7.749015">
        <ele>342.555957</ele>
        <time>2021-11-21T01:32:53.157Z</time>
      </trkpt>
      <trkpt lat="47.474792" lon="7.749258">
        <ele>342.129494</ele>
        <time>2021-11-21T01:32:55.179Z</time>
      </trkpt>
      <trkpt lat="47.474380" lon="7.750216">
        <ele>340.418200</ele>
        <time>2021-11-21T01:33:02.936Z</time>
      </trkpt>
      <trkpt lat="47.474210" lon="7.750680">
        <ele>339.622769</ele>
        <time>2021-11-21T01:33:07.996Z</time>
      </trkpt>
      <trkpt lat="47.473427" lon="7.752386">
        <ele>338.158577</ele>
        <time>2021-11-21T01:33:30.986Z</time>
      </trkpt>
      <trkpt lat="47.473203" lon="7.752832">
        <ele>337.836085</ele>
        <time>2021-11-21T01:33:39.461Z</time>
      </trkpt>
      <trkpt lat="47.472651" lon="7.754010">
        <ele>338.345532</ele>
        <time>2021-11-21T01:34:02.288Z</time>
      </trkpt>
      <trkpt lat="47.472617" lon="7.754082">
        <ele>338.401497</ele>
        <time>2021-11-21T01:34:03.746Z</time>
      </trkpt>
      <trkpt lat="47.472425" lon="7.754488">
        <ele>338.717228</ele>
        <time>2021-11-21T01:34:11.846Z</time>
      </trkpt>
      <trkpt lat="47.472317" lon="7.754716">
        <ele>338.894631</ele>
        <time>2021-11-21T01:34:16.411Z</time>
      </trkpt>
      <trkpt lat="47.472173" lon="7.754994">
        <ele>339.117804</ele>
        <time>2021-11-21T01:34:22.137Z</time>
      </trkpt>
      <trkpt lat="47.471952" lon="7.755502">
        <ele>339.548658</ele>
        <time>2021-11-21T01:34:32.278Z</time>
      </trkpt>
      <trkpt lat="47.471870" lon="7.755689">
        <ele>339.730535</ele>
        <time>2021-11-21T01:34:36.140Z</time>
      </trkpt>
      <trkpt lat="47.471363" lon="7.756755">
        <ele>340.794080</ele>
        <time>2021-11-21T01:34:59.007Z</time>
      </trkpt>
      <trkpt lat="47.471191" lon="7.757108">
        <ele>341.149147</ele>
        <time>2021-11-21T01:35:06.476Z</time>
      </trkpt>
      <trkpt lat="47.470644" lon="7.758233">
        <ele>342.316260</ele>
        <time>2021-11-21T01:35:28.722Z</time>
      </trkpt>
      <trkpt lat="47.470419" lon="7.758788">
        <ele>342.869262</ele>
        <time>2021-11-21T01:35:39.490Z</time>
      </trkpt>
      <trkpt lat="47.470312" lon="7.758976">
        <ele>343.079269</ele>
        <time>2021-11-21T01:35:43.443Z</time>
      </trkpt>
      <trkpt lat="47.470270" lon="7.759101">
        <ele>343.198550</ele>
        <time>2021-11-21T01:35:45.874Z</time>
      </trkpt>
      <trkpt lat="47.470176" lon="7.759380">
        <ele>343.464929</ele>
        <time>2021-11-21T01:35:51.683Z</time>
      </trkpt>
      <trkpt lat="47.470133" lon="7.759528">
        <ele>343.602583</ele>
        <time>2021-11-21T01:35:54.591Z</time>
      </trkpt>
      <trkpt lat="47.470081" lon="7.759739">
        <ele>343.799008</ele>
        <time>2021-11-21T01:35:59.159Z</time>
      </trkpt>
      <trkpt lat="47.470056" lon="7.759828">
        <ele>343.916688</ele>
        <time>2021-11-21T01:36:00.752Z</time>
      </trkpt>
      <trkpt lat="47.470048" lon="7.759861">
        <ele>343.959495</ele>
        <time>2021-11-21T01:36:01.390Z</time>
      </trkpt>
      <trkpt lat="47.469993" lon="7.760086">
        <ele>344.251637</ele>
        <time>2021-11-21T01:36:05.787Z</time>
      </trkpt>
      <trkpt lat="47.469958" lon="7.760232">
        <ele>344.440785</ele>
        <time>2021-11-21T01:36:08.920Z</time>
      </trkpt>
      <trkpt lat="47.469935" lon="7.760325">
        <ele>344.561702</ele>
        <time>2021-11-21T01:36:10.562Z</time>
      </trkpt>
      <trkpt lat="47.469830" lon="7.760849">
        <ele>345.229041</ele>
        <time>2021-11-21T01:36:20.587Z</time>
      </trkpt>
      <trkpt lat="47.469785" lon="7.761099">
        <ele>345.544936</ele>
        <time>2021-11-21T01:36:25.196Z</time>
      </trkpt>
      <trkpt lat="47.469718" lon="7.761702">
        <ele>346.291098</ele>
        <time>2021-11-21T01:36:34.666Z</time>
      </trkpt>
      <trkpt lat="47.469611" lon="7.762993">
        <ele>347.443961</ele>
        <time>2021-11-21T01:36:54.447Z</time>
      </trkpt>
      <trkpt lat="47.469581" lon="7.764381">
        <ele>348.267528</ele>
        <time>2021-11-21T01:37:11.167Z</time>
      </trkpt>
      <trkpt lat="47.469603" lon="7.765259">
        <ele>348.711499</ele>
        <time>2021-11-21T01:37:19.685Z</time>
      </trkpt>
      <trkpt lat="47.469610" lon="7.765476">
        <ele>348.784459</ele>
        <time>2021-11-21T01:37:21.774Z</time>
      </trkpt>
      <trkpt lat="47.469667" lon="7.767377">
        <ele>349.423512</ele>
        <time>2021-11-21T01:37:42.259Z</time>
      </trkpt>
      <trkpt lat="47.469647" lon="7.767934">
        <ele>349.989146</ele>
        <time>2021-11-21T01:37:49.992Z</time>
      </trkpt>
      <trkpt lat="47.469432" lon="7.769397">
        <ele>352.279856</ele>
        <time>2021-11-21T01:38:15.766Z</time>
      </trkpt>
      <trkpt lat="47.469109" lon="7.770388">
        <ele>353.645183</ele>
        <time>2021-11-21T01:38:34.966Z</time>
      </trkpt>
      <trkpt lat="47.468958" lon="7.770724">
        <ele>353.756138</ele>
        <time>2021-11-21T01:38:41.357Z</time>
      </trkpt>
      <trkpt lat="47.468811" lon="7.771044">
        <ele>353.862534</ele>
        <time>2021-11-21T01:38:45.882Z</time>
      </trkpt>
      <trkpt lat="47.468805" lon="7.771183">
        <ele>353.900837</ele>
        <time>2021-11-21T01:38:47.745Z</time>
      </trkpt>
      <trkpt lat="47.468826" lon="7.771365">
        <ele>353.951610</ele>
        <time>2021-11-21T01:38:49.553Z</time>
      </trkpt>
      <trkpt lat="47.468873" lon="7.771700">
        <ele>354.045698</ele>
        <time>2021-11-21T01:38:53.295Z</time>
      </trkpt>
      <trkpt lat="47.468967" lon="7.772389">
        <ele>354.238992</ele>
        <time>2021-11-21T01:38:59.411Z</time>
      </trkpt>
      <trkpt lat="47.468989" lon="7.772749">
        <ele>354.166519</ele>
        <time>2021-11-21T01:39:02.425Z</time>
      </trkpt>
      <trkpt lat="47.468986" lon="7.773126">
        <ele>353.698730</ele>
        <time>2021-11-21T01:39:05.126Z</time>
      </trkpt>
      <trkpt lat="47.468932" lon="7.773715">
        <ele>352.961247</ele>
        <time>2021-11-21T01:39:09.299Z</time>
      </trkpt>
      <trkpt lat="47.468600" lon="7.776294">
        <ele>351.298320</ele>
        <time>2021-11-21T01:39:29.207Z</time>
      </trkpt>
      <trkpt lat="47.468501" lon="7.776957">
        <ele>351.487507</ele>
        <time>2021-11-21T01:39:37.556Z</time>
      </trkpt>
      <trkpt lat="47.468193" lon="7.778169">
        <ele>352.609278</ele>
        <time>2021-11-21T01:39:58.352Z</time>
      </trkpt>
      <trkpt lat="47.468174" lon="7.778263">
        <ele>352.842600</ele>
        <time>2021-11-21T01:40:00.570Z</time>
      </trkpt>
      <trkpt lat="47.468054" lon="7.778980">
        <ele>354.599193</ele>
        <time>2021-11-21T01:40:15.471Z</time>
      </trkpt>
      <trkpt lat="47.467858" lon="7.780201">
        <ele>357.583630</ele>
        <time>2021-11-21T01:40:41.117Z</time>
      </trkpt>
      <trkpt lat="47.467837" lon="7.780341">
        <ele>357.924666</ele>
        <time>2021-11-21T01:40:44.553Z</time>
      </trkpt>
      <trkpt lat="47.467673" lon="7.781405">
        <ele>360.109341</ele>
        <time>2021-11-21T01:41:06.713Z</time>
      </trkpt>
      <trkpt lat="47.467411" lon="7.782717">
        <ele>362.816428</ele>
        <time>2021-11-21T01:41:30.497Z</time>
      </trkpt>
      <trkpt lat="47.467374" lon="7.782864">
        <ele>363.126821</ele>
        <time>2021-11-21T01:41:32.775Z</time>
      </trkpt>
      <trkpt lat="47.467308" lon="7.783125">
        <ele>363.471316</ele>
        <time>2021-11-21T01:41:36.541Z</time>
      </trkpt>
      <trkpt lat="47.467275" lon="7.783266">
        <ele>363.586087</ele>
        <time>2021-11-21T01:41:38.770Z</time>
      </trkpt>
      <trkpt lat="47.467114" lon="7.784127">
        <ele>364.273222</ele>
        <time>2021-11-21T01:41:50.059Z</time>
      </trkpt>
      <trkpt lat="47.467074" lon="7.784580">
        <ele>364.624622</ele>
        <time>2021-11-21T01:41:55.937Z</time>
      </trkpt>
      <trkpt lat="47.467092" lon="7.784779">
        <ele>364.779053</ele>
        <time>2021-11-21T01:41:58.373Z</time>
      </trkpt>
      <trkpt lat="47.467119" lon="7.785066">
        <ele>365.001936</ele>
        <time>2021-11-21T01:42:01.989Z</time>
      </trkpt>
      <trkpt lat="47.467094" lon="7.785323">
        <ele>365.201652</ele>
        <time>2021-11-21T01:42:05.165Z</time>
      </trkpt>
      <trkpt lat="47.466956" lon="7.786579">
        <ele>366.108228</ele>
        <time>2021-11-21T01:42:20.396Z</time>
      </trkpt>
      <trkpt lat="47.466949" lon="7.786640">
        <ele>366.151493</ele>
        <time>2021-11-21T01:42:21.410Z</time>
      </trkpt>
      <trkpt lat="47.466939" lon="7.786723">
        <ele>366.210446</ele>
        <time>2021-11-21T01:42:22.509Z</time>
      </trkpt>
      <trkpt lat="47.466734" lon="7.788459">
        <ele>367.305383</ele>
        <time>2021-11-21T01:42:46.378Z</time>
      </trkpt>
      <trkpt lat="47.466719" lon="7.788592">
        <ele>367.333587</ele>
        <time>2021-11-21T01:42:47.679Z</time>
      </trkpt>
      <trkpt lat="47.466603" lon="7.789598">
        <ele>367.547053</ele>
        <time>2021-11-21T01:42:59.534Z</time>
      </trkpt>
      <trkpt lat="47.466514" lon="7.790156">
        <ele>367.666976</ele>
        <time>2021-11-21T01:43:04.945Z</time>
      </trkpt>
      <trkpt lat="47.466432" lon="7.790596">
        <ele>367.762446</ele>
        <time>2021-11-21T01:43:09.365Z</time>
      </trkpt>
      <trkpt lat="47.466412" lon="7.790700">
        <ele>367.785063</ele>
        <time>2021-11-21T01:43:10.133Z</time>
      </trkpt>
      <trkpt lat="47.466109" lon="7.792088">
        <ele>367.941020</ele>
        <time>2021-11-21T01:43:24.900Z</time>
      </trkpt>
      <trkpt lat="47.465907" lon="7.792914">
        <ele>368.029234</ele>
        <time>2021-11-21T01:43:33.309Z</time>
      </trkpt>
      <trkpt lat="47.465839" lon="7.793005">
        <ele>368.042857</ele>
        <time>2021-11-21T01:43:36.184Z</time>
      </trkpt>
      <trkpt lat="47.465607" lon="7.794086">
        <ele>368.713669</ele>
        <time>2021-11-21T01:43:54.457Z</time>
      </trkpt>
      <trkpt lat="47.465510" lon="7.794776">
        <ele>369.241351</ele>
        <time>2021-11-21T01:44:05.809Z</time>
      </trkpt>
      <trkpt lat="47.465496" lon="7.795149">
        <ele>369.521061</ele>
        <time>2021-11-21T01:44:13.056Z</time>
      </trkpt>
      <trkpt lat="47.465496" lon="7.795371">
        <ele>369.687281</ele>
        <time>2021-11-21T01:44:16.408Z</time>
      </trkpt>
      <trkpt lat="47.465480" lon="7.796373">
        <ele>370.598960</ele>
        <time>2021-11-21T01:44:33.709Z</time>
      </trkpt>
      <trkpt lat="47.465410" lon="7.796884">
        <ele>371.157119</ele>
        <time>2021-11-21T01:44:42.947Z</time>
      </trkpt>
      <trkpt lat="47.465256" lon="7.797400">
        <ele>371.760948</ele>
        <time>2021-11-21T01:44:53.091Z</time>
      </trkpt>
      <trkpt lat="47.464835" lon="7.798369">
        <ele>372.994778</ele>
        <time>2021-11-21T01:45:14.154Z</time>
      </trkpt>
      <trkpt lat="47.464712" lon="7.798976">
        <ele>373.679061</ele>
        <time>2021-11-21T01:45:26.074Z</time>
      </trkpt>
      <trkpt lat="47.464730" lon="7.799511">
        <ele>374.257498</ele>
        <time>2021-11-21T01:45:36.060Z</time>
      </trkpt>
      <trkpt lat="47.464989" lon="7.800859">
        <ele>375.770787</ele>
        <time>2021-11-21T01:46:00.657Z</time>
      </trkpt>
      <trkpt lat="47.465048" lon="7.801503">
        <ele>376.441910</ele>
        <time>2021-11-21T01:46:11.586Z</time>
      </trkpt>
      <trkpt lat="47.465028" lon="7.802107">
        <ele>377.065855</ele>
        <time>2021-11-21T01:46:23.207Z</time>
      </trkpt>
      <trkpt lat="47.464816" lon="7.803453">
        <ele>378.491835</ele>
        <time>2021-11-21T01:46:48.080Z</time>
      </trkpt>
      <trkpt lat="47.464763" lon="7.803640">
        <ele>378.559929</ele>
        <time>2021-11-21T01:46:51.771Z</time>
      </trkpt>
      <trkpt lat="47.464755" lon="7.803732">
        <ele>378.577168</ele>
        <time>2021-11-21T01:46:53.483Z</time>
      </trkpt>
      <trkpt lat="47.464724" lon="7.803957">
        <ele>378.619844</ele>
        <time>2021-11-21T01:46:56.751Z</time>
      </trkpt>
      <trkpt lat="47.464718" lon="7.804029">
        <ele>378.633326</ele>
        <time>2021-11-21T01:46:58.022Z</time>
      </trkpt>
      <trkpt lat="47.464711" lon="7.804133">
        <ele>378.652750</ele>
        <time>2021-11-21T01:46:59.856Z</time>
      </trkpt>
      <trkpt lat="47.464713" lon="7.804693">
        <ele>378.756827</ele>
        <time>2021-11-21T01:47:08.467Z</time>
      </trkpt>
      <trkpt lat="47.464714" lon="7.804918">
        <ele>378.798644</ele>
        <time>2021-11-21T01:47:11.629Z</time>
      </trkpt>
      <trkpt lat="47.464710" lon="7.804986">
        <ele>378.811329</ele>
        <time>2021-11-21T01:47:12.831Z</time>
      </trkpt>
      <trkpt lat="47.464714" lon="7.805162">
        <ele>378.844057</ele>
        <time>2021-11-21T01:47:15.234Z</time>
      </trkpt>
      <trkpt lat="47.464699" lon="7.805440">
        <ele>378.895887</ele>
        <time>2021-11-21T01:47:19.210Z</time>
      </trkpt>
      <trkpt lat="47.463946" lon="7.807355">
        <ele>378.188278</ele>
        <time>2021-11-21T01:47:45.159Z</time>
      </trkpt>
      <trkpt lat="47.463774" lon="7.807640">
        <ele>377.979662</ele>
        <time>2021-11-21T01:47:49.711Z</time>
      </trkpt>
      <trkpt lat="47.463425" lon="7.807905">
        <ele>377.662796</ele>
        <time>2021-11-21T01:47:57.004Z</time>
      </trkpt>
      <trkpt lat="47.463389" lon="7.807924">
        <ele>377.631923</ele>
        <time>2021-11-21T01:47:57.573Z</time>
      </trkpt>
      <trkpt lat="47.463328" lon="7.808001">
        <ele>377.569007</ele>
        <time>2021-11-21T01:47:59.179Z</time>
      </trkpt>
      <trkpt lat="47.463234" lon="7.808119">
        <ele>377.523182</ele>
        <time>2021-11-21T01:48:01.458Z</time>
      </trkpt>
      <trkpt lat="47.463139" lon="7.808153">
        <ele>377.486853</ele>
        <time>2021-11-21T01:48:03.001Z</time>
      </trkpt>
      <trkpt lat="47.463084" lon="7.808172">
        <ele>377.465860</ele>
        <time>2021-11-21T01:48:03.618Z</time>
      </trkpt>
      <trkpt lat="47.463004" lon="7.808201">
        <ele>377.435245</ele>
        <time>2021-11-21T01:48:04.890Z</time>
      </trkpt>
      <trkpt lat="47.462189" lon="7.808427">
        <ele>377.127043</ele>
        <time>2021-11-21T01:48:16.021Z</time>
      </trkpt>
      <trkpt lat="47.462087" lon="7.808494">
        <ele>377.085561</ele>
        <time>2021-11-21T01:48:17.920Z</time>
      </trkpt>
      <trkpt lat="47.462185" lon="7.808547">
        <ele>377.046777</ele>
        <time>2021-11-21T01:48:19.134Z</time>
      </trkpt>
      <trkpt lat="47.462494" lon="7.808803">
        <ele>376.915137</ele>
        <time>2021-11-21T01:48:24.271Z</time>
      </trkpt>
      <trkpt lat="47.462564" lon="7.808861">
        <ele>376.888161</ele>
        <time>2021-11-21T01:48:25.657Z</time>
      </trkpt>
      <trkpt lat="47.462879" lon="7.809121">
        <ele>376.776871</ele>
        <time>2021-11-21T01:48:30.612Z</time>
      </trkpt>
      <trkpt lat="47.462918" lon="7.809150">
        <ele>376.763404</ele>
        <time>2021-11-21T01:48:31.093Z</time>
      </trkpt>
      <trkpt lat="47.463007" lon="7.809215">
        <ele>376.732781</ele>
        <time>2021-11-21T01:48:32.778Z</time>
      </trkpt>
      <trkpt lat="47.463122" lon="7.809317">
        <ele>376.691412</ele>
        <time>2021-11-21T01:48:35.186Z</time>
      </trkpt>
      <trkpt lat="47.463347" lon="7.809533">
        <ele>376.608658</ele>
        <time>2021-11-21T01:48:40.600Z</time>
      </trkpt>
      <trkpt lat="47.463403" lon="7.809601">
        <ele>376.586305</ele>
        <time>2021-11-21T01:48:41.793Z</time>
      </trkpt>
      <trkpt lat="47.463603" lon="7.809961">
        <ele>376.489117</ele>
        <time>2021-11-21T01:48:47.753Z</time>
      </trkpt>
      <trkpt lat="47.463616" lon="7.809990">
        <ele>376.481860</ele>
        <time>2021-11-21T01:48:48.171Z</time>
      </trkpt>
      <trkpt lat="47.463652" lon="7.810060">
        <ele>376.463515</ele>
        <time>2021-11-21T01:48:49.316Z</time>
      </trkpt>
      <trkpt lat="47.463689" lon="7.810134">
        <ele>376.444318</ele>
        <time>2021-11-21T01:48:50.576Z</time>
      </trkpt>
      <trkpt lat="47.463753" lon="7.810251">
        <ele>376.412927</ele>
        <time>2021-11-21T01:48:52.299Z</time>
      </trkpt>
      <trkpt lat="47.463695" lon="7.810412">
        <ele>376.374877</ele>
        <time>2021-11-21T01:48:54.014Z</time>
      </trkpt>
      <trkpt lat="47.463647" lon="7.810559">
        <ele>376.347936</ele>
        <time>2021-11-21T01:48:55.595Z</time>
      </trkpt>
      <trkpt lat="47.463469" lon="7.810568">
        <ele>376.354782</ele>
        <time>2021-11-21T01:48:57.890Z</time>
      </trkpt>
      <trkpt lat="47.463301" lon="7.810602">
        <ele>376.361300</ele>
        <time>2021-11-21T01:49:00.386Z</time>
      </trkpt>
      <trkpt lat="47.463199" lon="7.810823">
        <ele>376.368254</ele>
        <time>2021-11-21T01:49:03.166Z</time>
      </trkpt>
      <trkpt lat="47.463053" lon="7.811430">
        <ele>376.384997</ele>
        <time>2021-11-21T01:49:10.234Z</time>
      </trkpt>
      <trkpt lat="47.463026" lon="7.811593">
        <ele>376.389358</ele>
        <time>2021-11-21T01:49:12.148Z</time>
      </trkpt>
      <trkpt lat="47.463020" lon="7.811691">
        <ele>376.391915</ele>
        <time>2021-11-21T01:49:13.144Z</time>
      </trkpt>
      <trkpt lat="47.462989" lon="7.811854">
        <ele>376.396315</ele>
        <time>2021-11-21T01:49:14.965Z</time>
      </trkpt>
      <trkpt lat="47.462865" lon="7.812376">
        <ele>376.410694</ele>
        <time>2021-11-21T01:49:20.895Z</time>
      </trkpt>
      <trkpt lat="47.462828" lon="7.812529">
        <ele>376.414917</ele>
        <time>2021-11-21T01:49:22.553Z</time>
      </trkpt>
      <trkpt lat="47.462817" lon="7.812574">
        <ele>376.416160</ele>
        <time>2021-11-21T01:49:23.058Z</time>
      </trkpt>
      <trkpt lat="47.462732" lon="7.812921">
        <ele>376.472279</ele>
        <time>2021-11-21T01:49:26.560Z</time>
      </trkpt>
      <trkpt lat="47.462698" lon="7.813056">
        <ele>376.494426</ele>
        <time>2021-11-21T01:49:27.891Z</time>
      </trkpt>
      <trkpt lat="47.462640" lon="7.813294">
        <ele>376.533319</ele>
        <time>2021-11-21T01:49:30.372Z</time>
      </trkpt>
      <trkpt lat="47.462613" lon="7.813401">
        <ele>376.550877</ele>
        <time>2021-11-21T01:49:31.410Z</time>
      </trkpt>
      <trkpt lat="47.462564" lon="7.813594">
        <ele>376.582571</ele>
        <time>2021-11-21T01:49:33.296Z</time>
      </trkpt>
      <trkpt lat="47.462396" lon="7.814329">
        <ele>376.701850</ele>
        <time>2021-11-21T01:49:41.634Z</time>
      </trkpt>
      <trkpt lat="47.462367" lon="7.814455">
        <ele>376.722312</ele>
        <time>2021-11-21T01:49:42.941Z</time>
      </trkpt>
      <trkpt lat="47.462241" lon="7.814875">
        <ele>376.792952</ele>
        <time>2021-11-21T01:49:48.601Z</time>
      </trkpt>
      <trkpt lat="47.462206" lon="7.814978">
        <ele>376.810674</ele>
        <time>2021-11-21T01:49:49.662Z</time>
      </trkpt>
      <trkpt lat="47.462171" lon="7.815069">
        <ele>376.829951</ele>
        <time>2021-11-21T01:49:50.792Z</time>
      </trkpt>
      <trkpt lat="47.462145" lon="7.815140">
        <ele>376.868993</ele>
        <time>2021-11-21T01:49:51.872Z</time>
      </trkpt>
      <trkpt lat="47.461994" lon="7.815782">
        <ele>377.197662</ele>
        <time>2021-11-21T01:50:00.253Z</time>
      </trkpt>
      <trkpt lat="47.461920" lon="7.816096">
        <ele>377.358448</ele>
        <time>2021-11-21T01:50:03.859Z</time>
      </trkpt>
      <trkpt lat="47.461846" lon="7.816333">
        <ele>377.484674</ele>
        <time>2021-11-21T01:50:07.538Z</time>
      </trkpt>
      <trkpt lat="47.461733" lon="7.816655">
        <ele>377.660093</ele>
        <time>2021-11-21T01:50:11.757Z</time>
      </trkpt>
      <trkpt lat="47.461538" lon="7.817207">
        <ele>377.961238</ele>
        <time>2021-11-21T01:50:19.387Z</time>
      </trkpt>
      <trkpt lat="47.461276" lon="7.818608">
        <ele>378.424114</ele>
        <time>2021-11-21T01:50:36.449Z</time>
      </trkpt>
      <trkpt lat="47.461324" lon="7.819030">
        <ele>378.541146</ele>
        <time>2021-11-21T01:50:41.049Z</time>
      </trkpt>
      <trkpt lat="47.461360" lon="7.819102">
        <ele>378.565637</ele>
        <time>2021-11-21T01:50:42.034Z</time>
      </trkpt>
      <trkpt lat="47.461404" lon="7.819154">
        <ele>378.588419</ele>
        <time>2021-11-21T01:50:42.929Z</time>
      </trkpt>
      <trkpt lat="47.461777" lon="7.819314">
        <ele>378.745518</ele>
        <time>2021-11-21T01:50:49.030Z</time>
      </trkpt>
      <trkpt lat="47.461803" lon="7.819336">
        <ele>378.757635</ele>
        <time>2021-11-21T01:50:49.332Z</time>
      </trkpt>
      <trkpt lat="47.461833" lon="7.819386">
        <ele>378.775917</ele>
        <time>2021-11-21T01:50:50.072Z</time>
      </trkpt>
      <trkpt lat="47.461832" lon="7.819582">
        <ele>378.829521</ele>
        <time>2021-11-21T01:50:52.203Z</time>
      </trkpt>
      <trkpt lat="47.461818" lon="7.819635">
        <ele>378.844741</ele>
        <time>2021-11-21T01:50:52.739Z</time>
      </trkpt>
      <trkpt lat="47.461754" lon="7.819910">
        <ele>378.919653</ele>
        <time>2021-11-21T01:50:55.858Z</time>
      </trkpt>
      <trkpt lat="47.461722" lon="7.820179">
        <ele>378.990004</ele>
        <time>2021-11-21T01:50:58.696Z</time>
      </trkpt>
      <trkpt lat="47.461730" lon="7.820282">
        <ele>379.016709</ele>
        <time>2021-11-21T01:50:59.859Z</time>
      </trkpt>
      <trkpt lat="47.461748" lon="7.820387">
        <ele>379.044610</ele>
        <time>2021-11-21T01:51:00.909Z</time>
      </trkpt>
      <trkpt lat="47.461966" lon="7.821681">
        <ele>379.388100</ele>
        <time>2021-11-21T01:51:15.412Z</time>
      </trkpt>
      <trkpt lat="47.461985" lon="7.821867">
        <ele>379.436552</ele>
        <time>2021-11-21T01:51:18.113Z</time>
      </trkpt>
      <trkpt lat="47.461990" lon="7.821930">
        <ele>379.452890</ele>
        <time>2021-11-21T01:51:19.112Z</time>
      </trkpt>
      <trkpt lat="47.462122" lon="7.824085">
        <ele>380.120116</ele>
        <time>2021-11-21T01:51:43.809Z</time>
      </trkpt>
      <trkpt lat="47.462104" lon="7.824385">
        <ele>380.215240</ele>
        <time>2021-11-21T01:51:46.955Z</time>
      </trkpt>
      <trkpt lat="47.462075" lon="7.824560">
        <ele>380.272147</ele>
        <time>2021-11-21T01:51:48.844Z</time>
      </trkpt>
      <trkpt lat="47.462041" lon="7.824554">
        <ele>380.288143</ele>
        <time>2021-11-21T01:51:49.432Z</time>
      </trkpt>
      <trkpt lat="47.461981" lon="7.824592">
        <ele>380.318634</ele>
        <time>2021-11-21T01:51:50.416Z</time>
      </trkpt>
      <trkpt lat="47.461961" lon="7.824632">
        <ele>380.334347</ele>
        <time>2021-11-21T01:51:51.051Z</time>
      </trkpt>
      <trkpt lat="47.461951" lon="7.824677">
        <ele>380.349308</ele>
        <time>2021-11-21T01:51:51.437Z</time>
      </trkpt>
      <trkpt lat="47.461983" lon="7.824803">
        <ele>380.402578</ele>
        <time>2021-11-21T01:51:53.046Z</time>
      </trkpt>
      <trkpt lat="47.462009" lon="7.824828">
        <ele>380.422817</ele>
        <time>2021-11-21T01:51:53.481Z</time>
      </trkpt>
      <trkpt lat="47.462048" lon="7.824839">
        <ele>380.448728</ele>
        <time>2021-11-21T01:51:54.062Z</time>
      </trkpt>
      <trkpt lat="47.462087" lon="7.824826">
        <ele>380.474818</ele>
        <time>2021-11-21T01:51:54.755Z</time>
      </trkpt>
      <trkpt lat="47.462119" lon="7.824792">
        <ele>380.500531</ele>
        <time>2021-11-21T01:51:55.397Z</time>
      </trkpt>
      <trkpt lat="47.462172" lon="7.824876">
        <ele>380.551227</ele>
        <time>2021-11-21T01:51:56.694Z</time>
      </trkpt>
      <trkpt lat="47.462220" lon="7.824965">
        <ele>380.601460</ele>
        <time>2021-11-21T01:51:57.848Z</time>
      </trkpt>
      <trkpt lat="47.462266" lon="7.825058">
        <ele>380.652302</ele>
        <time>2021-11-21T01:51:59.238Z</time>
      </trkpt>
      <trkpt lat="47.462323" lon="7.825177">
        <ele>380.716650</ele>
        <time>2021-11-21T01:52:00.891Z</time>
      </trkpt>
      <trkpt lat="47.462301" lon="7.825212">
        <ele>380.737736</ele>
        <time>2021-11-21T01:52:01.425Z</time>
      </trkpt>
      <trkpt lat="47.462295" lon="7.825350">
        <ele>380.798750</ele>
        <time>2021-11-21T01:52:03.041Z</time>
      </trkpt>
      <trkpt lat="47.462312" lon="7.825390">
        <ele>380.819596</ele>
        <time>2021-11-21T01:52:03.467Z</time>
      </trkpt>
      <trkpt lat="47.462244" lon="7.825463">
        <ele>380.874431</ele>
        <time>2021-11-21T01:52:05.094Z</time>
      </trkpt>
      <trkpt lat="47.462057" lon="7.825761">
        <ele>381.053824</ele>
        <time>2021-11-21T01:52:09.681Z</time>
      </trkpt>
      <trkpt lat="47.461963" lon="7.826038">
        <ele>381.190574</ele>
        <time>2021-11-21T01:52:13.492Z</time>
      </trkpt>
      <trkpt lat="47.461900" lon="7.826316">
        <ele>381.319942</ele>
        <time>2021-11-21T01:52:16.982Z</time>
      </trkpt>
      <trkpt lat="47.461850" lon="7.826816">
        <ele>381.549536</ele>
        <time>2021-11-21T01:52:22.820Z</time>
      </trkpt>
      <trkpt lat="47.461804" lon="7.827389">
        <ele>382.184332</ele>
        <time>2021-11-21T01:52:30.920Z</time>
      </trkpt>
      <trkpt lat="47.461536" lon="7.829345">
        <ele>384.379911</ele>
        <time>2021-11-21T01:53:00.947Z</time>
      </trkpt>
      <trkpt lat="47.461525" lon="7.829524">
        <ele>384.554399</ele>
        <time>2021-11-21T01:53:04.015Z</time>
      </trkpt>
      <trkpt lat="47.461539" lon="7.829782">
        <ele>384.780231</ele>
        <time>2021-11-21T01:53:07.430Z</time>
      </trkpt>
      <trkpt lat="47.461548" lon="7.829918">
        <ele>384.899460</ele>
        <time>2021-11-21T01:53:09.385Z</time>
      </trkpt>
      <trkpt lat="47.461585" lon="7.830158">
        <ele>385.114237</ele>
        <time>2021-11-21T01:53:13.066Z</time>
      </trkpt>
      <trkpt lat="47.461787" lon="7.831158">
        <ele>386.024858</ele>
        <time>2021-11-21T01:53:26.960Z</time>
      </trkpt>
      <trkpt lat="47.461918" lon="7.831668">
        <ele>386.500869</ele>
        <time>2021-11-21T01:53:33.984Z</time>
      </trkpt>
      <trkpt lat="47.462048" lon="7.832204">
        <ele>386.931380</ele>
        <time>2021-11-21T01:53:41.021Z</time>
      </trkpt>
      <trkpt lat="47.462080" lon="7.832335">
        <ele>387.014742</ele>
        <time>2021-11-21T01:53:42.651Z</time>
      </trkpt>
      <trkpt lat="47.462179" lon="7.832744">
        <ele>387.274737</ele>
        <time>2021-11-21T01:53:47.850Z</time>
      </trkpt>
      <trkpt lat="47.462217" lon="7.832953">
        <ele>387.404264</ele>
        <time>2021-11-21T01:53:50.695Z</time>
      </trkpt>
      <trkpt lat="47.462285" lon="7.833721">
        <ele>387.867823</ele>
        <time>2021-11-21T01:54:00.201Z</time>
      </trkpt>
      <trkpt lat="47.462296" lon="7.833933">
        <ele>387.995074</ele>
        <time>2021-11-21T01:54:03.149Z</time>
      </trkpt>
      <trkpt lat="47.462317" lon="7.834216">
        <ele>388.165461</ele>
        <time>2021-11-21T01:54:06.660Z</time>
      </trkpt>
      <trkpt lat="47.462357" lon="7.834782">
        <ele>388.519646</ele>
        <time>2021-11-21T01:54:13.421Z</time>
      </trkpt>
      <trkpt lat="47.462375" lon="7.834910">
        <ele>388.606248</ele>
        <time>2021-11-21T01:54:15.205Z</time>
      </trkpt>
      <trkpt lat="47.462388" lon="7.834991">
        <ele>388.661393</ele>
        <time>2021-11-21T01:54:16.235Z</time>
      </trkpt>
      <trkpt lat="47.462586" lon="7.835900">
        <ele>389.293993</ele>
        <time>2021-11-21T01:54:27.383Z</time>
      </trkpt>
      <trkpt lat="47.462666" lon="7.836201">
        <ele>389.508228</ele>
        <time>2021-11-21T01:54:31.494Z</time>
      </trkpt>
      <trkpt lat="47.462700" lon="7.836337">
        <ele>389.604276</ele>
        <time>2021-11-21T01:54:33.367Z</time>
      </trkpt>
      <trkpt lat="47.462730" lon="7.836472">
        <ele>389.698406</ele>
        <time>2021-11-21T01:54:35.089Z</time>
      </trkpt>
      <trkpt lat="47.462748" lon="7.836556">
        <ele>389.756775</ele>
        <time>2021-11-21T01:54:35.977Z</time>
      </trkpt>
      <trkpt lat="47.462851" lon="7.837404">
        <ele>390.342907</ele>
        <time>2021-11-21T01:54:48.589Z</time>
      </trkpt>
      <trkpt lat="47.462856" lon="7.837506">
        <ele>390.416252</ele>
        <time>2021-11-21T01:54:50.481Z</time>
      </trkpt>
      <trkpt lat="47.462865" lon="7.837711">
        <ele>390.563585</ele>
        <time>2021-11-21T01:54:52.889Z</time>
      </trkpt>
      <trkpt lat="47.462869" lon="7.837866">
        <ele>390.674829</ele>
        <time>2021-11-21T01:54:54.846Z</time>
      </trkpt>
      <trkpt lat="47.462871" lon="7.837954">
        <ele>390.737977</ele>
        <time>2021-11-21T01:54:56.375Z</time>
      </trkpt>
      <trkpt lat="47.462873" lon="7.838016">
        <ele>390.782494</ele>
        <time>2021-11-21T01:54:57.417Z</time>
      </trkpt>
      <trkpt lat="47.462883" lon="7.838488">
        <ele>391.121172</ele>
        <time>2021-11-21T01:55:03.551Z</time>
      </trkpt>
      <trkpt lat="47.462936" lon="7.838934">
        <ele>391.445940</ele>
        <time>2021-11-21T01:55:08.893Z</time>
      </trkpt>
      <trkpt lat="47.462967" lon="7.839047">
        <ele>391.533400</ele>
        <time>2021-11-21T01:55:10.591Z</time>
      </trkpt>
      <trkpt lat="47.462982" lon="7.839106">
        <ele>391.578607</ele>
        <time>2021-11-21T01:55:11.529Z</time>
      </trkpt>
      <trkpt lat="47.463043" lon="7.839292">
        <ele>391.726870</ele>
        <time>2021-11-21T01:55:13.345Z</time>
      </trkpt>
      <trkpt lat="47.463133" lon="7.839561">
        <ele>391.942124</ele>
        <time>2021-11-21T01:55:17.251Z</time>
      </trkpt>
      <trkpt lat="47.463287" lon="7.840028">
        <ele>392.026271</ele>
        <time>2021-11-21T01:55:23.286Z</time>
      </trkpt>
      <trkpt lat="47.463588" lon="7.840904">
        <ele>391.965967</ele>
        <time>2021-11-21T01:55:34.581Z</time>
      </trkpt>
      <trkpt lat="47.463616" lon="7.840992">
        <ele>391.959998</ele>
        <time>2021-11-21T01:55:35.660Z</time>
      </trkpt>
      <trkpt lat="47.463685" lon="7.841203">
        <ele>391.945614</ele>
        <time>2021-11-21T01:55:37.602Z</time>
      </trkpt>
      <trkpt lat="47.463874" lon="7.841863">
        <ele>391.901627</ele>
        <time>2021-11-21T01:55:43.891Z</time>
      </trkpt>
      <trkpt lat="47.463922" lon="7.842123">
        <ele>391.885148</ele>
        <time>2021-11-21T01:55:45.874Z</time>
      </trkpt>
      <trkpt lat="47.463971" lon="7.842355">
        <ele>391.871625</ele>
        <time>2021-11-21T01:55:48.438Z</time>
      </trkpt>
      <trkpt lat="47.464053" lon="7.842690">
        <ele>391.851803</ele>
        <time>2021-11-21T01:55:51.238Z</time>
      </trkpt>
      <trkpt lat="47.464075" lon="7.842774">
        <ele>391.846791</ele>
        <time>2021-11-21T01:55:52.436Z</time>
      </trkpt>
      <trkpt lat="47.464165" lon="7.843130">
        <ele>391.825645</ele>
        <time>2021-11-21T01:55:55.562Z</time>
      </trkpt>
      <trkpt lat="47.464176" lon="7.843178">
        <ele>391.822826</ele>
        <time>2021-11-21T01:55:56.047Z</time>
      </trkpt>
      <trkpt lat="47.464234" lon="7.843434">
        <ele>391.807804</ele>
        <time>2021-11-21T01:55:59.110Z</time>
      </trkpt>
      <trkpt lat="47.464354" lon="7.843960">
        <ele>391.776919</ele>
        <time>2021-11-21T01:56:05.127Z</time>
      </trkpt>
      <trkpt lat="47.464386" lon="7.844088">
        <ele>391.769326</ele>
        <time>2021-11-21T01:56:06.470Z</time>
      </trkpt>
      <trkpt lat="47.464433" lon="7.844273">
        <ele>391.758330</ele>
        <time>2021-11-21T01:56:08.954Z</time>
      </trkpt>
      <trkpt lat="47.464585" lon="7.844988">
        <ele>391.972814</ele>
        <time>2021-11-21T01:56:17.466Z</time>
      </trkpt>
      <trkpt lat="47.464737" lon="7.846119">
        <ele>392.687947</ele>
        <time>2021-11-21T01:56:31.575Z</time>
      </trkpt>
      <trkpt lat="47.464771" lon="7.847028">
        <ele>393.252540</ele>
        <time>2021-11-21T01:56:43.685Z</time>
      </trkpt>
      <trkpt lat="47.464784" lon="7.847333">
        <ele>393.466717</ele>
        <time>2021-11-21T01:56:47.666Z</time>
      </trkpt>
      <trkpt lat="47.464820" lon="7.847644">
        <ele>393.751117</ele>
        <time>2021-11-21T01:56:51.936Z</time>
      </trkpt>
      <trkpt lat="47.464850" lon="7.847870">
        <ele>393.958712</ele>
        <time>2021-11-21T01:56:54.853Z</time>
      </trkpt>
      <trkpt lat="47.464909" lon="7.848219">
        <ele>394.282970</ele>
        <time>2021-11-21T01:56:59.919Z</time>
      </trkpt>
      <trkpt lat="47.464952" lon="7.848443">
        <ele>394.492855</ele>
        <time>2021-11-21T01:57:03.107Z</time>
      </trkpt>
      <trkpt lat="47.465152" lon="7.849351">
        <ele>395.353624</ele>
        <time>2021-11-21T01:57:16.364Z</time>
      </trkpt>
      <trkpt lat="47.465348" lon="7.849875">
        <ele>395.879830</ele>
        <time>2021-11-21T01:57:24.589Z</time>
      </trkpt>
      <trkpt lat="47.465558" lon="7.850405">
        <ele>396.363707</ele>
        <time>2021-11-21T01:57:32.891Z</time>
      </trkpt>
      <trkpt lat="47.465620" lon="7.850585">
        <ele>396.522827</ele>
        <time>2021-11-21T01:57:35.495Z</time>
      </trkpt>
      <trkpt lat="47.465693" lon="7.850845">
        <ele>396.744577</ele>
        <time>2021-11-21T01:57:39.057Z</time>
      </trkpt>
      <trkpt lat="47.465714" lon="7.850917">
        <ele>396.806341</ele>
        <time>2021-11-21T01:57:40.135Z</time>
      </trkpt>
      <trkpt lat="47.465829" lon="7.851383">
        <ele>397.197079</ele>
        <time>2021-11-21T01:57:46.495Z</time>
      </trkpt>
      <trkpt lat="47.465804" lon="7.851399">
        <ele>397.228816</ele>
        <time>2021-11-21T01:57:47.052Z</time>
      </trkpt>
      <trkpt lat="47.465765" lon="7.851501">
        <ele>397.321116</ele>
        <time>2021-11-21T01:57:48.532Z</time>
      </trkpt>
      <trkpt lat="47.465770" lon="7.851542">
        <ele>397.353932</ele>
        <time>2021-11-21T01:57:49.083Z</time>
      </trkpt>
      <trkpt lat="47.465781" lon="7.851575">
        <ele>397.382912</ele>
        <time>2021-11-21T01:57:49.563Z</time>
      </trkpt>
      <trkpt lat="47.465821" lon="7.851619">
        <ele>397.440990</ele>
        <time>2021-11-21T01:57:50.470Z</time>
      </trkpt>
      <trkpt lat="47.465846" lon="7.851625">
        <ele>397.470499</ele>
        <time>2021-11-21T01:57:50.950Z</time>
      </trkpt>
      <trkpt lat="47.465871" lon="7.851620">
        <ele>397.499892</ele>
        <time>2021-11-21T01:57:51.401Z</time>
      </trkpt>
      <trkpt lat="47.465906" lon="7.851776">
        <ele>397.629356</ele>
        <time>2021-11-21T01:57:53.628Z</time>
      </trkpt>
      <trkpt lat="47.466256" lon="7.853287">
        <ele>399.083474</ele>
        <time>2021-11-21T01:58:14.783Z</time>
      </trkpt>
      <trkpt lat="47.466331" lon="7.853936">
        <ele>399.703138</ele>
        <time>2021-11-21T01:58:24.309Z</time>
      </trkpt>
      <trkpt lat="47.466338" lon="7.854554">
        <ele>400.284848</ele>
        <time>2021-11-21T01:58:32.877Z</time>
      </trkpt>
      <trkpt lat="47.466332" lon="7.854775">
        <ele>400.510748</ele>
        <time>2021-11-21T01:58:36.053Z</time>
      </trkpt>
      <trkpt lat="47.466324" lon="7.855062">
        <ele>400.825671</ele>
        <time>2021-11-21T01:58:40.317Z</time>
      </trkpt>
      <trkpt lat="47.466298" lon="7.855895">
        <ele>401.739911</ele>
        <time>2021-11-21T01:58:52.497Z</time>
      </trkpt>
      <trkpt lat="47.466295" lon="7.856234">
        <ele>402.111609</ele>
        <time>2021-11-21T01:58:57.730Z</time>
      </trkpt>
      <trkpt lat="47.466298" lon="7.856354">
        <ele>402.243262</ele>
        <time>2021-11-21T01:58:59.407Z</time>
      </trkpt>
      <trkpt lat="47.466271" lon="7.856363">
        <ele>402.288148</ele>
        <time>2021-11-21T01:59:00.009Z</time>
      </trkpt>
      <trkpt lat="47.466237" lon="7.856421">
        <ele>402.372314</ele>
        <time>2021-11-21T01:59:01.045Z</time>
      </trkpt>
      <trkpt lat="47.466235" lon="7.856461">
        <ele>402.416289</ele>
        <time>2021-11-21T01:59:01.563Z</time>
      </trkpt>
      <trkpt lat="47.466243" lon="7.856497">
        <ele>402.457835</ele>
        <time>2021-11-21T01:59:02.205Z</time>
      </trkpt>
      <trkpt lat="47.466284" lon="7.856540">
        <ele>402.539345</ele>
        <time>2021-11-21T01:59:03.359Z</time>
      </trkpt>
      <trkpt lat="47.466310" lon="7.856541">
        <ele>402.581525</ele>
        <time>2021-11-21T01:59:03.901Z</time>
      </trkpt>
      <trkpt lat="47.466322" lon="7.856655">
        <ele>402.708017</ele>
        <time>2021-11-21T01:59:05.675Z</time>
      </trkpt>
      <trkpt lat="47.466344" lon="7.856945">
        <ele>403.027956</ele>
        <time>2021-11-21T01:59:09.451Z</time>
      </trkpt>
      <trkpt lat="47.466347" lon="7.856973">
        <ele>403.059037</ele>
        <time>2021-11-21T01:59:10.118Z</time>
      </trkpt>
      <trkpt lat="47.466518" lon="7.858022">
        <ele>403.936701</ele>
        <time>2021-11-21T01:59:24.721Z</time>
      </trkpt>
      <trkpt lat="47.466576" lon="7.858236">
        <ele>404.107324</ele>
        <time>2021-11-21T01:59:27.644Z</time>
      </trkpt>
      <trkpt lat="47.466673" lon="7.858620">
        <ele>404.410690</ele>
        <time>2021-11-21T01:59:34.278Z</time>
      </trkpt>
      <trkpt lat="47.466824" lon="7.859137">
        <ele>404.827472</ele>
        <time>2021-11-21T01:59:43.637Z</time>
      </trkpt>
      <trkpt lat="47.466922" lon="7.859398">
        <ele>405.048415</ele>
        <time>2021-11-21T01:59:48.185Z</time>
      </trkpt>
      <trkpt lat="47.467047" lon="7.859682">
        <ele>405.296620</ele>
        <time>2021-11-21T01:59:53.780Z</time>
      </trkpt>
      <trkpt lat="47.467266" lon="7.860107">
        <ele>405.655271</ele>
        <time>2021-11-21T02:00:02.635Z</time>
      </trkpt>
      <trkpt lat="47.467944" lon="7.861300">
        <ele>406.701284</ele>
        <time>2021-11-21T02:00:27.353Z</time>
      </trkpt>
      <trkpt lat="47.468224" lon="7.861805">
        <ele>407.196123</ele>
        <time>2021-11-21T02:00:38.670Z</time>
      </trkpt>
      <trkpt lat="47.468543" lon="7.862357">
        <ele>408.017218</ele>
        <time>2021-11-21T02:00:51.358Z</time>
      </trkpt>
      <trkpt lat="47.468825" lon="7.862900">
        <ele>408.791419</ele>
        <time>2021-11-21T02:01:04.002Z</time>
      </trkpt>
      <trkpt lat="47.468859" lon="7.862978">
        <ele>408.896354</ele>
        <time>2021-11-21T02:01:05.802Z</time>
      </trkpt>
      <trkpt lat="47.468943" lon="7.863195">
        <ele>409.179081</ele>
        <time>2021-11-21T02:01:10.304Z</time>
      </trkpt>
      <trkpt lat="47.468986" lon="7.863323">
        <ele>409.340689</ele>
        <time>2021-11-21T02:01:12.972Z</time>
      </trkpt>
      <trkpt lat="47.469011" lon="7.863405">
        <ele>409.442394</ele>
        <time>2021-11-21T02:01:15.110Z</time>
      </trkpt>
      <trkpt lat="47.469305" lon="7.864692">
        <ele>410.915976</ele>
        <time>2021-11-21T02:01:40.263Z</time>
      </trkpt>
      <trkpt lat="47.469629" lon="7.865918">
        <ele>412.302584</ele>
        <time>2021-11-21T02:02:04.277Z</time>
      </trkpt>
      <trkpt lat="47.469710" lon="7.866208">
        <ele>412.633108</ele>
        <time>2021-11-21T02:02:09.258Z</time>
      </trkpt>
      <trkpt lat="47.469764" lon="7.866452">
        <ele>412.884350</ele>
        <time>2021-11-21T02:02:13.559Z</time>
      </trkpt>
      <trkpt lat="47.469808" lon="7.866690">
        <ele>413.002970</ele>
        <time>2021-11-21T02:02:17.413Z</time>
      </trkpt>
      <trkpt lat="47.469915" lon="7.867494">
        <ele>413.396912</ele>
        <time>2021-11-21T02:02:30.578Z</time>
      </trkpt>
      <trkpt lat="47.470127" lon="7.868484">
        <ele>413.896162</ele>
        <time>2021-11-21T02:02:45.973Z</time>
      </trkpt>
      <trkpt lat="47.470234" lon="7.868884">
        <ele>414.102970</ele>
        <time>2021-11-21T02:02:52.399Z</time>
      </trkpt>
      <trkpt lat="47.470309" lon="7.869201">
        <ele>414.351664</ele>
        <time>2021-11-21T02:02:57.769Z</time>
      </trkpt>
      <trkpt lat="47.470378" lon="7.869626">
        <ele>414.718423</ele>
        <time>2021-11-21T02:03:04.537Z</time>
      </trkpt>
      <trkpt lat="47.470397" lon="7.870147">
        <ele>415.156228</ele>
        <time>2021-11-21T02:03:13.270Z</time>
      </trkpt>
      <trkpt lat="47.470379" lon="7.870338">
        <ele>415.318046</ele>
        <time>2021-11-21T02:03:16.817Z</time>
      </trkpt>
      <trkpt lat="47.470350" lon="7.870570">
        <ele>415.516017</ele>
        <time>2021-11-21T02:03:19.736Z</time>
      </trkpt>
      <trkpt lat="47.470333" lon="7.870669">
        <ele>415.601726</ele>
        <time>2021-11-21T02:03:21.205Z</time>
      </trkpt>
      <trkpt lat="47.470316" lon="7.870753">
        <ele>415.675302</ele>
        <time>2021-11-21T02:03:22.715Z</time>
      </trkpt>
      <trkpt lat="47.470245" lon="7.871088">
        <ele>415.969893</ele>
        <time>2021-11-21T02:03:27.230Z</time>
      </trkpt>
      <trkpt lat="47.470217" lon="7.871214">
        <ele>416.081186</ele>
        <time>2021-11-21T02:03:29.260Z</time>
      </trkpt>
      <trkpt lat="47.470156" lon="7.871491">
        <ele>416.325640</ele>
        <time>2021-11-21T02:03:33.722Z</time>
      </trkpt>
      <trkpt lat="47.469969" lon="7.872276">
        <ele>417.320127</ele>
        <time>2021-11-21T02:03:46.079Z</time>
      </trkpt>
      <trkpt lat="47.469710" lon="7.873249">
        <ele>418.601064</ele>
        <time>2021-11-21T02:04:01.326Z</time>
      </trkpt>
      <trkpt lat="47.469682" lon="7.873326">
        <ele>418.708165</ele>
        <time>2021-11-21T02:04:03.103Z</time>
      </trkpt>
      <trkpt lat="47.469626" lon="7.873477">
        <ele>418.919138</ele>
        <time>2021-11-21T02:04:05.541Z</time>
      </trkpt>
      <trkpt lat="47.469489" lon="7.873809">
        <ele>419.395604</ele>
        <time>2021-11-21T02:04:11.570Z</time>
      </trkpt>
      <trkpt lat="47.469422" lon="7.873965">
        <ele>419.622002</ele>
        <time>2021-11-21T02:04:14.172Z</time>
      </trkpt>
      <trkpt lat="47.469224" lon="7.874328">
        <ele>420.445622</ele>
        <time>2021-11-21T02:04:21.449Z</time>
      </trkpt>
      <trkpt lat="47.469173" lon="7.874432">
        <ele>420.674677</ele>
        <time>2021-11-21T02:04:23.133Z</time>
      </trkpt>
      <trkpt lat="47.469136" lon="7.874516">
        <ele>420.853415</ele>
        <time>2021-11-21T02:04:24.627Z</time>
      </trkpt>
      <trkpt lat="47.469097" lon="7.874606">
        <ele>421.044000</ele>
        <time>2021-11-21T02:04:26.472Z</time>
      </trkpt>
      <trkpt lat="47.469068" lon="7.874689">
        <ele>421.210566</ele>
        <time>2021-11-21T02:04:28.318Z</time>
      </trkpt>
      <trkpt lat="47.469050" lon="7.874738">
        <ele>421.309987</ele>
        <time>2021-11-21T02:04:29.063Z</time>
      </trkpt>
      <trkpt lat="47.468989" lon="7.874967">
        <ele>421.748794</ele>
        <time>2021-11-21T02:04:32.663Z</time>
      </trkpt>
      <trkpt lat="47.468925" lon="7.875205">
        <ele>422.205432</ele>
        <time>2021-11-21T02:04:37.146Z</time>
      </trkpt>
      <trkpt lat="47.468806" lon="7.875696">
        <ele>423.135332</ele>
        <time>2021-11-21T02:04:44.986Z</time>
      </trkpt>
      <trkpt lat="47.468698" lon="7.876140">
        <ele>423.976570</ele>
        <time>2021-11-21T02:04:53.440Z</time>
      </trkpt>
      <trkpt lat="47.468639" lon="7.876439">
        <ele>424.781100</ele>
        <time>2021-11-21T02:04:59.553Z</time>
      </trkpt>
      <trkpt lat="47.468557" lon="7.876917">
        <ele>427.131357</ele>
        <time>2021-11-21T02:05:10.462Z</time>
      </trkpt>
      <trkpt lat="47.468377" lon="7.877826">
        <ele>431.645512</ele>
        <time>2021-11-21T02:05:40.167Z</time>
      </trkpt>
      <trkpt lat="47.468327" lon="7.877957">
        <ele>432.362475</ele>
        <time>2021-11-21T02:05:45.558Z</time>
      </trkpt>
      <trkpt lat="47.468308" lon="7.877998">
        <ele>432.599379</ele>
        <time>2021-11-21T02:05:48.732Z</time>
      </trkpt>
      <trkpt lat="47.468268" lon="7.878083">
        <ele>433.092964</ele>
        <time>2021-11-21T02:05:51.508Z</time>
      </trkpt>
      <trkpt lat="47.468104" lon="7.878354">
        <ele>434.826426</ele>
        <time>2021-11-21T02:06:02.111Z</time>
      </trkpt>
      <trkpt lat="47.468067" lon="7.878427">
        <ele>435.261262</ele>
        <time>2021-11-21T02:06:07.161Z</time>
      </trkpt>
      <trkpt lat="47.467908" lon="7.878819">
        <ele>437.355185</ele>
        <time>2021-11-21T02:06:20.336Z</time>
      </trkpt>
      <trkpt lat="47.467814" lon="7.879126">
        <ele>438.599724</ele>
        <time>2021-11-21T02:06:30.717Z</time>
      </trkpt>
      <trkpt lat="47.467758" lon="7.879308">
        <ele>439.338148</ele>
        <time>2021-11-21T02:06:37.834Z</time>
      </trkpt>
      <trkpt lat="47.467695" lon="7.879712">
        <ele>440.869198</ele>
        <time>2021-11-21T02:06:50.630Z</time>
      </trkpt>
      <trkpt lat="47.467712" lon="7.880819">
        <ele>444.958129</ele>
        <time>2021-11-21T02:07:19.446Z</time>
      </trkpt>
      <trkpt lat="47.467755" lon="7.881902">
        <ele>446.156823</ele>
        <time>2021-11-21T02:07:33.743Z</time>
      </trkpt>
      <trkpt lat="47.467789" lon="7.882188">
        <ele>445.778695</ele>
        <time>2021-11-21T02:07:35.929Z</time>
      </trkpt>
      <trkpt lat="47.467832" lon="7.882502">
        <ele>445.361518</ele>
        <time>2021-11-21T02:07:38.235Z</time>
      </trkpt>
      <trkpt lat="47.467854" lon="7.882590">
        <ele>445.239345</ele>
        <time>2021-11-21T02:07:38.826Z</time>
      </trkpt>
      <trkpt lat="47.468085" lon="7.883534">
        <ele>443.932072</ele>
        <time>2021-11-21T02:07:45.610Z</time>
      </trkpt>
      <trkpt lat="47.468175" lon="7.884477">
        <ele>442.554484</ele>
        <time>2021-11-21T02:07:51.949Z</time>
      </trkpt>
      <trkpt lat="47.468170" lon="7.884753">
        <ele>442.127447</ele>
        <time>2021-11-21T02:07:53.752Z</time>
      </trkpt>
      <trkpt lat="47.468160" lon="7.885131">
        <ele>441.542353</ele>
        <time>2021-11-21T02:07:56.577Z</time>
      </trkpt>
      <trkpt lat="47.468160" lon="7.885412">
        <ele>441.107736</ele>
        <time>2021-11-21T02:07:58.628Z</time>
      </trkpt>
      <trkpt lat="47.468174" lon="7.885724">
        <ele>440.624109</ele>
        <time>2021-11-21T02:08:00.924Z</time>
      </trkpt>
      <trkpt lat="47.468250" lon="7.886308">
        <ele>439.704262</ele>
        <time>2021-11-21T02:08:05.405Z</time>
      </trkpt>
      <trkpt lat="47.468546" lon="7.888014">
        <ele>439.435870</ele>
        <time>2021-11-21T02:08:22.486Z</time>
      </trkpt>
      <trkpt lat="47.468718" lon="7.888938">
        <ele>439.516739</ele>
        <time>2021-11-21T02:08:33.832Z</time>
      </trkpt>
      <trkpt lat="47.468951" lon="7.890216">
        <ele>440.338672</ele>
        <time>2021-11-21T02:08:50.813Z</time>
      </trkpt>
      <trkpt lat="47.469288" lon="7.891996">
        <ele>441.603179</ele>
        <time>2021-11-21T02:09:15.026Z</time>
      </trkpt>
      <trkpt lat="47.469496" lon="7.893085">
        <ele>442.208875</ele>
        <time>2021-11-21T02:09:29.091Z</time>
      </trkpt>
      <trkpt lat="47.469658" lon="7.894567">
        <ele>443.077292</ele>
        <time>2021-11-21T02:09:46.554Z</time>
      </trkpt>
      <trkpt lat="47.469691" lon="7.894970">
        <ele>443.386420</ele>
        <time>2021-11-21T02:09:51.118Z</time>
      </trkpt>
      <trkpt lat="47.469714" lon="7.895204">
        <ele>443.566484</ele>
        <time>2021-11-21T02:09:53.767Z</time>
      </trkpt>
      <trkpt lat="47.469728" lon="7.895384">
        <ele>443.704458</ele>
        <time>2021-11-21T02:09:55.769Z</time>
      </trkpt>
      <trkpt lat="47.469734" lon="7.895575">
        <ele>443.850062</ele>
        <time>2021-11-21T02:09:58.170Z</time>
      </trkpt>
      <trkpt lat="47.469747" lon="7.895922">
        <ele>444.114707</ele>
        <time>2021-11-21T02:10:02.233Z</time>
      </trkpt>
      <trkpt lat="47.469738" lon="7.896220">
        <ele>444.341860</ele>
        <time>2021-11-21T02:10:06.714Z</time>
      </trkpt>
      <trkpt lat="47.469692" lon="7.896826">
        <ele>444.806228</ele>
        <time>2021-11-21T02:10:15.860Z</time>
      </trkpt>
      <trkpt lat="47.469678" lon="7.896938">
        <ele>444.909943</ele>
        <time>2021-11-21T02:10:17.424Z</time>
      </trkpt>
      <trkpt lat="47.469652" lon="7.897139">
        <ele>445.401880</ele>
        <time>2021-11-21T02:10:20.838Z</time>
      </trkpt>
      <trkpt lat="47.469598" lon="7.897405">
        <ele>446.069513</ele>
        <time>2021-11-21T02:10:25.316Z</time>
      </trkpt>
      <trkpt lat="47.469534" lon="7.897638">
        <ele>446.674080</ele>
        <time>2021-11-21T02:10:29.585Z</time>
      </trkpt>
      <trkpt lat="47.469806" lon="7.897795">
        <ele>447.712351</ele>
        <time>2021-11-21T02:10:36.831Z</time>
      </trkpt>
      <trkpt lat="47.469999" lon="7.897879">
        <ele>448.427760</ele>
        <time>2021-11-21T02:10:42.504Z</time>
      </trkpt>
      <trkpt lat="47.471002" lon="7.898222">
        <ele>452.476873</ele>
        <time>2021-11-21T02:11:17.635Z</time>
      </trkpt>
      <trkpt lat="47.471597" lon="7.898344">
        <ele>455.640355</ele>
        <time>2021-11-21T02:11:39.743Z</time>
      </trkpt>
      <trkpt lat="47.471825" lon="7.898370">
        <ele>456.844663</ele>
        <time>2021-11-21T02:11:47.701Z</time>
      </trkpt>
      <trkpt lat="47.471910" lon="7.898392">
        <ele>457.299109</ele>
        <time>2021-11-21T02:11:51.083Z</time>
      </trkpt>
      <trkpt lat="47.473317" lon="7.898945">
        <ele>464.631965</ele>
        <time>2021-11-21T02:12:43.725Z</time>
      </trkpt>
      <trkpt lat="47.473931" lon="7.899567">
        <ele>468.240184</ele>
        <time>2021-11-21T02:13:06.998Z</time>
      </trkpt>
      <trkpt lat="47.474087" lon="7.899774">
        <ele>469.256265</ele>
        <time>2021-11-21T02:13:14.518Z</time>
      </trkpt>
      <trkpt lat="47.474186" lon="7.899915">
        <ele>469.957484</ele>
        <time>2021-11-21T02:13:19.176Z</time>
      </trkpt>
      <trkpt lat="47.474336" lon="7.900125">
        <ele>471.036886</ele>
        <time>2021-11-21T02:13:26.455Z</time>
      </trkpt>
      <trkpt lat="47.474617" lon="7.900560">
        <ele>473.162658</ele>
        <time>2021-11-21T02:13:40.562Z</time>
      </trkpt>
      <trkpt lat="47.474888" lon="7.900841">
        <ele>474.892359</ele>
        <time>2021-11-21T02:13:51.889Z</time>
      </trkpt>
      <trkpt lat="47.475163" lon="7.901034">
        <ele>476.483245</ele>
        <time>2021-11-21T02:14:02.867Z</time>
      </trkpt>
      <trkpt lat="47.475300" lon="7.901112">
        <ele>477.250504</ele>
        <time>2021-11-21T02:14:08.879Z</time>
      </trkpt>
      <trkpt lat="47.476364" lon="7.901870">
        <ele>484.174819</ele>
        <time>2021-11-21T02:14:53.543Z</time>
      </trkpt>
      <trkpt lat="47.476536" lon="7.901977">
        <ele>485.311329</ele>
        <time>2021-11-21T02:15:01.204Z</time>
      </trkpt>
      <trkpt lat="47.476982" lon="7.902234">
        <ele>488.226718</ele>
        <time>2021-11-21T02:15:20.178Z</time>
      </trkpt>
      <trkpt lat="47.478118" lon="7.903075">
        <ele>495.973990</ele>
        <time>2021-11-21T02:16:12.822Z</time>
      </trkpt>
      <trkpt lat="47.478182" lon="7.903109">
        <ele>496.388858</ele>
        <time>2021-11-21T02:16:16.161Z</time>
      </trkpt>
      <trkpt lat="47.478367" lon="7.903166">
        <ele>497.541748</ele>
        <time>2021-11-21T02:16:23.232Z</time>
      </trkpt>
      <trkpt lat="47.480980" lon="7.903461">
        <ele>511.956837</ele>
        <time>2021-11-21T02:17:55.688Z</time>
      </trkpt>
      <trkpt lat="47.481478" lon="7.903693">
        <ele>515.337825</ele>
        <time>2021-11-21T02:18:15.259Z</time>
      </trkpt>
      <trkpt lat="47.481588" lon="7.903776">
        <ele>516.137430</ele>
        <time>2021-11-21T02:18:20.105Z</time>
      </trkpt>
      <trkpt lat="47.481709" lon="7.903892">
        <ele>517.071082</ele>
        <time>2021-11-21T02:18:26.455Z</time>
      </trkpt>
      <trkpt lat="47.482157" lon="7.904346">
        <ele>520.587390</ele>
        <time>2021-11-21T02:18:50.600Z</time>
      </trkpt>
      <trkpt lat="47.482433" lon="7.904538">
        <ele>522.397264</ele>
        <time>2021-11-21T02:19:04.562Z</time>
      </trkpt>
      <trkpt lat="47.483101" lon="7.904680">
        <ele>525.884206</ele>
        <time>2021-11-21T02:19:35.662Z</time>
      </trkpt>
      <trkpt lat="47.483329" lon="7.904705">
        <ele>527.065496</ele>
        <time>2021-11-21T02:19:44.081Z</time>
      </trkpt>
      <trkpt lat="47.483385" lon="7.904708">
        <ele>527.355033</ele>
        <time>2021-11-21T02:19:46.461Z</time>
      </trkpt>
      <trkpt lat="47.484005" lon="7.904793">
        <ele>530.572248</ele>
        <time>2021-11-21T02:20:02.688Z</time>
      </trkpt>
      <trkpt lat="47.484064" lon="7.904808">
        <ele>530.881563</ele>
        <time>2021-11-21T02:20:03.784Z</time>
      </trkpt>
      <trkpt lat="47.484124" lon="7.904824">
        <ele>530.980853</ele>
        <time>2021-11-21T02:20:05.177Z</time>
      </trkpt>
      <trkpt lat="47.484248" lon="7.904856">
        <ele>530.741191</ele>
        <time>2021-11-21T02:20:07.736Z</time>
      </trkpt>
      <trkpt lat="47.484481" lon="7.904947">
        <ele>530.282361</ele>
        <time>2021-11-21T02:20:12.105Z</time>
      </trkpt>
      <trkpt lat="47.484713" lon="7.905133">
        <ele>529.779959</ele>
        <time>2021-11-21T02:20:16.727Z</time>
      </trkpt>
      <trkpt lat="47.484936" lon="7.905289">
        <ele>529.310306</ele>
        <time>2021-11-21T02:20:19.439Z</time>
      </trkpt>
      <trkpt lat="47.485049" lon="7.905336">
        <ele>529.086813</ele>
        <time>2021-11-21T02:20:20.744Z</time>
      </trkpt>
      <trkpt lat="47.485073" lon="7.905345">
        <ele>529.039672</ele>
        <time>2021-11-21T02:20:20.955Z</time>
      </trkpt>
      <trkpt lat="47.485331" lon="7.905337">
        <ele>528.548326</ele>
        <time>2021-11-21T02:20:23.642Z</time>
      </trkpt>
      <trkpt lat="47.485593" lon="7.905145">
        <ele>527.991651</ele>
        <time>2021-11-21T02:20:26.549Z</time>
      </trkpt>
      <trkpt lat="47.486049" lon="7.904262">
        <ele>524.273569</ele>
        <time>2021-11-21T02:20:33.405Z</time>
      </trkpt>
      <trkpt lat="47.486247" lon="7.904043">
        <ele>522.779699</ele>
        <time>2021-11-21T02:20:35.596Z</time>
      </trkpt>
      <trkpt lat="47.486480" lon="7.904016">
        <ele>521.367310</ele>
        <time>2021-11-21T02:20:37.763Z</time>
      </trkpt>
      <trkpt lat="47.486688" lon="7.904238">
        <ele>519.817480</ele>
        <time>2021-11-21T02:20:40.175Z</time>
      </trkpt>
      <trkpt lat="47.486721" lon="7.904326">
        <ele>519.406480</ele>
        <time>2021-11-21T02:20:40.778Z</time>
      </trkpt>
      <trkpt lat="47.486755" lon="7.904487">
        <ele>518.717631</ele>
        <time>2021-11-21T02:20:41.797Z</time>
      </trkpt>
      <trkpt lat="47.486724" lon="7.905485">
        <ele>515.151054</ele>
        <time>2021-11-21T02:20:47.960Z</time>
      </trkpt>
      <trkpt lat="47.486769" lon="7.905976">
        <ele>513.620582</ele>
        <time>2021-11-21T02:20:51.047Z</time>
      </trkpt>
      <trkpt lat="47.486969" lon="7.906583">
        <ele>511.534709</ele>
        <time>2021-11-21T02:20:55.339Z</time>
      </trkpt>
      <trkpt lat="47.487197" lon="7.906946">
        <ele>510.003960</ele>
        <time>2021-11-21T02:20:58.890Z</time>
      </trkpt>
      <trkpt lat="47.487378" lon="7.907191">
        <ele>508.882750</ele>
        <time>2021-11-21T02:21:01.469Z</time>
      </trkpt>
      <trkpt lat="47.487587" lon="7.907459">
        <ele>507.898505</ele>
        <time>2021-11-21T02:21:04.338Z</time>
      </trkpt>
      <trkpt lat="47.487763" lon="7.907711">
        <ele>507.125339</ele>
        <time>2021-11-21T02:21:06.857Z</time>
      </trkpt>
      <trkpt lat="47.488080" lon="7.908344">
        <ele>505.444471</ele>
        <time>2021-11-21T02:21:12.216Z</time>
      </trkpt>
      <trkpt lat="47.488185" lon="7.908663">
        <ele>504.687474</ele>
        <time>2021-11-21T02:21:14.747Z</time>
      </trkpt>
      <trkpt lat="47.488241" lon="7.908835">
        <ele>504.280159</ele>
        <time>2021-11-21T02:21:16.004Z</time>
      </trkpt>
      <trkpt lat="47.488366" lon="7.909318">
        <ele>503.176746</ele>
        <time>2021-11-21T02:21:19.608Z</time>
      </trkpt>
      <trkpt lat="47.488699" lon="7.910498">
        <ele>499.769995</ele>
        <time>2021-11-21T02:21:28.130Z</time>
      </trkpt>
      <trkpt lat="47.488908" lon="7.911009">
        <ele>498.134799</ele>
        <time>2021-11-21T02:21:31.966Z</time>
      </trkpt>
      <trkpt lat="47.489040" lon="7.911300">
        <ele>497.175319</ele>
        <time>2021-11-21T02:21:34.178Z</time>
      </trkpt>
      <trkpt lat="47.489216" lon="7.911685">
        <ele>495.902824</ele>
        <time>2021-11-21T02:21:37.267Z</time>
      </trkpt>
      <trkpt lat="47.489607" lon="7.912646">
        <ele>493.610496</ele>
        <time>2021-11-21T02:21:44.780Z</time>
      </trkpt>
      <trkpt lat="47.489843" lon="7.913398">
        <ele>491.988914</ele>
        <time>2021-11-21T02:21:50.652Z</time>
      </trkpt>
      <trkpt lat="47.489922" lon="7.913738">
        <ele>491.285755</ele>
        <time>2021-11-21T02:21:53.362Z</time>
      </trkpt>
      <trkpt lat="47.489951" lon="7.913893">
        <ele>490.971214</ele>
        <time>2021-11-21T02:21:54.555Z</time>
      </trkpt>
      <trkpt lat="47.489987" lon="7.914083">
        <ele>490.585296</ele>
        <time>2021-11-21T02:21:56.027Z</time>
      </trkpt>
      <trkpt lat="47.490283" lon="7.915612">
        <ele>487.928255</ele>
        <time>2021-11-21T02:22:07.570Z</time>
      </trkpt>
      <trkpt lat="47.490429" lon="7.916164">
        <ele>486.951673</ele>
        <time>2021-11-21T02:22:11.817Z</time>
      </trkpt>
      <trkpt lat="47.490607" lon="7.916690">
        <ele>485.982515</ele>
        <time>2021-11-21T02:22:16.027Z</time>
      </trkpt>
      <trkpt lat="47.490822" lon="7.917158">
        <ele>484.568566</ele>
        <time>2021-11-21T02:22:19.943Z</time>
      </trkpt>
      <trkpt lat="47.491324" lon="7.917985">
        <ele>481.775016</ele>
        <time>2021-11-21T02:22:27.394Z</time>
      </trkpt>
      <trkpt lat="47.492227" lon="7.918989">
        <ele>477.107532</ele>
        <time>2021-11-21T02:22:38.245Z</time>
      </trkpt>
      <trkpt lat="47.492584" lon="7.919482">
        <ele>474.793589</ele>
        <time>2021-11-21T02:22:42.851Z</time>
      </trkpt>
      <trkpt lat="47.492813" lon="7.919900">
        <ele>473.070449</ele>
        <time>2021-11-21T02:22:46.277Z</time>
      </trkpt>
      <trkpt lat="47.493132" lon="7.920716">
        <ele>470.171132</ele>
        <time>2021-11-21T02:22:52.333Z</time>
      </trkpt>
      <trkpt lat="47.493236" lon="7.921091">
        <ele>469.093698</ele>
        <time>2021-11-21T02:22:54.958Z</time>
      </trkpt>
      <trkpt lat="47.493307" lon="7.921373">
        <ele>468.293806</ele>
        <time>2021-11-21T02:22:56.933Z</time>
      </trkpt>
      <trkpt lat="47.493397" lon="7.921760">
        <ele>467.205951</ele>
        <time>2021-11-21T02:22:59.638Z</time>
      </trkpt>
      <trkpt lat="47.493708" lon="7.923049">
        <ele>463.583189</ele>
        <time>2021-11-21T02:23:08.828Z</time>
      </trkpt>
      <trkpt lat="47.494034" lon="7.924101">
        <ele>460.929314</ele>
        <time>2021-11-21T02:23:16.767Z</time>
      </trkpt>
      <trkpt lat="47.494438" lon="7.925289">
        <ele>457.879636</ele>
        <time>2021-11-21T02:23:25.845Z</time>
      </trkpt>
      <trkpt lat="47.494515" lon="7.925509">
        <ele>457.276297</ele>
        <time>2021-11-21T02:23:27.456Z</time>
      </trkpt>
      <trkpt lat="47.494945" lon="7.926765">
        <ele>453.615756</ele>
        <time>2021-11-21T02:23:36.837Z</time>
      </trkpt>
      <trkpt lat="47.495031" lon="7.927006">
        <ele>452.907203</ele>
        <time>2021-11-21T02:23:38.557Z</time>
      </trkpt>
      <trkpt lat="47.495268" lon="7.927740">
        <ele>450.792298</ele>
        <time>2021-11-21T02:23:43.928Z</time>
      </trkpt>
      <trkpt lat="47.495455" lon="7.928595">
        <ele>449.137446</ele>
        <time>2021-11-21T02:23:50.062Z</time>
      </trkpt>
      <trkpt lat="47.495530" lon="7.929063">
        <ele>448.274694</ele>
        <time>2021-11-21T02:23:53.369Z</time>
      </trkpt>
      <trkpt lat="47.495562" lon="7.929221">
        <ele>447.978827</ele>
        <time>2021-11-21T02:23:54.614Z</time>
      </trkpt>
      <trkpt lat="47.495622" lon="7.929400">
        <ele>447.620411</ele>
        <time>2021-11-21T02:23:56.122Z</time>
      </trkpt>
      <trkpt lat="47.495801" lon="7.929891">
        <ele>446.619670</ele>
        <time>2021-11-21T02:24:00.261Z</time>
      </trkpt>
      <trkpt lat="47.495985" lon="7.930428">
        <ele>445.700303</ele>
        <time>2021-11-21T02:24:04.654Z</time>
      </trkpt>
      <trkpt lat="47.496051" lon="7.930607">
        <ele>445.507701</ele>
        <time>2021-11-21T02:24:06.244Z</time>
      </trkpt>
      <trkpt lat="47.496117" lon="7.930763">
        <ele>445.333856</ele>
        <time>2021-11-21T02:24:07.631Z</time>
      </trkpt>
      <trkpt lat="47.496162" lon="7.930842">
        <ele>445.236261</ele>
        <time>2021-11-21T02:24:08.502Z</time>
      </trkpt>
      <trkpt lat="47.496205" lon="7.930904">
        <ele>445.152342</ele>
        <time>2021-11-21T02:24:09.127Z</time>
      </trkpt>
      <trkpt lat="47.496424" lon="7.931075">
        <ele>444.806205</ele>
        <time>2021-11-21T02:24:12.485Z</time>
      </trkpt>
      <trkpt lat="47.496998" lon="7.931330">
        <ele>443.968429</ele>
        <time>2021-11-21T02:24:20.060Z</time>
      </trkpt>
      <trkpt lat="47.497104" lon="7.931414">
        <ele>443.800346</ele>
        <time>2021-11-21T02:24:21.475Z</time>
      </trkpt>
      <trkpt lat="47.497221" lon="7.931528">
        <ele>443.604530</ele>
        <time>2021-11-21T02:24:23.127Z</time>
      </trkpt>
      <trkpt lat="47.497430" lon="7.931757">
        <ele>443.201437</ele>
        <time>2021-11-21T02:24:25.958Z</time>
      </trkpt>
      <trkpt lat="47.497676" lon="7.932013">
        <ele>442.646408</ele>
        <time>2021-11-21T02:24:29.124Z</time>
      </trkpt>
      <trkpt lat="47.497907" lon="7.932254">
        <ele>442.124785</ele>
        <time>2021-11-21T02:24:32.217Z</time>
      </trkpt>
      <trkpt lat="47.498068" lon="7.932426">
        <ele>441.758312</ele>
        <time>2021-11-21T02:24:34.347Z</time>
      </trkpt>
      <trkpt lat="47.498138" lon="7.932522">
        <ele>441.582180</ele>
        <time>2021-11-21T02:24:35.353Z</time>
      </trkpt>
      <trkpt lat="47.498196" lon="7.932613">
        <ele>441.426180</ele>
        <time>2021-11-21T02:24:36.266Z</time>
      </trkpt>
      <trkpt lat="47.498391" lon="7.932972">
        <ele>440.851781</ele>
        <time>2021-11-21T02:24:39.772Z</time>
      </trkpt>
      <trkpt lat="47.498431" lon="7.932995">
        <ele>440.772579</ele>
        <time>2021-11-21T02:24:40.264Z</time>
      </trkpt>
      <trkpt lat="47.498481" lon="7.933011">
        <ele>440.678162</ele>
        <time>2021-11-21T02:24:40.818Z</time>
      </trkpt>
      <trkpt lat="47.498570" lon="7.932964">
        <ele>440.503755</ele>
        <time>2021-11-21T02:24:42.165Z</time>
      </trkpt>
      <trkpt lat="47.498925" lon="7.932781">
        <ele>439.909663</ele>
        <time>2021-11-21T02:24:46.489Z</time>
      </trkpt>
      <trkpt lat="47.498997" lon="7.932758">
        <ele>439.831424</ele>
        <time>2021-11-21T02:24:47.288Z</time>
      </trkpt>
      <trkpt lat="47.499088" lon="7.932741">
        <ele>439.733997</ele>
        <time>2021-11-21T02:24:48.494Z</time>
      </trkpt>
      <trkpt lat="47.499354" lon="7.932769">
        <ele>439.450738</ele>
        <time>2021-11-21T02:24:51.622Z</time>
      </trkpt>
      <trkpt lat="47.499421" lon="7.932805">
        <ele>439.375027</ele>
        <time>2021-11-21T02:24:52.494Z</time>
      </trkpt>
      <trkpt lat="47.499538" lon="7.932868">
        <ele>439.242781</ele>
        <time>2021-11-21T02:24:53.902Z</time>
      </trkpt>
      <trkpt lat="47.499678" lon="7.933067">
        <ele>439.036608</ele>
        <time>2021-11-21T02:24:56.091Z</time>
      </trkpt>
      <trkpt lat="47.499822" lon="7.933272">
        <ele>438.824387</ele>
        <time>2021-11-21T02:24:58.452Z</time>
      </trkpt>
      <trkpt lat="47.499993" lon="7.933864">
        <ele>438.362359</ele>
        <time>2021-11-21T02:25:03.956Z</time>
      </trkpt>
      <trkpt lat="47.500034" lon="7.933965">
        <ele>438.277802</ele>
        <time>2021-11-21T02:25:04.845Z</time>
      </trkpt>
      <trkpt lat="47.500007" lon="7.933994">
        <ele>438.242368</ele>
        <time>2021-11-21T02:25:05.332Z</time>
      </trkpt>
      <trkpt lat="47.499971" lon="7.934127">
        <ele>438.139550</ele>
        <time>2021-11-21T02:25:07.052Z</time>
      </trkpt>
      <trkpt lat="47.499976" lon="7.934175">
        <ele>438.122665</ele>
        <time>2021-11-21T02:25:07.734Z</time>
      </trkpt>
      <trkpt lat="47.499991" lon="7.934221">
        <ele>438.108224</ele>
        <time>2021-11-21T02:25:08.130Z</time>
      </trkpt>
      <trkpt lat="47.500077" lon="7.934300">
        <ele>438.065865</ele>
        <time>2021-11-21T02:25:09.316Z</time>
      </trkpt>
      <trkpt lat="47.500111" lon="7.934299">
        <ele>438.051633</ele>
        <time>2021-11-21T02:25:09.858Z</time>
      </trkpt>
      <trkpt lat="47.500150" lon="7.934279">
        <ele>438.034360</ele>
        <time>2021-11-21T02:25:10.404Z</time>
      </trkpt>
      <trkpt lat="47.500213" lon="7.934131">
        <ele>437.984902</ele>
        <time>2021-11-21T02:25:12.746Z</time>
      </trkpt>
      <trkpt lat="47.500208" lon="7.934071">
        <ele>437.967810</ele>
        <time>2021-11-21T02:25:13.515Z</time>
      </trkpt>
      <trkpt lat="47.500275" lon="7.934029">
        <ele>437.937360</ele>
        <time>2021-11-21T02:25:14.376Z</time>
      </trkpt>
      <trkpt lat="47.500352" lon="7.933976">
        <ele>437.901822</ele>
        <time>2021-11-21T02:25:15.586Z</time>
      </trkpt>
      <trkpt lat="47.500386" lon="7.933937">
        <ele>437.883821</ele>
        <time>2021-11-21T02:25:16.232Z</time>
      </trkpt>
      <trkpt lat="47.500435" lon="7.933872">
        <ele>437.856284</ele>
        <time>2021-11-21T02:25:17.346Z</time>
      </trkpt>
      <trkpt lat="47.500843" lon="7.933102">
        <ele>437.579610</ele>
        <time>2021-11-21T02:25:26.557Z</time>
      </trkpt>
      <trkpt lat="47.500990" lon="7.932950">
        <ele>437.504568</ele>
        <time>2021-11-21T02:25:29.167Z</time>
      </trkpt>
      <trkpt lat="47.501075" lon="7.932885">
        <ele>437.464529</ele>
        <time>2021-11-21T02:25:30.176Z</time>
      </trkpt>
      <trkpt lat="47.501463" lon="7.932668">
        <ele>437.200605</ele>
        <time>2021-11-21T02:25:35.179Z</time>
      </trkpt>
      <trkpt lat="47.501794" lon="7.932466">
        <ele>436.901478</ele>
        <time>2021-11-21T02:25:39.851Z</time>
      </trkpt>
      <trkpt lat="47.501901" lon="7.932351">
        <ele>436.791002</ele>
        <time>2021-11-21T02:25:41.996Z</time>
      </trkpt>
      <trkpt lat="47.502023" lon="7.932158">
        <ele>436.641817</ele>
        <time>2021-11-21T02:25:44.015Z</time>
      </trkpt>
      <trkpt lat="47.502400" lon="7.931256">
        <ele>436.043150</ele>
        <time>2021-11-21T02:25:52.987Z</time>
      </trkpt>
      <trkpt lat="47.502613" lon="7.930856">
        <ele>435.747038</ele>
        <time>2021-11-21T02:25:57.072Z</time>
      </trkpt>
      <trkpt lat="47.502761" lon="7.930610">
        <ele>435.548075</ele>
        <time>2021-11-21T02:25:59.976Z</time>
      </trkpt>
      <trkpt lat="47.503014" lon="7.930220">
        <ele>435.221494</ele>
        <time>2021-11-21T02:26:04.698Z</time>
      </trkpt>
      <trkpt lat="47.503485" lon="7.929688">
        <ele>434.691794</ele>
        <time>2021-11-21T02:26:12.481Z</time>
      </trkpt>
      <trkpt lat="47.503528" lon="7.929650">
        <ele>434.647018</ele>
        <time>2021-11-21T02:26:12.965Z</time>
      </trkpt>
      <trkpt lat="47.503598" lon="7.929585">
        <ele>434.573139</ele>
        <time>2021-11-21T02:26:14.419Z</time>
      </trkpt>
      <trkpt lat="47.503815" lon="7.929426">
        <ele>434.356657</ele>
        <time>2021-11-21T02:26:17.106Z</time>
      </trkpt>
      <trkpt lat="47.504005" lon="7.929312">
        <ele>433.972748</ele>
        <time>2021-11-21T02:26:20.333Z</time>
      </trkpt>
      <trkpt lat="47.504650" lon="7.928941">
        <ele>432.079739</ele>
        <time>2021-11-21T02:26:28.053Z</time>
      </trkpt>
      <trkpt lat="47.504724" lon="7.928871">
        <ele>431.839499</ele>
        <time>2021-11-21T02:26:29.018Z</time>
      </trkpt>
      <trkpt lat="47.504799" lon="7.928777">
        <ele>431.570665</ele>
        <time>2021-11-21T02:26:29.892Z</time>
      </trkpt>
      <trkpt lat="47.505253" lon="7.928170">
        <ele>429.897106</ele>
        <time>2021-11-21T02:26:36.242Z</time>
      </trkpt>
      <trkpt lat="47.505814" lon="7.927657">
        <ele>427.751347</ele>
        <time>2021-11-21T02:26:42.544Z</time>
      </trkpt>
      <trkpt lat="47.505868" lon="7.927611">
        <ele>427.534560</ele>
        <time>2021-11-21T02:26:43.163Z</time>
      </trkpt>
      <trkpt lat="47.505881" lon="7.927601">
        <ele>427.483583</ele>
        <time>2021-11-21T02:26:43.299Z</time>
      </trkpt>
      <trkpt lat="47.506112" lon="7.927414">
        <ele>426.567462</ele>
        <time>2021-11-21T02:26:45.758Z</time>
      </trkpt>
      <trkpt lat="47.507856" lon="7.925990">
        <ele>420.775726</ele>
        <time>2021-11-21T02:27:06.530Z</time>
      </trkpt>
      <trkpt lat="47.508002" lon="7.925879">
        <ele>420.392847</ele>
        <time>2021-11-21T02:27:08.338Z</time>
      </trkpt>
      <trkpt lat="47.508106" lon="7.925799">
        <ele>420.119438</ele>
        <time>2021-11-21T02:27:09.735Z</time>
      </trkpt>
      <trkpt lat="47.508355" lon="7.925609">
        <ele>419.465949</ele>
        <time>2021-11-21T02:27:12.898Z</time>
      </trkpt>
      <trkpt lat="47.508667" lon="7.925295">
        <ele>418.599347</ele>
        <time>2021-11-21T02:27:17.154Z</time>
      </trkpt>
      <trkpt lat="47.509016" lon="7.924882">
        <ele>417.602420</ele>
        <time>2021-11-21T02:27:21.894Z</time>
      </trkpt>
      <trkpt lat="47.509032" lon="7.924863">
        <ele>417.556653</ele>
        <time>2021-11-21T02:27:22.096Z</time>
      </trkpt>
      <trkpt lat="47.509223" lon="7.924628">
        <ele>417.002512</ele>
        <time>2021-11-21T02:27:24.762Z</time>
      </trkpt>
      <trkpt lat="47.509572" lon="7.924311">
        <ele>416.088911</ele>
        <time>2021-11-21T02:27:29.119Z</time>
      </trkpt>
      <trkpt lat="47.509605" lon="7.924290">
        <ele>416.008765</ele>
        <time>2021-11-21T02:27:29.458Z</time>
      </trkpt>
      <trkpt lat="47.509676" lon="7.924247">
        <ele>415.837600</ele>
        <time>2021-11-21T02:27:30.247Z</time>
      </trkpt>
      <trkpt lat="47.509806" lon="7.924174">
        <ele>415.527369</ele>
        <time>2021-11-21T02:27:31.840Z</time>
      </trkpt>
      <trkpt lat="47.509886" lon="7.924134">
        <ele>415.338961</ele>
        <time>2021-11-21T02:27:32.819Z</time>
      </trkpt>
      <trkpt lat="47.509869" lon="7.923971">
        <ele>415.090384</ele>
        <time>2021-11-21T02:27:33.929Z</time>
      </trkpt>
      <trkpt lat="47.509817" lon="7.923703">
        <ele>414.740838</ele>
        <time>2021-11-21T02:27:36.088Z</time>
      </trkpt>
      <trkpt lat="47.509668" lon="7.923400">
        <ele>414.363971</ele>
        <time>2021-11-21T02:27:38.790Z</time>
      </trkpt>
      <trkpt lat="47.509595" lon="7.923295">
        <ele>414.212454</ele>
        <time>2021-11-21T02:27:40.017Z</time>
      </trkpt>
      <trkpt lat="47.509550" lon="7.923245">
        <ele>414.128696</ele>
        <time>2021-11-21T02:27:40.688Z</time>
      </trkpt>
      <trkpt lat="47.509583" lon="7.922962">
        <ele>413.839918</ele>
        <time>2021-11-21T02:27:42.758Z</time>
      </trkpt>
      <trkpt lat="47.509615" lon="7.922742">
        <ele>413.613628</ele>
        <time>2021-11-21T02:27:44.657Z</time>
      </trkpt>
      <trkpt lat="47.509688" lon="7.922616">
        <ele>413.446708</ele>
        <time>2021-11-21T02:27:45.809Z</time>
      </trkpt>
      <trkpt lat="47.510639" lon="7.921796">
        <ele>411.965700</ele>
        <time>2021-11-21T02:27:59.343Z</time>
      </trkpt>
      <trkpt lat="47.510872" lon="7.921477">
        <ele>411.680655</ele>
        <time>2021-11-21T02:28:03.450Z</time>
      </trkpt>
      <trkpt lat="47.511052" lon="7.921232">
        <ele>411.461041</ele>
        <time>2021-11-21T02:28:06.595Z</time>
      </trkpt>
      <trkpt lat="47.511067" lon="7.921207">
        <ele>411.440755</ele>
        <time>2021-11-21T02:28:06.866Z</time>
      </trkpt>
      <trkpt lat="47.511186" lon="7.920984">
        <ele>411.268340</ele>
        <time>2021-11-21T02:28:09.321Z</time>
      </trkpt>
      <trkpt lat="47.511186" lon="7.920984">
        <ele>411.268340</ele>
        <time>2021-11-21T02:28:09.344Z</time>
      </trkpt>
      <trkpt lat="47.511613" lon="7.920183">
        <ele>410.649284</ele>
        <time>2021-11-21T02:28:17.879Z</time>
      </trkpt>
      <trkpt lat="47.511632" lon="7.920105">
        <ele>410.598981</ele>
        <time>2021-11-21T02:28:18.671Z</time>
      </trkpt>
      <trkpt lat="47.511883" lon="7.920133">
        <ele>410.178828</ele>
        <time>2021-11-21T02:28:22.784Z</time>
      </trkpt>
      <trkpt lat="47.511964" lon="7.919989">
        <ele>409.963278</ele>
        <time>2021-11-21T02:28:24.253Z</time>
      </trkpt>
      <trkpt lat="47.512085" lon="7.919732">
        <ele>409.602937</ele>
        <time>2021-11-21T02:28:26.634Z</time>
      </trkpt>
      <trkpt lat="47.512255" lon="7.919538">
        <ele>409.237417</ele>
        <time>2021-11-21T02:28:29.070Z</time>
      </trkpt>
      <trkpt lat="47.512664" lon="7.919306">
        <ele>408.491539</ele>
        <time>2021-11-21T02:28:33.959Z</time>
      </trkpt>
      <trkpt lat="47.512938" lon="7.919052">
        <ele>407.941013</ele>
        <time>2021-11-21T02:28:37.524Z</time>
      </trkpt>
      <trkpt lat="47.513058" lon="7.918896">
        <ele>407.669062</ele>
        <time>2021-11-21T02:28:39.248Z</time>
      </trkpt>
      <trkpt lat="47.513160" lon="7.918764">
        <ele>407.439342</ele>
        <time>2021-11-21T02:28:40.725Z</time>
      </trkpt>
      <trkpt lat="47.513378" lon="7.918393">
        <ele>406.880040</ele>
        <time>2021-11-21T02:28:44.388Z</time>
      </trkpt>
      <trkpt lat="47.514255" lon="7.917714">
        <ele>405.213482</ele>
        <time>2021-11-21T02:28:55.462Z</time>
      </trkpt>
      <trkpt lat="47.514561" lon="7.917409">
        <ele>404.592307</ele>
        <time>2021-11-21T02:28:59.774Z</time>
      </trkpt>
      <trkpt lat="47.514635" lon="7.917349">
        <ele>404.469902</ele>
        <time>2021-11-21T02:29:00.717Z</time>
      </trkpt>
      <trkpt lat="47.515014" lon="7.917030">
        <ele>404.040254</ele>
        <time>2021-11-21T02:29:06.081Z</time>
      </trkpt>
      <trkpt lat="47.516391" lon="7.915243">
        <ele>402.268714</ele>
        <time>2021-11-21T02:29:28.783Z</time>
      </trkpt>
      <trkpt lat="47.516544" lon="7.914936">
        <ele>402.031896</ele>
        <time>2021-11-21T02:29:31.953Z</time>
      </trkpt>
      <trkpt lat="47.516569" lon="7.914864">
        <ele>401.981645</ele>
        <time>2021-11-21T02:29:32.710Z</time>
      </trkpt>
      <trkpt lat="47.516569" lon="7.914864">
        <ele>401.981645</ele>
        <time>2021-11-21T02:29:32.722Z</time>
      </trkpt>
      <trkpt lat="47.516590" lon="7.914840">
        <ele>401.957265</ele>
        <time>2021-11-21T02:29:33.038Z</time>
      </trkpt>
      <trkpt lat="47.516626" lon="7.914830">
        <ele>401.923603</ele>
        <time>2021-11-21T02:29:33.517Z</time>
      </trkpt>
      <trkpt lat="47.516662" lon="7.914835">
        <ele>401.890372</ele>
        <time>2021-11-21T02:29:33.951Z</time>
      </trkpt>
      <trkpt lat="47.516662" lon="7.914835">
        <ele>401.890372</ele>
        <time>2021-11-21T02:29:33.956Z</time>
      </trkpt>
      <trkpt lat="47.516748" lon="7.914873">
        <ele>401.807891</ele>
        <time>2021-11-21T02:29:35.084Z</time>
      </trkpt>
      <trkpt lat="47.516806" lon="7.914896">
        <ele>401.752708</ele>
        <time>2021-11-21T02:29:35.790Z</time>
      </trkpt>
      <trkpt lat="47.517140" lon="7.915259">
        <ele>401.371935</ele>
        <time>2021-11-21T02:29:40.953Z</time>
      </trkpt>
      <trkpt lat="47.517281" lon="7.915238">
        <ele>401.241696</ele>
        <time>2021-11-21T02:29:42.761Z</time>
      </trkpt>
      <trkpt lat="47.517688" lon="7.914418">
        <ele>400.552547</ele>
        <time>2021-11-21T02:29:51.133Z</time>
      </trkpt>
      <trkpt lat="47.519421" lon="7.912098">
        <ele>398.075203</ele>
        <time>2021-11-21T02:30:19.451Z</time>
      </trkpt>
      <trkpt lat="47.519720" lon="7.911522">
        <ele>397.538502</ele>
        <time>2021-11-21T02:30:25.331Z</time>
      </trkpt>
      <trkpt lat="47.519891" lon="7.911129">
        <ele>397.218792</ele>
        <time>2021-11-21T02:30:29.128Z</time>
      </trkpt>
      <trkpt lat="47.519997" lon="7.910833">
        <ele>397.092227</ele>
        <time>2021-11-21T02:30:31.772Z</time>
      </trkpt>
      <trkpt lat="47.520493" lon="7.908683">
        <ele>396.238533</ele>
        <time>2021-11-21T02:30:52.028Z</time>
      </trkpt>
      <trkpt lat="47.520738" lon="7.907839">
        <ele>396.175575</ele>
        <time>2021-11-21T02:31:02.533Z</time>
      </trkpt>
      <trkpt lat="47.520733" lon="7.907655">
        <ele>396.162955</ele>
        <time>2021-11-21T02:31:04.143Z</time>
      </trkpt>
      <trkpt lat="47.520551" lon="7.907422">
        <ele>396.138540</ele>
        <time>2021-11-21T02:31:08.193Z</time>
      </trkpt>
      <trkpt lat="47.520506" lon="7.907236">
        <ele>396.125000</ele>
        <time>2021-11-21T02:31:09.873Z</time>
      </trkpt>
      <trkpt lat="47.520515" lon="7.907103">
        <ele>396.115840</ele>
        <time>2021-11-21T02:31:11.635Z</time>
      </trkpt>
      <trkpt lat="47.520528" lon="7.906930">
        <ele>396.103910</ele>
        <time>2021-11-21T02:31:13.326Z</time>
      </trkpt>
      <trkpt lat="47.520566" lon="7.906668">
        <ele>396.085546</ele>
        <time>2021-11-21T02:31:15.604Z</time>
      </trkpt>
      <trkpt lat="47.520678" lon="7.906050">
        <ele>395.771655</ele>
        <time>2021-11-21T02:31:21.542Z</time>
      </trkpt>
      <trkpt lat="47.520989" lon="7.905130">
        <ele>394.458713</ele>
        <time>2021-11-21T02:31:30.043Z</time>
      </trkpt>
      <trkpt lat="47.521297" lon="7.904312">
        <ele>393.263530</ele>
        <time>2021-11-21T02:31:36.810Z</time>
      </trkpt>
      <trkpt lat="47.521773" lon="7.903384">
        <ele>390.775495</ele>
        <time>2021-11-21T02:31:44.628Z</time>
      </trkpt>
      <trkpt lat="47.521792" lon="7.903347">
        <ele>390.648843</ele>
        <time>2021-11-21T02:31:44.913Z</time>
      </trkpt>
      <trkpt lat="47.522013" lon="7.902637">
        <ele>388.518655</ele>
        <time>2021-11-21T02:31:50.110Z</time>
      </trkpt>
      <trkpt lat="47.522038" lon="7.902562">
        <ele>388.290760</ele>
        <time>2021-11-21T02:31:50.634Z</time>
      </trkpt>
      <trkpt lat="47.522065" lon="7.902526">
        <ele>388.144166</ele>
        <time>2021-11-21T02:31:50.966Z</time>
      </trkpt>
      <trkpt lat="47.522132" lon="7.902476">
        <ele>387.841444</ele>
        <time>2021-11-21T02:31:51.711Z</time>
      </trkpt>
      <trkpt lat="47.522260" lon="7.902356">
        <ele>387.230186</ele>
        <time>2021-11-21T02:31:53.186Z</time>
      </trkpt>
      <trkpt lat="47.522554" lon="7.901999">
        <ele>385.696119</ele>
        <time>2021-11-21T02:31:56.828Z</time>
      </trkpt>
      <trkpt lat="47.522688" lon="7.901843">
        <ele>385.107780</ele>
        <time>2021-11-21T02:31:58.424Z</time>
      </trkpt>
      <trkpt lat="47.523036" lon="7.901580">
        <ele>383.930583</ele>
        <time>2021-11-21T02:32:02.171Z</time>
      </trkpt>
      <trkpt lat="47.523340" lon="7.901197">
        <ele>382.727970</ele>
        <time>2021-11-21T02:32:06.131Z</time>
      </trkpt>
      <trkpt lat="47.523433" lon="7.901043">
        <ele>382.307611</ele>
        <time>2021-11-21T02:32:07.521Z</time>
      </trkpt>
      <trkpt lat="47.523567" lon="7.900820">
        <ele>381.700252</ele>
        <time>2021-11-21T02:32:09.621Z</time>
      </trkpt>
      <trkpt lat="47.523620" lon="7.900698">
        <ele>381.405093</ele>
        <time>2021-11-21T02:32:10.722Z</time>
      </trkpt>
      <trkpt lat="47.523648" lon="7.900606">
        <ele>381.199770</ele>
        <time>2021-11-21T02:32:11.407Z</time>
      </trkpt>
      <trkpt lat="47.523739" lon="7.900557">
        <ele>380.908020</ele>
        <time>2021-11-21T02:32:12.463Z</time>
      </trkpt>
      <trkpt lat="47.523878" lon="7.900445">
        <ele>380.431223</ele>
        <time>2021-11-21T02:32:14.429Z</time>
      </trkpt>
      <trkpt lat="47.523957" lon="7.900371">
        <ele>380.149571</ele>
        <time>2021-11-21T02:32:15.461Z</time>
      </trkpt>
      <trkpt lat="47.523989" lon="7.900340">
        <ele>380.034355</ele>
        <time>2021-11-21T02:32:15.926Z</time>
      </trkpt>
      <trkpt lat="47.523945" lon="7.900256">
        <ele>379.965886</ele>
        <time>2021-11-21T02:32:17.004Z</time>
      </trkpt>
      <trkpt lat="47.523890" lon="7.900131">
        <ele>379.936859</ele>
        <time>2021-11-21T02:32:18.419Z</time>
      </trkpt>
      <trkpt lat="47.523861" lon="7.900049">
        <ele>379.918850</ele>
        <time>2021-11-21T02:32:19.315Z</time>
      </trkpt>
      <trkpt lat="47.523896" lon="7.900001">
        <ele>379.905106</ele>
        <time>2021-11-21T02:32:19.872Z</time>
      </trkpt>
      <trkpt lat="47.524309" lon="7.899115">
        <ele>379.695648</ele>
        <time>2021-11-21T02:32:29.696Z</time>
      </trkpt>
      <trkpt lat="47.524360" lon="7.898951">
        <ele>379.660520</ele>
        <time>2021-11-21T02:32:31.400Z</time>
      </trkpt>
      <trkpt lat="47.524617" lon="7.898216">
        <ele>379.499489</ele>
        <time>2021-11-21T02:32:40.609Z</time>
      </trkpt>
      <trkpt lat="47.524834" lon="7.897636">
        <ele>379.271068</ele>
        <time>2021-11-21T02:32:47.798Z</time>
      </trkpt>
      <trkpt lat="47.525518" lon="7.896336">
        <ele>378.607018</ele>
        <time>2021-11-21T02:33:03.884Z</time>
      </trkpt>
      <trkpt lat="47.525590" lon="7.896117">
        <ele>378.508873</ele>
        <time>2021-11-21T02:33:05.522Z</time>
      </trkpt>
      <trkpt lat="47.525622" lon="7.895944">
        <ele>378.436598</ele>
        <time>2021-11-21T02:33:07.649Z</time>
      </trkpt>
      <trkpt lat="47.525631" lon="7.895583">
        <ele>377.955243</ele>
        <time>2021-11-21T02:33:10.037Z</time>
      </trkpt>
      <trkpt lat="47.525631" lon="7.895442">
        <ele>377.705742</ele>
        <time>2021-11-21T02:33:11.774Z</time>
      </trkpt>
      <trkpt lat="47.525603" lon="7.895265">
        <ele>377.384058</ele>
        <time>2021-11-21T02:33:13.121Z</time>
      </trkpt>
      <trkpt lat="47.525725" lon="7.895110">
        <ele>376.962828</ele>
        <time>2021-11-21T02:33:14.643Z</time>
      </trkpt>
      <trkpt lat="47.526257" lon="7.894278">
        <ele>374.935275</ele>
        <time>2021-11-21T02:33:22.839Z</time>
      </trkpt>
      <trkpt lat="47.526335" lon="7.893960">
        <ele>374.336603</ele>
        <time>2021-11-21T02:33:25.171Z</time>
      </trkpt>
      <trkpt lat="47.526401" lon="7.893964">
        <ele>374.163505</ele>
        <time>2021-11-21T02:33:25.808Z</time>
      </trkpt>
      <trkpt lat="47.526451" lon="7.893983">
        <ele>374.028236</ele>
        <time>2021-11-21T02:33:26.540Z</time>
      </trkpt>
      <trkpt lat="47.526504" lon="7.894030">
        <ele>373.866354</ele>
        <time>2021-11-21T02:33:27.209Z</time>
      </trkpt>
      <trkpt lat="47.526709" lon="7.893617">
        <ele>373.089388</ele>
        <time>2021-11-21T02:33:30.635Z</time>
      </trkpt>
      <trkpt lat="47.527011" lon="7.893061">
        <ele>372.055636</ele>
        <time>2021-11-21T02:33:35.640Z</time>
      </trkpt>
      <trkpt lat="47.527498" lon="7.892650">
        <ele>370.853037</ele>
        <time>2021-11-21T02:33:41.714Z</time>
      </trkpt>
      <trkpt lat="47.528003" lon="7.892732">
        <ele>369.790542</ele>
        <time>2021-11-21T02:33:47.964Z</time>
      </trkpt>
      <trkpt lat="47.528331" lon="7.892682">
        <ele>369.438518</ele>
        <time>2021-11-21T02:33:52.231Z</time>
      </trkpt>
      <trkpt lat="47.529235" lon="7.892158">
        <ele>368.402115</ele>
        <time>2021-11-21T02:34:03.930Z</time>
      </trkpt>
      <trkpt lat="47.529695" lon="7.891638">
        <ele>367.829880</ele>
        <time>2021-11-21T02:34:10.994Z</time>
      </trkpt>
      <trkpt lat="47.529714" lon="7.891609">
        <ele>367.812478</ele>
        <time>2021-11-21T02:34:11.256Z</time>
      </trkpt>
      <trkpt lat="47.529972" lon="7.891210">
        <ele>367.574565</ele>
        <time>2021-11-21T02:34:15.683Z</time>
      </trkpt>
      <trkpt lat="47.530322" lon="7.890690">
        <ele>367.258369</ele>
        <time>2021-11-21T02:34:21.834Z</time>
      </trkpt>
      <trkpt lat="47.530606" lon="7.890373">
        <ele>367.031551</ele>
        <time>2021-11-21T02:34:26.542Z</time>
      </trkpt>
      <trkpt lat="47.530973" lon="7.890104">
        <ele>366.770380</ele>
        <time>2021-11-21T02:34:32.307Z</time>
      </trkpt>
      <trkpt lat="47.531076" lon="7.890029">
        <ele>366.840174</ele>
        <time>2021-11-21T02:34:34.253Z</time>
      </trkpt>
      <trkpt lat="47.531265" lon="7.889937">
        <ele>367.054660</ele>
        <time>2021-11-21T02:34:37.345Z</time>
      </trkpt>
      <trkpt lat="47.531560" lon="7.889776">
        <ele>367.393609</ele>
        <time>2021-11-21T02:34:42.992Z</time>
      </trkpt>
      <trkpt lat="47.531843" lon="7.889349">
        <ele>367.829154</ele>
        <time>2021-11-21T02:34:50.581Z</time>
      </trkpt>
      <trkpt lat="47.532011" lon="7.888896">
        <ele>368.205370</ele>
        <time>2021-11-21T02:34:57.775Z</time>
      </trkpt>
      <trkpt lat="47.532288" lon="7.887728">
        <ele>369.361876</ele>
        <time>2021-11-21T02:35:16.611Z</time>
      </trkpt>
      <trkpt lat="47.532505" lon="7.887120">
        <ele>370.169029</ele>
        <time>2021-11-21T02:35:26.898Z</time>
      </trkpt>
      <trkpt lat="47.532650" lon="7.885569">
        <ele>371.913420</ele>
        <time>2021-11-21T02:35:49.659Z</time>
      </trkpt>
      <trkpt lat="47.532658" lon="7.884989">
        <ele>372.261053</ele>
        <time>2021-11-21T02:35:57.847Z</time>
      </trkpt>
      <trkpt lat="47.532670" lon="7.884773">
        <ele>372.390927</ele>
        <time>2021-11-21T02:36:01.150Z</time>
      </trkpt>
      <trkpt lat="47.532699" lon="7.884224">
        <ele>372.720915</ele>
        <time>2021-11-21T02:36:08.265Z</time>
      </trkpt>
      <trkpt lat="47.532713" lon="7.884122">
        <ele>372.783288</ele>
        <time>2021-11-21T02:36:09.429Z</time>
      </trkpt>
      <trkpt lat="47.532859" lon="7.883508">
        <ele>373.173373</ele>
        <time>2021-11-21T02:36:17.040Z</time>
      </trkpt>
      <trkpt lat="47.533014" lon="7.882949">
        <ele>373.237924</ele>
        <time>2021-11-21T02:36:23.259Z</time>
      </trkpt>
      <trkpt lat="47.533374" lon="7.881639">
        <ele>372.035974</ele>
        <time>2021-11-21T02:36:34.972Z</time>
      </trkpt>
      <trkpt lat="47.533606" lon="7.880961">
        <ele>371.390025</ele>
        <time>2021-11-21T02:36:40.767Z</time>
      </trkpt>
      <trkpt lat="47.533892" lon="7.880353">
        <ele>369.907457</ele>
        <time>2021-11-21T02:36:46.084Z</time>
      </trkpt>
      <trkpt lat="47.534616" lon="7.879490">
        <ele>366.167931</ele>
        <time>2021-11-21T02:36:55.254Z</time>
      </trkpt>
      <trkpt lat="47.534908" lon="7.878975">
        <ele>364.340904</ele>
        <time>2021-11-21T02:36:59.456Z</time>
      </trkpt>
      <trkpt lat="47.534946" lon="7.878790">
        <ele>363.784288</ele>
        <time>2021-11-21T02:37:00.731Z</time>
      </trkpt>
      <trkpt lat="47.534825" lon="7.878414">
        <ele>362.281703</ele>
        <time>2021-11-21T02:37:03.258Z</time>
      </trkpt>
      <trkpt lat="47.534778" lon="7.878270">
        <ele>361.704720</ele>
        <time>2021-11-21T02:37:04.409Z</time>
      </trkpt>
      <trkpt lat="47.534855" lon="7.878090">
        <ele>360.936018</ele>
        <time>2021-11-21T02:37:05.660Z</time>
      </trkpt>
      <trkpt lat="47.535088" lon="7.877742">
        <ele>359.168002</ele>
        <time>2021-11-21T02:37:08.755Z</time>
      </trkpt>
      <trkpt lat="47.535322" lon="7.877590">
        <ele>357.802751</ele>
        <time>2021-11-21T02:37:11.252Z</time>
      </trkpt>
      <trkpt lat="47.535551" lon="7.877487">
        <ele>356.523994</ele>
        <time>2021-11-21T02:37:13.407Z</time>
      </trkpt>
      <trkpt lat="47.535635" lon="7.877484">
        <ele>356.075037</ele>
        <time>2021-11-21T02:37:14.344Z</time>
      </trkpt>
      <trkpt lat="47.535770" lon="7.877432">
        <ele>355.329718</ele>
        <time>2021-11-21T02:37:15.596Z</time>
      </trkpt>
      <trkpt lat="47.535851" lon="7.877319">
        <ele>354.735181</ele>
        <time>2021-11-21T02:37:16.626Z</time>
      </trkpt>
      <trkpt lat="47.536444" lon="7.876177">
        <ele>351.481387</ele>
        <time>2021-11-21T02:37:26.004Z</time>
      </trkpt>
      <trkpt lat="47.536632" lon="7.875912">
        <ele>350.660548</ele>
        <time>2021-11-21T02:37:28.654Z</time>
      </trkpt>
      <trkpt lat="47.536757" lon="7.875759">
        <ele>350.147668</ele>
        <time>2021-11-21T02:37:30.601Z</time>
      </trkpt>
      <trkpt lat="47.536921" lon="7.875537">
        <ele>349.444974</ele>
        <time>2021-11-21T02:37:33.168Z</time>
      </trkpt>
      <trkpt lat="47.537182" lon="7.875293">
        <ele>348.563105</ele>
        <time>2021-11-21T02:37:36.877Z</time>
      </trkpt>
      <trkpt lat="47.537261" lon="7.875237">
        <ele>348.469013</ele>
        <time>2021-11-21T02:37:37.839Z</time>
      </trkpt>
      <trkpt lat="47.537716" lon="7.874966">
        <ele>347.942145</ele>
        <time>2021-11-21T02:37:43.728Z</time>
      </trkpt>
      <trkpt lat="47.538278" lon="7.874319">
        <ele>347.177444</ele>
        <time>2021-11-21T02:37:52.202Z</time>
      </trkpt>
      <trkpt lat="47.539222" lon="7.873416">
        <ele>346.679245</ele>
        <time>2021-11-21T02:38:06.648Z</time>
      </trkpt>
      <trkpt lat="47.539678" lon="7.872430">
        <ele>346.679245</ele>
        <time>2021-11-21T02:38:15.892Z</time>
      </trkpt>
      <trkpt lat="47.539841" lon="7.872151">
        <ele>346.679245</ele>
        <time>2021-11-21T02:38:18.975Z</time>
      </trkpt>
      <trkpt lat="47.539930" lon="7.872041">
        <ele>346.679245</ele>
        <time>2021-11-21T02:38:20.198Z</time>
      </trkpt>
      <trkpt lat="47.540034" lon="7.871970">
        <ele>346.679245</ele>
        <time>2021-11-21T02:38:21.699Z</time>
      </trkpt>
      <trkpt lat="47.540216" lon="7.871851">
        <ele>346.679245</ele>
        <time>2021-11-21T02:38:23.943Z</time>
      </trkpt>
      <trkpt lat="47.540265" lon="7.871808">
        <ele>346.679245</ele>
        <time>2021-11-21T02:38:24.602Z</time>
      </trkpt>
      <trkpt lat="47.540463" lon="7.871584">
        <ele>346.679245</ele>
        <time>2021-11-21T02:38:27.698Z</time>
      </trkpt>
      <trkpt lat="47.540488" lon="7.871563">
        <ele>346.679245</ele>
        <time>2021-11-21T02:38:27.973Z</time>
      </trkpt>
    </trkseg>
  </trk>
</gpx>